<?xml version="1.0" encoding="UTF-8" standalone="no" ?>
<gpx xmlns="http://www.topografix.com/GPX/1/1" xmlns:xsi="http://www.w3.org/2001/XMLSchema-instance" xsi:schemaLocation="http://www.topografix.com/GPX/1/1 http://www.topografix.com/GPX/1/1/gpx.xsd" version="1.1" creator="VisuGPX - https://www.visugpx.com">
  <metadata>
    <name>Boucle Alta Roca Aout 2015</name>
    <desc><![CDATA[Randonnée VTT dans l\'alta Roca Corse en août 2015]]></desc>
  </metadata>
  <wpt lat="41.75163" lon="9.10798">
    <ele>704.7</ele>
    <name><![CDATA[Start]]></name>
    <desc><![CDATA[2015-08-29 06:39:04]]></desc>
  </wpt>
  <wpt lat="41.76588" lon="9.13906">
    <ele>801.7</ele>
    <name><![CDATA[Lap 1]]></name>
    <desc><![CDATA[4.31km, 21:13, 12.2kph]]></desc>
  </wpt>
  <wpt lat="41.76323" lon="9.16736">
    <ele>642.6</ele>
    <name><![CDATA[Lap 2]]></name>
    <desc><![CDATA[2.69km, 18:18, 8.8kph]]></desc>
  </wpt>
  <wpt lat="41.77212" lon="9.147">
    <ele>848.7</ele>
    <name><![CDATA[Lap 3]]></name>
    <desc><![CDATA[26.90km, 161:00, 10.0kph]]></desc>
  </wpt>
  <wpt lat="41.75138" lon="9.10954">
    <ele>708.4</ele>
    <name><![CDATA[Lap 4]]></name>
    <desc><![CDATA[5.18km, 12:03, 25.8kph]]></desc>
  </wpt>
  <trk>
    <name><![CDATA[Raphael150829]]></name>
    <desc><![CDATA[212:33 - 39.1km]]></desc>
    <trkseg>
      <trkpt lat="41.75157" lon="9.10793">
        <ele>688.441</ele>
        <time>2015-08-29T06:39:04Z</time>
      </trkpt>
      <trkpt lat="41.7515" lon="9.10806">
        <ele>686.999</ele>
        <time>2015-08-29T06:39:08Z</time>
      </trkpt>
      <trkpt lat="41.75139" lon="9.1083">
        <ele>689.883</ele>
        <time>2015-08-29T06:39:13Z</time>
      </trkpt>
      <trkpt lat="41.7513" lon="9.10851">
        <ele>688.922</ele>
        <time>2015-08-29T06:39:16Z</time>
      </trkpt>
      <trkpt lat="41.75121" lon="9.10888">
        <ele>687.961</ele>
        <time>2015-08-29T06:39:20Z</time>
      </trkpt>
      <trkpt lat="41.75121" lon="9.10888">
        <ele>687.961</ele>
        <time>2015-08-29T06:39:21Z</time>
      </trkpt>
      <trkpt lat="41.75119" lon="9.10929">
        <ele>686.519</ele>
        <time>2015-08-29T06:39:25Z</time>
      </trkpt>
      <trkpt lat="41.75121" lon="9.10943">
        <ele>686.519</ele>
        <time>2015-08-29T06:39:30Z</time>
      </trkpt>
      <trkpt lat="41.75122" lon="9.10957">
        <ele>692.287</ele>
        <time>2015-08-29T06:39:36Z</time>
      </trkpt>
      <trkpt lat="41.75122" lon="9.1096">
        <ele>693.248</ele>
        <time>2015-08-29T06:39:37Z</time>
      </trkpt>
      <trkpt lat="41.75124" lon="9.10969">
        <ele>695.17</ele>
        <time>2015-08-29T06:39:41Z</time>
      </trkpt>
      <trkpt lat="41.75132" lon="9.1098">
        <ele>701.419</ele>
        <time>2015-08-29T06:39:50Z</time>
      </trkpt>
      <trkpt lat="41.75132" lon="9.1098">
        <ele>704.303</ele>
        <time>2015-08-29T06:39:56Z</time>
      </trkpt>
      <trkpt lat="41.75165" lon="9.11019">
        <ele>705.264</ele>
        <time>2015-08-29T06:40:06Z</time>
      </trkpt>
      <trkpt lat="41.75177" lon="9.11027">
        <ele>705.264</ele>
        <time>2015-08-29T06:40:13Z</time>
      </trkpt>
      <trkpt lat="41.75179" lon="9.11053">
        <ele>702.861</ele>
        <time>2015-08-29T06:40:17Z</time>
      </trkpt>
      <trkpt lat="41.75184" lon="9.11086">
        <ele>699.977</ele>
        <time>2015-08-29T06:40:23Z</time>
      </trkpt>
      <trkpt lat="41.75196" lon="9.11112">
        <ele>697.574</ele>
        <time>2015-08-29T06:40:29Z</time>
      </trkpt>
      <trkpt lat="41.75205" lon="9.11134">
        <ele>694.209</ele>
        <time>2015-08-29T06:40:35Z</time>
      </trkpt>
      <trkpt lat="41.75211" lon="9.11155">
        <ele>691.806</ele>
        <time>2015-08-29T06:40:40Z</time>
      </trkpt>
      <trkpt lat="41.75219" lon="9.11183">
        <ele>690.364</ele>
        <time>2015-08-29T06:40:45Z</time>
      </trkpt>
      <trkpt lat="41.75232" lon="9.1122">
        <ele>687.48</ele>
        <time>2015-08-29T06:40:52Z</time>
      </trkpt>
      <trkpt lat="41.75241" lon="9.11241">
        <ele>686.038</ele>
        <time>2015-08-29T06:40:56Z</time>
      </trkpt>
      <trkpt lat="41.75257" lon="9.1127">
        <ele>684.596</ele>
        <time>2015-08-29T06:41:00Z</time>
      </trkpt>
      <trkpt lat="41.75262" lon="9.11303">
        <ele>681.712</ele>
        <time>2015-08-29T06:41:04Z</time>
      </trkpt>
      <trkpt lat="41.75262" lon="9.11303">
        <ele>680.27</ele>
        <time>2015-08-29T06:41:06Z</time>
      </trkpt>
      <trkpt lat="41.75245" lon="9.11338">
        <ele>678.828</ele>
        <time>2015-08-29T06:41:08Z</time>
      </trkpt>
      <trkpt lat="41.7523" lon="9.11391">
        <ele>675.944</ele>
        <time>2015-08-29T06:41:15Z</time>
      </trkpt>
      <trkpt lat="41.75222" lon="9.11419">
        <ele>677.386</ele>
        <time>2015-08-29T06:41:21Z</time>
      </trkpt>
      <trkpt lat="41.75217" lon="9.11442">
        <ele>679.789</ele>
        <time>2015-08-29T06:41:26Z</time>
      </trkpt>
      <trkpt lat="41.75216" lon="9.11465">
        <ele>686.519</ele>
        <time>2015-08-29T06:41:33Z</time>
      </trkpt>
      <trkpt lat="41.75215" lon="9.11493">
        <ele>687.961</ele>
        <time>2015-08-29T06:41:41Z</time>
      </trkpt>
      <trkpt lat="41.75212" lon="9.11527">
        <ele>689.403</ele>
        <time>2015-08-29T06:41:51Z</time>
      </trkpt>
      <trkpt lat="41.75211" lon="9.11548">
        <ele>688.441</ele>
        <time>2015-08-29T06:41:58Z</time>
      </trkpt>
      <trkpt lat="41.75211" lon="9.11573">
        <ele>689.403</ele>
        <time>2015-08-29T06:42:06Z</time>
      </trkpt>
      <trkpt lat="41.75207" lon="9.1159">
        <ele>689.403</ele>
        <time>2015-08-29T06:42:12Z</time>
      </trkpt>
      <trkpt lat="41.75197" lon="9.11602">
        <ele>692.287</ele>
        <time>2015-08-29T06:42:19Z</time>
      </trkpt>
      <trkpt lat="41.75182" lon="9.11631">
        <ele>698.054</ele>
        <time>2015-08-29T06:42:29Z</time>
      </trkpt>
      <trkpt lat="41.75179" lon="9.11661">
        <ele>701.419</ele>
        <time>2015-08-29T06:42:39Z</time>
      </trkpt>
      <trkpt lat="41.75179" lon="9.11687">
        <ele>704.303</ele>
        <time>2015-08-29T06:42:48Z</time>
      </trkpt>
      <trkpt lat="41.75182" lon="9.11719">
        <ele>706.706</ele>
        <time>2015-08-29T06:42:59Z</time>
      </trkpt>
      <trkpt lat="41.75185" lon="9.11744">
        <ele>708.629</ele>
        <time>2015-08-29T06:43:08Z</time>
      </trkpt>
      <trkpt lat="41.75187" lon="9.11749">
        <ele>709.11</ele>
        <time>2015-08-29T06:43:10Z</time>
      </trkpt>
      <trkpt lat="41.7519" lon="9.11752">
        <ele>710.552</ele>
        <time>2015-08-29T06:43:16Z</time>
      </trkpt>
      <trkpt lat="41.7519" lon="9.11752">
        <ele>711.513</ele>
        <time>2015-08-29T06:43:18Z</time>
      </trkpt>
      <trkpt lat="41.75204" lon="9.11726">
        <ele>714.877</ele>
        <time>2015-08-29T06:43:28Z</time>
      </trkpt>
      <trkpt lat="41.75212" lon="9.11706">
        <ele>717.281</ele>
        <time>2015-08-29T06:43:35Z</time>
      </trkpt>
      <trkpt lat="41.75213" lon="9.11703">
        <ele>717.761</ele>
        <time>2015-08-29T06:43:36Z</time>
      </trkpt>
      <trkpt lat="41.75231" lon="9.11703">
        <ele>716.32</ele>
        <time>2015-08-29T06:43:41Z</time>
      </trkpt>
      <trkpt lat="41.75234" lon="9.11706">
        <ele>716.32</ele>
        <time>2015-08-29T06:43:43Z</time>
      </trkpt>
      <trkpt lat="41.75249" lon="9.1172">
        <ele>715.358</ele>
        <time>2015-08-29T06:43:50Z</time>
      </trkpt>
      <trkpt lat="41.75262" lon="9.11735">
        <ele>715.358</ele>
        <time>2015-08-29T06:43:56Z</time>
      </trkpt>
      <trkpt lat="41.7528" lon="9.11752">
        <ele>714.877</ele>
        <time>2015-08-29T06:44:04Z</time>
      </trkpt>
      <trkpt lat="41.75298" lon="9.11764">
        <ele>714.397</ele>
        <time>2015-08-29T06:44:12Z</time>
      </trkpt>
      <trkpt lat="41.75315" lon="9.11761">
        <ele>715.839</ele>
        <time>2015-08-29T06:44:19Z</time>
      </trkpt>
      <trkpt lat="41.75335" lon="9.11757">
        <ele>719.684</ele>
        <time>2015-08-29T06:44:27Z</time>
      </trkpt>
      <trkpt lat="41.75354" lon="9.11756">
        <ele>720.165</ele>
        <time>2015-08-29T06:44:34Z</time>
      </trkpt>
      <trkpt lat="41.75373" lon="9.11764">
        <ele>719.204</ele>
        <time>2015-08-29T06:44:41Z</time>
      </trkpt>
      <trkpt lat="41.75391" lon="9.11782">
        <ele>720.165</ele>
        <time>2015-08-29T06:44:49Z</time>
      </trkpt>
      <trkpt lat="41.75414" lon="9.11803">
        <ele>722.568</ele>
        <time>2015-08-29T06:44:58Z</time>
      </trkpt>
      <trkpt lat="41.75432" lon="9.11821">
        <ele>722.568</ele>
        <time>2015-08-29T06:45:05Z</time>
      </trkpt>
      <trkpt lat="41.75443" lon="9.11837">
        <ele>724.491</ele>
        <time>2015-08-29T06:45:11Z</time>
      </trkpt>
      <trkpt lat="41.75446" lon="9.11859">
        <ele>721.607</ele>
        <time>2015-08-29T06:45:17Z</time>
      </trkpt>
      <trkpt lat="41.7544" lon="9.1188">
        <ele>721.607</ele>
        <time>2015-08-29T06:45:23Z</time>
      </trkpt>
      <trkpt lat="41.75428" lon="9.11901">
        <ele>718.723</ele>
        <time>2015-08-29T06:45:30Z</time>
      </trkpt>
      <trkpt lat="41.75414" lon="9.11915">
        <ele>716.8</ele>
        <time>2015-08-29T06:45:36Z</time>
      </trkpt>
      <trkpt lat="41.75393" lon="9.1194">
        <ele>717.761</ele>
        <time>2015-08-29T06:45:45Z</time>
      </trkpt>
      <trkpt lat="41.75385" lon="9.11969">
        <ele>721.126</ele>
        <time>2015-08-29T06:45:52Z</time>
      </trkpt>
      <trkpt lat="41.75389" lon="9.11998">
        <ele>723.53</ele>
        <time>2015-08-29T06:45:59Z</time>
      </trkpt>
      <trkpt lat="41.75406" lon="9.12023">
        <ele>723.53</ele>
        <time>2015-08-29T06:46:07Z</time>
      </trkpt>
      <trkpt lat="41.7543" lon="9.12054">
        <ele>726.413</ele>
        <time>2015-08-29T06:46:17Z</time>
      </trkpt>
      <trkpt lat="41.75451" lon="9.1208">
        <ele>729.778</ele>
        <time>2015-08-29T06:46:26Z</time>
      </trkpt>
      <trkpt lat="41.75461" lon="9.12099">
        <ele>731.7</ele>
        <time>2015-08-29T06:46:32Z</time>
      </trkpt>
      <trkpt lat="41.75471" lon="9.12125">
        <ele>731.22</ele>
        <time>2015-08-29T06:46:39Z</time>
      </trkpt>
      <trkpt lat="41.75484" lon="9.12153">
        <ele>730.259</ele>
        <time>2015-08-29T06:46:47Z</time>
      </trkpt>
      <trkpt lat="41.755" lon="9.12166">
        <ele>730.739</ele>
        <time>2015-08-29T06:46:53Z</time>
      </trkpt>
      <trkpt lat="41.75529" lon="9.12183">
        <ele>735.546</ele>
        <time>2015-08-29T06:47:03Z</time>
      </trkpt>
      <trkpt lat="41.75553" lon="9.12207">
        <ele>735.065</ele>
        <time>2015-08-29T06:47:12Z</time>
      </trkpt>
      <trkpt lat="41.7557" lon="9.12215">
        <ele>733.143</ele>
        <time>2015-08-29T06:47:18Z</time>
      </trkpt>
      <trkpt lat="41.75584" lon="9.1221">
        <ele>731.22</ele>
        <time>2015-08-29T06:47:23Z</time>
      </trkpt>
      <trkpt lat="41.75607" lon="9.12191">
        <ele>728.817</ele>
        <time>2015-08-29T06:47:31Z</time>
      </trkpt>
      <trkpt lat="41.75626" lon="9.12179">
        <ele>732.181</ele>
        <time>2015-08-29T06:47:38Z</time>
      </trkpt>
      <trkpt lat="41.75642" lon="9.1218">
        <ele>733.623</ele>
        <time>2015-08-29T06:47:43Z</time>
      </trkpt>
      <trkpt lat="41.75655" lon="9.12194">
        <ele>731.22</ele>
        <time>2015-08-29T06:47:48Z</time>
      </trkpt>
      <trkpt lat="41.7566" lon="9.12213">
        <ele>730.259</ele>
        <time>2015-08-29T06:47:53Z</time>
      </trkpt>
      <trkpt lat="41.75658" lon="9.12252">
        <ele>733.143</ele>
        <time>2015-08-29T06:48:01Z</time>
      </trkpt>
      <trkpt lat="41.75659" lon="9.12298">
        <ele>734.104</ele>
        <time>2015-08-29T06:48:11Z</time>
      </trkpt>
      <trkpt lat="41.75661" lon="9.12339">
        <ele>735.065</ele>
        <time>2015-08-29T06:48:20Z</time>
      </trkpt>
      <trkpt lat="41.7566" lon="9.12376">
        <ele>736.507</ele>
        <time>2015-08-29T06:48:28Z</time>
      </trkpt>
      <trkpt lat="41.75659" lon="9.12399">
        <ele>736.027</ele>
        <time>2015-08-29T06:48:33Z</time>
      </trkpt>
      <trkpt lat="41.75661" lon="9.12431">
        <ele>735.546</ele>
        <time>2015-08-29T06:48:40Z</time>
      </trkpt>
      <trkpt lat="41.75672" lon="9.1246">
        <ele>736.027</ele>
        <time>2015-08-29T06:48:47Z</time>
      </trkpt>
      <trkpt lat="41.75691" lon="9.12492">
        <ele>739.391</ele>
        <time>2015-08-29T06:48:56Z</time>
      </trkpt>
      <trkpt lat="41.75702" lon="9.1252">
        <ele>739.872</ele>
        <time>2015-08-29T06:49:03Z</time>
      </trkpt>
      <trkpt lat="41.75709" lon="9.12551">
        <ele>739.391</ele>
        <time>2015-08-29T06:49:10Z</time>
      </trkpt>
      <trkpt lat="41.75712" lon="9.12577">
        <ele>739.872</ele>
        <time>2015-08-29T06:49:16Z</time>
      </trkpt>
      <trkpt lat="41.7572" lon="9.12608">
        <ele>740.833</ele>
        <time>2015-08-29T06:49:23Z</time>
      </trkpt>
      <trkpt lat="41.75734" lon="9.12634">
        <ele>742.756</ele>
        <time>2015-08-29T06:49:30Z</time>
      </trkpt>
      <trkpt lat="41.75755" lon="9.1266">
        <ele>743.236</ele>
        <time>2015-08-29T06:49:38Z</time>
      </trkpt>
      <trkpt lat="41.75783" lon="9.12681">
        <ele>745.159</ele>
        <time>2015-08-29T06:49:47Z</time>
      </trkpt>
      <trkpt lat="41.75814" lon="9.12705">
        <ele>746.601</ele>
        <time>2015-08-29T06:49:57Z</time>
      </trkpt>
      <trkpt lat="41.75851" lon="9.12734">
        <ele>745.64</ele>
        <time>2015-08-29T06:50:09Z</time>
      </trkpt>
      <trkpt lat="41.75889" lon="9.12764">
        <ele>745.159</ele>
        <time>2015-08-29T06:50:21Z</time>
      </trkpt>
      <trkpt lat="41.75924" lon="9.12785">
        <ele>745.159</ele>
        <time>2015-08-29T06:50:32Z</time>
      </trkpt>
      <trkpt lat="41.75947" lon="9.12799">
        <ele>745.64</ele>
        <time>2015-08-29T06:50:39Z</time>
      </trkpt>
      <trkpt lat="41.7598" lon="9.12813">
        <ele>746.12</ele>
        <time>2015-08-29T06:50:49Z</time>
      </trkpt>
      <trkpt lat="41.76007" lon="9.12821">
        <ele>746.601</ele>
        <time>2015-08-29T06:50:57Z</time>
      </trkpt>
      <trkpt lat="41.76038" lon="9.12837">
        <ele>747.562</ele>
        <time>2015-08-29T06:51:06Z</time>
      </trkpt>
      <trkpt lat="41.76066" lon="9.12866">
        <ele>750.927</ele>
        <time>2015-08-29T06:51:16Z</time>
      </trkpt>
      <trkpt lat="41.76093" lon="9.12885">
        <ele>752.369</ele>
        <time>2015-08-29T06:51:25Z</time>
      </trkpt>
      <trkpt lat="41.76117" lon="9.12888">
        <ele>752.369</ele>
        <time>2015-08-29T06:51:32Z</time>
      </trkpt>
      <trkpt lat="41.76139" lon="9.12882">
        <ele>751.888</ele>
        <time>2015-08-29T06:51:38Z</time>
      </trkpt>
      <trkpt lat="41.76154" lon="9.12878">
        <ele>749.966</ele>
        <time>2015-08-29T06:51:41Z</time>
      </trkpt>
      <trkpt lat="41.76181" lon="9.12873">
        <ele>748.043</ele>
        <time>2015-08-29T06:51:46Z</time>
      </trkpt>
      <trkpt lat="41.76212" lon="9.12897">
        <ele>742.756</ele>
        <time>2015-08-29T06:51:52Z</time>
      </trkpt>
      <trkpt lat="41.76241" lon="9.12911">
        <ele>739.872</ele>
        <time>2015-08-29T06:51:56Z</time>
      </trkpt>
      <trkpt lat="41.7626" lon="9.12894">
        <ele>738.43</ele>
        <time>2015-08-29T06:51:59Z</time>
      </trkpt>
      <trkpt lat="41.76268" lon="9.12876">
        <ele>736.507</ele>
        <time>2015-08-29T06:52:01Z</time>
      </trkpt>
      <trkpt lat="41.76288" lon="9.12828">
        <ele>733.623</ele>
        <time>2015-08-29T06:52:06Z</time>
      </trkpt>
      <trkpt lat="41.76307" lon="9.1282">
        <ele>732.181</ele>
        <time>2015-08-29T06:52:09Z</time>
      </trkpt>
      <trkpt lat="41.76316" lon="9.12836">
        <ele>731.7</ele>
        <time>2015-08-29T06:52:11Z</time>
      </trkpt>
      <trkpt lat="41.76321" lon="9.1286">
        <ele>731.7</ele>
        <time>2015-08-29T06:52:14Z</time>
      </trkpt>
      <trkpt lat="41.7631" lon="9.12895">
        <ele>731.22</ele>
        <time>2015-08-29T06:52:20Z</time>
      </trkpt>
      <trkpt lat="41.76293" lon="9.12942">
        <ele>734.104</ele>
        <time>2015-08-29T06:52:29Z</time>
      </trkpt>
      <trkpt lat="41.76278" lon="9.12974">
        <ele>735.065</ele>
        <time>2015-08-29T06:52:38Z</time>
      </trkpt>
      <trkpt lat="41.76265" lon="9.12999">
        <ele>736.027</ele>
        <time>2015-08-29T06:52:46Z</time>
      </trkpt>
      <trkpt lat="41.76253" lon="9.1302">
        <ele>740.353</ele>
        <time>2015-08-29T06:52:53Z</time>
      </trkpt>
      <trkpt lat="41.76235" lon="9.13046">
        <ele>740.353</ele>
        <time>2015-08-29T06:53:03Z</time>
      </trkpt>
      <trkpt lat="41.7622" lon="9.13051">
        <ele>737.949</ele>
        <time>2015-08-29T06:53:09Z</time>
      </trkpt>
      <trkpt lat="41.76198" lon="9.13044">
        <ele>736.027</ele>
        <time>2015-08-29T06:53:17Z</time>
      </trkpt>
      <trkpt lat="41.76178" lon="9.13041">
        <ele>738.43</ele>
        <time>2015-08-29T06:53:24Z</time>
      </trkpt>
      <trkpt lat="41.76162" lon="9.13055">
        <ele>742.756</ele>
        <time>2015-08-29T06:53:31Z</time>
      </trkpt>
      <trkpt lat="41.76147" lon="9.13076">
        <ele>747.562</ele>
        <time>2015-08-29T06:53:39Z</time>
      </trkpt>
      <trkpt lat="41.76129" lon="9.13086">
        <ele>757.656</ele>
        <time>2015-08-29T06:53:46Z</time>
      </trkpt>
      <trkpt lat="41.76107" lon="9.13091">
        <ele>756.214</ele>
        <time>2015-08-29T06:53:54Z</time>
      </trkpt>
      <trkpt lat="41.76076" lon="9.13091">
        <ele>750.447</ele>
        <time>2015-08-29T06:54:06Z</time>
      </trkpt>
      <trkpt lat="41.76063" lon="9.13098">
        <ele>750.447</ele>
        <time>2015-08-29T06:54:12Z</time>
      </trkpt>
      <trkpt lat="41.7606" lon="9.13114">
        <ele>751.888</ele>
        <time>2015-08-29T06:54:17Z</time>
      </trkpt>
      <trkpt lat="41.76069" lon="9.1313">
        <ele>752.369</ele>
        <time>2015-08-29T06:54:23Z</time>
      </trkpt>
      <trkpt lat="41.76086" lon="9.13149">
        <ele>755.734</ele>
        <time>2015-08-29T06:54:31Z</time>
      </trkpt>
      <trkpt lat="41.76104" lon="9.13164">
        <ele>759.098</ele>
        <time>2015-08-29T06:54:38Z</time>
      </trkpt>
      <trkpt lat="41.76117" lon="9.13176">
        <ele>759.098</ele>
        <time>2015-08-29T06:54:44Z</time>
      </trkpt>
      <trkpt lat="41.76127" lon="9.13192">
        <ele>761.501</ele>
        <time>2015-08-29T06:54:51Z</time>
      </trkpt>
      <trkpt lat="41.76129" lon="9.13211">
        <ele>760.059</ele>
        <time>2015-08-29T06:54:57Z</time>
      </trkpt>
      <trkpt lat="41.76129" lon="9.13237">
        <ele>756.695</ele>
        <time>2015-08-29T06:55:05Z</time>
      </trkpt>
      <trkpt lat="41.76135" lon="9.13263">
        <ele>758.617</ele>
        <time>2015-08-29T06:55:14Z</time>
      </trkpt>
      <trkpt lat="41.76147" lon="9.13282">
        <ele>764.866</ele>
        <time>2015-08-29T06:55:22Z</time>
      </trkpt>
      <trkpt lat="41.7616" lon="9.13298">
        <ele>771.595</ele>
        <time>2015-08-29T06:55:30Z</time>
      </trkpt>
      <trkpt lat="41.76172" lon="9.13312">
        <ele>774.96</ele>
        <time>2015-08-29T06:55:37Z</time>
      </trkpt>
      <trkpt lat="41.76184" lon="9.13327">
        <ele>776.883</ele>
        <time>2015-08-29T06:55:44Z</time>
      </trkpt>
      <trkpt lat="41.76202" lon="9.1334">
        <ele>773.037</ele>
        <time>2015-08-29T06:55:52Z</time>
      </trkpt>
      <trkpt lat="41.76218" lon="9.13343">
        <ele>775.921</ele>
        <time>2015-08-29T06:55:59Z</time>
      </trkpt>
      <trkpt lat="41.76235" lon="9.1335">
        <ele>775.44</ele>
        <time>2015-08-29T06:56:06Z</time>
      </trkpt>
      <trkpt lat="41.76259" lon="9.13364">
        <ele>773.999</ele>
        <time>2015-08-29T06:56:16Z</time>
      </trkpt>
      <trkpt lat="41.76277" lon="9.13377">
        <ele>771.595</ele>
        <time>2015-08-29T06:56:24Z</time>
      </trkpt>
      <trkpt lat="41.76292" lon="9.13391">
        <ele>776.402</ele>
        <time>2015-08-29T06:56:32Z</time>
      </trkpt>
      <trkpt lat="41.76304" lon="9.134">
        <ele>777.844</ele>
        <time>2015-08-29T06:56:39Z</time>
      </trkpt>
      <trkpt lat="41.76318" lon="9.13407">
        <ele>777.844</ele>
        <time>2015-08-29T06:56:45Z</time>
      </trkpt>
      <trkpt lat="41.76323" lon="9.1341">
        <ele>777.363</ele>
        <time>2015-08-29T06:56:54Z</time>
      </trkpt>
      <trkpt lat="41.7636" lon="9.13444">
        <ele>776.402</ele>
        <time>2015-08-29T06:57:05Z</time>
      </trkpt>
      <trkpt lat="41.76376" lon="9.1346">
        <ele>775.921</ele>
        <time>2015-08-29T06:57:14Z</time>
      </trkpt>
      <trkpt lat="41.76389" lon="9.13476">
        <ele>776.402</ele>
        <time>2015-08-29T06:57:21Z</time>
      </trkpt>
      <trkpt lat="41.76405" lon="9.13499">
        <ele>777.363</ele>
        <time>2015-08-29T06:57:31Z</time>
      </trkpt>
      <trkpt lat="41.76413" lon="9.13512">
        <ele>780.728</ele>
        <time>2015-08-29T06:57:36Z</time>
      </trkpt>
      <trkpt lat="41.76422" lon="9.13531">
        <ele>780.247</ele>
        <time>2015-08-29T06:57:43Z</time>
      </trkpt>
      <trkpt lat="41.7643" lon="9.13543">
        <ele>781.209</ele>
        <time>2015-08-29T06:57:51Z</time>
      </trkpt>
      <trkpt lat="41.7645" lon="9.13577">
        <ele>781.209</ele>
        <time>2015-08-29T06:58:01Z</time>
      </trkpt>
      <trkpt lat="41.76463" lon="9.13601">
        <ele>781.689</ele>
        <time>2015-08-29T06:58:10Z</time>
      </trkpt>
      <trkpt lat="41.76477" lon="9.13624">
        <ele>784.573</ele>
        <time>2015-08-29T06:58:20Z</time>
      </trkpt>
      <trkpt lat="41.76477" lon="9.13624">
        <ele>786.015</ele>
        <time>2015-08-29T06:58:27Z</time>
      </trkpt>
      <trkpt lat="41.76496" lon="9.13667">
        <ele>786.015</ele>
        <time>2015-08-29T06:58:35Z</time>
      </trkpt>
      <trkpt lat="41.76503" lon="9.1368">
        <ele>786.496</ele>
        <time>2015-08-29T06:58:42Z</time>
      </trkpt>
      <trkpt lat="41.76525" lon="9.13705">
        <ele>787.938</ele>
        <time>2015-08-29T06:58:51Z</time>
      </trkpt>
      <trkpt lat="41.76538" lon="9.13728">
        <ele>789.38</ele>
        <time>2015-08-29T06:59:00Z</time>
      </trkpt>
      <trkpt lat="41.76547" lon="9.13745">
        <ele>789.86</ele>
        <time>2015-08-29T06:59:11Z</time>
      </trkpt>
      <trkpt lat="41.76547" lon="9.13745">
        <ele>790.341</ele>
        <time>2015-08-29T06:59:16Z</time>
      </trkpt>
      <trkpt lat="41.76559" lon="9.13771">
        <ele>790.822</ele>
        <time>2015-08-29T06:59:22Z</time>
      </trkpt>
      <trkpt lat="41.76559" lon="9.13771">
        <ele>791.783</ele>
        <time>2015-08-29T06:59:28Z</time>
      </trkpt>
      <trkpt lat="41.76572" lon="9.13804">
        <ele>793.706</ele>
        <time>2015-08-29T06:59:33Z</time>
      </trkpt>
      <trkpt lat="41.76575" lon="9.1381">
        <ele>793.225</ele>
        <time>2015-08-29T06:59:39Z</time>
      </trkpt>
      <trkpt lat="41.76594" lon="9.13852">
        <ele>795.147</ele>
        <time>2015-08-29T06:59:48Z</time>
      </trkpt>
      <trkpt lat="41.76597" lon="9.13877">
        <ele>793.706</ele>
        <time>2015-08-29T06:59:57Z</time>
      </trkpt>
      <trkpt lat="41.76595" lon="9.13894">
        <ele>793.225</ele>
        <time>2015-08-29T07:00:04Z</time>
      </trkpt>
      <trkpt lat="41.76595" lon="9.13895">
        <ele>793.225</ele>
        <time>2015-08-29T07:00:05Z</time>
      </trkpt>
      <trkpt lat="41.76594" lon="9.13904">
        <ele>791.302</ele>
        <time>2015-08-29T07:00:11Z</time>
      </trkpt>
      <trkpt lat="41.76594" lon="9.13904">
        <ele>806.683</ele>
        <time>2015-08-29T07:02:55Z</time>
      </trkpt>
      <trkpt lat="41.76595" lon="9.13899">
        <ele>805.722</ele>
        <time>2015-08-29T07:03:03Z</time>
      </trkpt>
      <trkpt lat="41.76583" lon="9.13918">
        <ele>803.8</ele>
        <time>2015-08-29T07:03:07Z</time>
      </trkpt>
      <trkpt lat="41.76594" lon="9.13904">
        <ele>802.357</ele>
        <time>2015-08-29T07:03:09Z</time>
      </trkpt>
      <trkpt lat="41.76595" lon="9.13921">
        <ele>799.954</ele>
        <time>2015-08-29T07:03:15Z</time>
      </trkpt>
      <trkpt lat="41.76597" lon="9.13954">
        <ele>798.512</ele>
        <time>2015-08-29T07:03:24Z</time>
      </trkpt>
      <trkpt lat="41.76602" lon="9.13978">
        <ele>798.993</ele>
        <time>2015-08-29T07:03:31Z</time>
      </trkpt>
      <trkpt lat="41.76607" lon="9.13995">
        <ele>799.474</ele>
        <time>2015-08-29T07:03:40Z</time>
      </trkpt>
      <trkpt lat="41.76607" lon="9.13995">
        <ele>798.512</ele>
        <time>2015-08-29T07:03:48Z</time>
      </trkpt>
      <trkpt lat="41.76629" lon="9.14038">
        <ele>799.954</ele>
        <time>2015-08-29T07:03:56Z</time>
      </trkpt>
      <trkpt lat="41.76638" lon="9.1406">
        <ele>800.916</ele>
        <time>2015-08-29T07:04:04Z</time>
      </trkpt>
      <trkpt lat="41.76641" lon="9.14085">
        <ele>800.916</ele>
        <time>2015-08-29T07:04:12Z</time>
      </trkpt>
      <trkpt lat="41.7664" lon="9.14112">
        <ele>799.474</ele>
        <time>2015-08-29T07:04:20Z</time>
      </trkpt>
      <trkpt lat="41.76633" lon="9.14139">
        <ele>798.993</ele>
        <time>2015-08-29T07:04:28Z</time>
      </trkpt>
      <trkpt lat="41.76625" lon="9.14167">
        <ele>801.877</ele>
        <time>2015-08-29T07:04:36Z</time>
      </trkpt>
      <trkpt lat="41.76624" lon="9.1417">
        <ele>806.683</ele>
        <time>2015-08-29T07:04:45Z</time>
      </trkpt>
      <trkpt lat="41.76608" lon="9.14227">
        <ele>806.203</ele>
        <time>2015-08-29T07:04:52Z</time>
      </trkpt>
      <trkpt lat="41.76597" lon="9.14261">
        <ele>806.203</ele>
        <time>2015-08-29T07:05:00Z</time>
      </trkpt>
      <trkpt lat="41.76588" lon="9.14294">
        <ele>807.164</ele>
        <time>2015-08-29T07:05:08Z</time>
      </trkpt>
      <trkpt lat="41.76578" lon="9.14328">
        <ele>808.606</ele>
        <time>2015-08-29T07:05:16Z</time>
      </trkpt>
      <trkpt lat="41.7657" lon="9.14359">
        <ele>809.567</ele>
        <time>2015-08-29T07:05:23Z</time>
      </trkpt>
      <trkpt lat="41.7656" lon="9.1439">
        <ele>810.529</ele>
        <time>2015-08-29T07:05:30Z</time>
      </trkpt>
      <trkpt lat="41.76548" lon="9.14427">
        <ele>815.816</ele>
        <time>2015-08-29T07:05:37Z</time>
      </trkpt>
      <trkpt lat="41.76537" lon="9.14461">
        <ele>814.374</ele>
        <time>2015-08-29T07:05:43Z</time>
      </trkpt>
      <trkpt lat="41.76534" lon="9.1451">
        <ele>811.971</ele>
        <time>2015-08-29T07:05:51Z</time>
      </trkpt>
      <trkpt lat="41.76535" lon="9.14563">
        <ele>811.49</ele>
        <time>2015-08-29T07:06:00Z</time>
      </trkpt>
      <trkpt lat="41.76535" lon="9.14609">
        <ele>812.451</ele>
        <time>2015-08-29T07:06:08Z</time>
      </trkpt>
      <trkpt lat="41.76535" lon="9.1464">
        <ele>812.932</ele>
        <time>2015-08-29T07:06:14Z</time>
      </trkpt>
      <trkpt lat="41.76534" lon="9.14662">
        <ele>813.413</ele>
        <time>2015-08-29T07:06:18Z</time>
      </trkpt>
      <trkpt lat="41.76518" lon="9.14701">
        <ele>811.49</ele>
        <time>2015-08-29T07:06:24Z</time>
      </trkpt>
      <trkpt lat="41.76496" lon="9.1474">
        <ele>809.087</ele>
        <time>2015-08-29T07:06:30Z</time>
      </trkpt>
      <trkpt lat="41.76479" lon="9.1478">
        <ele>805.241</ele>
        <time>2015-08-29T07:06:36Z</time>
      </trkpt>
      <trkpt lat="41.76477" lon="9.14787">
        <ele>804.761</ele>
        <time>2015-08-29T07:06:37Z</time>
      </trkpt>
      <trkpt lat="41.76464" lon="9.14847">
        <ele>800.435</ele>
        <time>2015-08-29T07:06:46Z</time>
      </trkpt>
      <trkpt lat="41.7645" lon="9.14896">
        <ele>798.032</ele>
        <time>2015-08-29T07:06:53Z</time>
      </trkpt>
      <trkpt lat="41.76441" lon="9.14935">
        <ele>796.109</ele>
        <time>2015-08-29T07:07:00Z</time>
      </trkpt>
      <trkpt lat="41.76441" lon="9.14947">
        <ele>795.147</ele>
        <time>2015-08-29T07:07:04Z</time>
      </trkpt>
      <trkpt lat="41.76441" lon="9.14947">
        <ele>794.667</ele>
        <time>2015-08-29T07:07:05Z</time>
      </trkpt>
      <trkpt lat="41.76442" lon="9.14955">
        <ele>795.628</ele>
        <time>2015-08-29T07:07:48Z</time>
      </trkpt>
      <trkpt lat="41.76431" lon="9.14963">
        <ele>797.551</ele>
        <time>2015-08-29T07:07:53Z</time>
      </trkpt>
      <trkpt lat="41.76422" lon="9.1497">
        <ele>796.109</ele>
        <time>2015-08-29T07:07:58Z</time>
      </trkpt>
      <trkpt lat="41.76418" lon="9.14974">
        <ele>795.628</ele>
        <time>2015-08-29T07:08:00Z</time>
      </trkpt>
      <trkpt lat="41.7641" lon="9.14989">
        <ele>791.302</ele>
        <time>2015-08-29T07:08:07Z</time>
      </trkpt>
      <trkpt lat="41.76405" lon="9.14997">
        <ele>788.899</ele>
        <time>2015-08-29T07:08:12Z</time>
      </trkpt>
      <trkpt lat="41.76401" lon="9.15001">
        <ele>787.457</ele>
        <time>2015-08-29T07:08:15Z</time>
      </trkpt>
      <trkpt lat="41.764" lon="9.15014">
        <ele>785.054</ele>
        <time>2015-08-29T07:08:19Z</time>
      </trkpt>
      <trkpt lat="41.76411" lon="9.15048">
        <ele>782.17</ele>
        <time>2015-08-29T07:08:26Z</time>
      </trkpt>
      <trkpt lat="41.76419" lon="9.1507">
        <ele>782.651</ele>
        <time>2015-08-29T07:08:32Z</time>
      </trkpt>
      <trkpt lat="41.76424" lon="9.15088">
        <ele>782.651</ele>
        <time>2015-08-29T07:08:37Z</time>
      </trkpt>
      <trkpt lat="41.76425" lon="9.15102">
        <ele>786.496</ele>
        <time>2015-08-29T07:08:42Z</time>
      </trkpt>
      <trkpt lat="41.76422" lon="9.15123">
        <ele>792.264</ele>
        <time>2015-08-29T07:08:47Z</time>
      </trkpt>
      <trkpt lat="41.76421" lon="9.15132">
        <ele>794.186</ele>
        <time>2015-08-29T07:08:51Z</time>
      </trkpt>
      <trkpt lat="41.76421" lon="9.15132">
        <ele>794.667</ele>
        <time>2015-08-29T07:08:52Z</time>
      </trkpt>
      <trkpt lat="41.76421" lon="9.15132">
        <ele>795.628</ele>
        <time>2015-08-29T07:09:00Z</time>
      </trkpt>
      <trkpt lat="41.76419" lon="9.15147">
        <ele>796.59</ele>
        <time>2015-08-29T07:09:06Z</time>
      </trkpt>
      <trkpt lat="41.76417" lon="9.15163">
        <ele>790.822</ele>
        <time>2015-08-29T07:09:19Z</time>
      </trkpt>
      <trkpt lat="41.7642" lon="9.15189">
        <ele>790.341</ele>
        <time>2015-08-29T07:09:24Z</time>
      </trkpt>
      <trkpt lat="41.76422" lon="9.15212">
        <ele>780.247</ele>
        <time>2015-08-29T07:09:30Z</time>
      </trkpt>
      <trkpt lat="41.76421" lon="9.15233">
        <ele>773.518</ele>
        <time>2015-08-29T07:09:36Z</time>
      </trkpt>
      <trkpt lat="41.76418" lon="9.15254">
        <ele>780.247</ele>
        <time>2015-08-29T07:09:42Z</time>
      </trkpt>
      <trkpt lat="41.76416" lon="9.15266">
        <ele>784.093</ele>
        <time>2015-08-29T07:09:46Z</time>
      </trkpt>
      <trkpt lat="41.76416" lon="9.15273">
        <ele>784.093</ele>
        <time>2015-08-29T07:09:49Z</time>
      </trkpt>
      <trkpt lat="41.76415" lon="9.15294">
        <ele>778.324</ele>
        <time>2015-08-29T07:09:55Z</time>
      </trkpt>
      <trkpt lat="41.76413" lon="9.15309">
        <ele>771.595</ele>
        <time>2015-08-29T07:10:00Z</time>
      </trkpt>
      <trkpt lat="41.76412" lon="9.15322">
        <ele>771.595</ele>
        <time>2015-08-29T07:10:05Z</time>
      </trkpt>
      <trkpt lat="41.7641" lon="9.15341">
        <ele>768.711</ele>
        <time>2015-08-29T07:10:11Z</time>
      </trkpt>
      <trkpt lat="41.76409" lon="9.15353">
        <ele>769.192</ele>
        <time>2015-08-29T07:10:14Z</time>
      </trkpt>
      <trkpt lat="41.76408" lon="9.1537">
        <ele>762.463</ele>
        <time>2015-08-29T07:10:20Z</time>
      </trkpt>
      <trkpt lat="41.76399" lon="9.15382">
        <ele>763.424</ele>
        <time>2015-08-29T07:10:24Z</time>
      </trkpt>
      <trkpt lat="41.76395" lon="9.15388">
        <ele>769.192</ele>
        <time>2015-08-29T07:10:28Z</time>
      </trkpt>
      <trkpt lat="41.76395" lon="9.15388">
        <ele>777.363</ele>
        <time>2015-08-29T07:10:44Z</time>
      </trkpt>
      <trkpt lat="41.76392" lon="9.15394">
        <ele>776.402</ele>
        <time>2015-08-29T07:10:48Z</time>
      </trkpt>
      <trkpt lat="41.76392" lon="9.15394">
        <ele>775.44</ele>
        <time>2015-08-29T07:10:52Z</time>
      </trkpt>
      <trkpt lat="41.76392" lon="9.15394">
        <ele>773.518</ele>
        <time>2015-08-29T07:10:57Z</time>
      </trkpt>
      <trkpt lat="41.76373" lon="9.15416">
        <ele>771.595</ele>
        <time>2015-08-29T07:10:59Z</time>
      </trkpt>
      <trkpt lat="41.76343" lon="9.15408">
        <ele>768.231</ele>
        <time>2015-08-29T07:11:08Z</time>
      </trkpt>
      <trkpt lat="41.76338" lon="9.15407">
        <ele>767.27</ele>
        <time>2015-08-29T07:11:10Z</time>
      </trkpt>
      <trkpt lat="41.76319" lon="9.1541">
        <ele>763.905</ele>
        <time>2015-08-29T07:11:16Z</time>
      </trkpt>
      <trkpt lat="41.76296" lon="9.15429">
        <ele>758.137</ele>
        <time>2015-08-29T07:11:21Z</time>
      </trkpt>
      <trkpt lat="41.76282" lon="9.15442">
        <ele>758.137</ele>
        <time>2015-08-29T07:11:26Z</time>
      </trkpt>
      <trkpt lat="41.76277" lon="9.15456">
        <ele>756.214</ele>
        <time>2015-08-29T07:11:31Z</time>
      </trkpt>
      <trkpt lat="41.76291" lon="9.15499">
        <ele>751.888</ele>
        <time>2015-08-29T07:11:39Z</time>
      </trkpt>
      <trkpt lat="41.76299" lon="9.15516">
        <ele>755.253</ele>
        <time>2015-08-29T07:11:44Z</time>
      </trkpt>
      <trkpt lat="41.76309" lon="9.1553">
        <ele>756.695</ele>
        <time>2015-08-29T07:11:49Z</time>
      </trkpt>
      <trkpt lat="41.76313" lon="9.15538">
        <ele>755.253</ele>
        <time>2015-08-29T07:11:53Z</time>
      </trkpt>
      <trkpt lat="41.76317" lon="9.15548">
        <ele>754.292</ele>
        <time>2015-08-29T07:11:59Z</time>
      </trkpt>
      <trkpt lat="41.76317" lon="9.15548">
        <ele>750.447</ele>
        <time>2015-08-29T07:12:01Z</time>
      </trkpt>
      <trkpt lat="41.7632" lon="9.15557">
        <ele>748.043</ele>
        <time>2015-08-29T07:12:07Z</time>
      </trkpt>
      <trkpt lat="41.7632" lon="9.15557">
        <ele>746.601</ele>
        <time>2015-08-29T07:12:09Z</time>
      </trkpt>
      <trkpt lat="41.76323" lon="9.15567">
        <ele>753.33</ele>
        <time>2015-08-29T07:12:16Z</time>
      </trkpt>
      <trkpt lat="41.76325" lon="9.15576">
        <ele>757.656</ele>
        <time>2015-08-29T07:12:34Z</time>
      </trkpt>
      <trkpt lat="41.76327" lon="9.15581">
        <ele>762.463</ele>
        <time>2015-08-29T07:12:38Z</time>
      </trkpt>
      <trkpt lat="41.7633" lon="9.15592">
        <ele>762.943</ele>
        <time>2015-08-29T07:12:45Z</time>
      </trkpt>
      <trkpt lat="41.76332" lon="9.15605">
        <ele>753.811</ele>
        <time>2015-08-29T07:12:50Z</time>
      </trkpt>
      <trkpt lat="41.76334" lon="9.15618">
        <ele>748.524</ele>
        <time>2015-08-29T07:12:55Z</time>
      </trkpt>
      <trkpt lat="41.76336" lon="9.15628">
        <ele>745.159</ele>
        <time>2015-08-29T07:13:00Z</time>
      </trkpt>
      <trkpt lat="41.76336" lon="9.15628">
        <ele>745.64</ele>
        <time>2015-08-29T07:13:01Z</time>
      </trkpt>
      <trkpt lat="41.76339" lon="9.15654">
        <ele>743.236</ele>
        <time>2015-08-29T07:13:22Z</time>
      </trkpt>
      <trkpt lat="41.76339" lon="9.15657">
        <ele>739.391</ele>
        <time>2015-08-29T07:13:27Z</time>
      </trkpt>
      <trkpt lat="41.76339" lon="9.15657">
        <ele>736.988</ele>
        <time>2015-08-29T07:13:40Z</time>
      </trkpt>
      <trkpt lat="41.76339" lon="9.15657">
        <ele>737.469</ele>
        <time>2015-08-29T07:13:41Z</time>
      </trkpt>
      <trkpt lat="41.76339" lon="9.15657">
        <ele>741.794</ele>
        <time>2015-08-29T07:13:57Z</time>
      </trkpt>
      <trkpt lat="41.76335" lon="9.15705">
        <ele>736.507</ele>
        <time>2015-08-29T07:14:03Z</time>
      </trkpt>
      <trkpt lat="41.76335" lon="9.15712">
        <ele>736.027</ele>
        <time>2015-08-29T07:14:06Z</time>
      </trkpt>
      <trkpt lat="41.76336" lon="9.15732">
        <ele>736.507</ele>
        <time>2015-08-29T07:14:30Z</time>
      </trkpt>
      <trkpt lat="41.76338" lon="9.15744">
        <ele>728.817</ele>
        <time>2015-08-29T07:14:43Z</time>
      </trkpt>
      <trkpt lat="41.7634" lon="9.15754">
        <ele>725.933</ele>
        <time>2015-08-29T07:14:48Z</time>
      </trkpt>
      <trkpt lat="41.76343" lon="9.15766">
        <ele>723.049</ele>
        <time>2015-08-29T07:14:53Z</time>
      </trkpt>
      <trkpt lat="41.76344" lon="9.15781">
        <ele>716.32</ele>
        <time>2015-08-29T07:14:59Z</time>
      </trkpt>
      <trkpt lat="41.76344" lon="9.15795">
        <ele>720.646</ele>
        <time>2015-08-29T07:15:03Z</time>
      </trkpt>
      <trkpt lat="41.7634" lon="9.15816">
        <ele>713.916</ele>
        <time>2015-08-29T07:15:08Z</time>
      </trkpt>
      <trkpt lat="41.76333" lon="9.15833">
        <ele>711.032</ele>
        <time>2015-08-29T07:15:13Z</time>
      </trkpt>
      <trkpt lat="41.76323" lon="9.15854">
        <ele>712.474</ele>
        <time>2015-08-29T07:15:18Z</time>
      </trkpt>
      <trkpt lat="41.76305" lon="9.15869">
        <ele>705.745</ele>
        <time>2015-08-29T07:15:23Z</time>
      </trkpt>
      <trkpt lat="41.76287" lon="9.15875">
        <ele>702.38</ele>
        <time>2015-08-29T07:15:28Z</time>
      </trkpt>
      <trkpt lat="41.76285" lon="9.15875">
        <ele>701.419</ele>
        <time>2015-08-29T07:15:29Z</time>
      </trkpt>
      <trkpt lat="41.7628" lon="9.15879">
        <ele>699.496</ele>
        <time>2015-08-29T07:15:35Z</time>
      </trkpt>
      <trkpt lat="41.7628" lon="9.15879">
        <ele>709.11</ele>
        <time>2015-08-29T07:15:49Z</time>
      </trkpt>
      <trkpt lat="41.76264" lon="9.15894">
        <ele>705.264</ele>
        <time>2015-08-29T07:16:02Z</time>
      </trkpt>
      <trkpt lat="41.76263" lon="9.15896">
        <ele>702.861</ele>
        <time>2015-08-29T07:16:05Z</time>
      </trkpt>
      <trkpt lat="41.76262" lon="9.15899">
        <ele>699.977</ele>
        <time>2015-08-29T07:16:09Z</time>
      </trkpt>
      <trkpt lat="41.76259" lon="9.15904">
        <ele>696.132</ele>
        <time>2015-08-29T07:16:17Z</time>
      </trkpt>
      <trkpt lat="41.76259" lon="9.15905">
        <ele>692.767</ele>
        <time>2015-08-29T07:16:21Z</time>
      </trkpt>
      <trkpt lat="41.76259" lon="9.15905">
        <ele>692.287</ele>
        <time>2015-08-29T07:16:24Z</time>
      </trkpt>
      <trkpt lat="41.76259" lon="9.15905">
        <ele>690.844</ele>
        <time>2015-08-29T07:16:30Z</time>
      </trkpt>
      <trkpt lat="41.76259" lon="9.15905">
        <ele>689.403</ele>
        <time>2015-08-29T07:16:36Z</time>
      </trkpt>
      <trkpt lat="41.76259" lon="9.15905">
        <ele>688.922</ele>
        <time>2015-08-29T07:16:37Z</time>
      </trkpt>
      <trkpt lat="41.76253" lon="9.15917">
        <ele>685.557</ele>
        <time>2015-08-29T07:16:44Z</time>
      </trkpt>
      <trkpt lat="41.76253" lon="9.15917">
        <ele>686.519</ele>
        <time>2015-08-29T07:16:48Z</time>
      </trkpt>
      <trkpt lat="41.76251" lon="9.15938">
        <ele>689.883</ele>
        <time>2015-08-29T07:17:05Z</time>
      </trkpt>
      <trkpt lat="41.76251" lon="9.15942">
        <ele>685.077</ele>
        <time>2015-08-29T07:17:10Z</time>
      </trkpt>
      <trkpt lat="41.76251" lon="9.15955">
        <ele>689.883</ele>
        <time>2015-08-29T07:17:15Z</time>
      </trkpt>
      <trkpt lat="41.76251" lon="9.15963">
        <ele>692.767</ele>
        <time>2015-08-29T07:17:20Z</time>
      </trkpt>
      <trkpt lat="41.7626" lon="9.15985">
        <ele>689.403</ele>
        <time>2015-08-29T07:17:38Z</time>
      </trkpt>
      <trkpt lat="41.76261" lon="9.15997">
        <ele>686.999</ele>
        <time>2015-08-29T07:17:42Z</time>
      </trkpt>
      <trkpt lat="41.76261" lon="9.16001">
        <ele>687.48</ele>
        <time>2015-08-29T07:17:44Z</time>
      </trkpt>
      <trkpt lat="41.76262" lon="9.16011">
        <ele>690.844</ele>
        <time>2015-08-29T07:17:49Z</time>
      </trkpt>
      <trkpt lat="41.76266" lon="9.16022">
        <ele>691.325</ele>
        <time>2015-08-29T07:17:52Z</time>
      </trkpt>
      <trkpt lat="41.76265" lon="9.16045">
        <ele>684.115</ele>
        <time>2015-08-29T07:17:59Z</time>
      </trkpt>
      <trkpt lat="41.76261" lon="9.16057">
        <ele>678.347</ele>
        <time>2015-08-29T07:18:05Z</time>
      </trkpt>
      <trkpt lat="41.76258" lon="9.16065">
        <ele>674.502</ele>
        <time>2015-08-29T07:18:10Z</time>
      </trkpt>
      <trkpt lat="41.76257" lon="9.16083">
        <ele>675.463</ele>
        <time>2015-08-29T07:18:14Z</time>
      </trkpt>
      <trkpt lat="41.7626" lon="9.16103">
        <ele>674.502</ele>
        <time>2015-08-29T07:18:19Z</time>
      </trkpt>
      <trkpt lat="41.7626" lon="9.16105">
        <ele>674.502</ele>
        <time>2015-08-29T07:18:20Z</time>
      </trkpt>
      <trkpt lat="41.76261" lon="9.16111">
        <ele>675.463</ele>
        <time>2015-08-29T07:18:25Z</time>
      </trkpt>
      <trkpt lat="41.76265" lon="9.16125">
        <ele>673.541</ele>
        <time>2015-08-29T07:18:28Z</time>
      </trkpt>
      <trkpt lat="41.76267" lon="9.16133">
        <ele>671.138</ele>
        <time>2015-08-29T07:18:30Z</time>
      </trkpt>
      <trkpt lat="41.76272" lon="9.16152">
        <ele>664.889</ele>
        <time>2015-08-29T07:18:35Z</time>
      </trkpt>
      <trkpt lat="41.76275" lon="9.16159">
        <ele>663.927</ele>
        <time>2015-08-29T07:18:39Z</time>
      </trkpt>
      <trkpt lat="41.76279" lon="9.16168">
        <ele>662.966</ele>
        <time>2015-08-29T07:18:44Z</time>
      </trkpt>
      <trkpt lat="41.76284" lon="9.16182">
        <ele>667.292</ele>
        <time>2015-08-29T07:18:49Z</time>
      </trkpt>
      <trkpt lat="41.76288" lon="9.16197">
        <ele>671.618</ele>
        <time>2015-08-29T07:18:54Z</time>
      </trkpt>
      <trkpt lat="41.76288" lon="9.16197">
        <ele>667.773</ele>
        <time>2015-08-29T07:19:01Z</time>
      </trkpt>
      <trkpt lat="41.76288" lon="9.16197">
        <ele>666.331</ele>
        <time>2015-08-29T07:19:07Z</time>
      </trkpt>
      <trkpt lat="41.76289" lon="9.16228">
        <ele>660.563</ele>
        <time>2015-08-29T07:19:12Z</time>
      </trkpt>
      <trkpt lat="41.76291" lon="9.16244">
        <ele>653.834</ele>
        <time>2015-08-29T07:19:17Z</time>
      </trkpt>
      <trkpt lat="41.76291" lon="9.16247">
        <ele>651.43</ele>
        <time>2015-08-29T07:19:20Z</time>
      </trkpt>
      <trkpt lat="41.76291" lon="9.16247">
        <ele>651.43</ele>
        <time>2015-08-29T07:19:30Z</time>
      </trkpt>
      <trkpt lat="41.76295" lon="9.16264">
        <ele>651.911</ele>
        <time>2015-08-29T07:19:36Z</time>
      </trkpt>
      <trkpt lat="41.76299" lon="9.16277">
        <ele>653.353</ele>
        <time>2015-08-29T07:19:42Z</time>
      </trkpt>
      <trkpt lat="41.76299" lon="9.16277">
        <ele>653.834</ele>
        <time>2015-08-29T07:19:45Z</time>
      </trkpt>
      <trkpt lat="41.76308" lon="9.16294">
        <ele>650.469</ele>
        <time>2015-08-29T07:20:01Z</time>
      </trkpt>
      <trkpt lat="41.76311" lon="9.16297">
        <ele>650.95</ele>
        <time>2015-08-29T07:20:04Z</time>
      </trkpt>
      <trkpt lat="41.76311" lon="9.16297">
        <ele>649.027</ele>
        <time>2015-08-29T07:20:10Z</time>
      </trkpt>
      <trkpt lat="41.76322" lon="9.16307">
        <ele>653.353</ele>
        <time>2015-08-29T07:20:32Z</time>
      </trkpt>
      <trkpt lat="41.7633" lon="9.16318">
        <ele>652.392</ele>
        <time>2015-08-29T07:20:37Z</time>
      </trkpt>
      <trkpt lat="41.76333" lon="9.16324">
        <ele>651.43</ele>
        <time>2015-08-29T07:20:41Z</time>
      </trkpt>
      <trkpt lat="41.76338" lon="9.16339">
        <ele>650.95</ele>
        <time>2015-08-29T07:20:47Z</time>
      </trkpt>
      <trkpt lat="41.7634" lon="9.16348">
        <ele>649.989</ele>
        <time>2015-08-29T07:20:50Z</time>
      </trkpt>
      <trkpt lat="41.76343" lon="9.16363">
        <ele>649.989</ele>
        <time>2015-08-29T07:20:55Z</time>
      </trkpt>
      <trkpt lat="41.76348" lon="9.16383">
        <ele>648.546</ele>
        <time>2015-08-29T07:21:02Z</time>
      </trkpt>
      <trkpt lat="41.76352" lon="9.16395">
        <ele>647.104</ele>
        <time>2015-08-29T07:21:07Z</time>
      </trkpt>
      <trkpt lat="41.76357" lon="9.16403">
        <ele>642.298</ele>
        <time>2015-08-29T07:21:13Z</time>
      </trkpt>
      <trkpt lat="41.76357" lon="9.16403">
        <ele>641.817</ele>
        <time>2015-08-29T07:21:14Z</time>
      </trkpt>
      <trkpt lat="41.76361" lon="9.16408">
        <ele>639.414</ele>
        <time>2015-08-29T07:21:22Z</time>
      </trkpt>
      <trkpt lat="41.76361" lon="9.16408">
        <ele>639.414</ele>
        <time>2015-08-29T07:21:23Z</time>
      </trkpt>
      <trkpt lat="41.76364" lon="9.16416">
        <ele>647.585</ele>
        <time>2015-08-29T07:21:37Z</time>
      </trkpt>
      <trkpt lat="41.76364" lon="9.16416">
        <ele>650.469</ele>
        <time>2015-08-29T07:21:41Z</time>
      </trkpt>
      <trkpt lat="41.76364" lon="9.16416">
        <ele>650.95</ele>
        <time>2015-08-29T07:21:42Z</time>
      </trkpt>
      <trkpt lat="41.76366" lon="9.16433">
        <ele>652.873</ele>
        <time>2015-08-29T07:22:34Z</time>
      </trkpt>
      <trkpt lat="41.76367" lon="9.16445">
        <ele>649.508</ele>
        <time>2015-08-29T07:22:39Z</time>
      </trkpt>
      <trkpt lat="41.76367" lon="9.16454">
        <ele>645.663</ele>
        <time>2015-08-29T07:22:45Z</time>
      </trkpt>
      <trkpt lat="41.76368" lon="9.1646">
        <ele>645.182</ele>
        <time>2015-08-29T07:22:47Z</time>
      </trkpt>
      <trkpt lat="41.7637" lon="9.16472">
        <ele>643.259</ele>
        <time>2015-08-29T07:22:49Z</time>
      </trkpt>
      <trkpt lat="41.76379" lon="9.16494">
        <ele>640.375</ele>
        <time>2015-08-29T07:22:54Z</time>
      </trkpt>
      <trkpt lat="41.76382" lon="9.16504">
        <ele>638.453</ele>
        <time>2015-08-29T07:22:57Z</time>
      </trkpt>
      <trkpt lat="41.76355" lon="9.16615">
        <ele>630.762</ele>
        <time>2015-08-29T07:23:02Z</time>
      </trkpt>
      <trkpt lat="41.76381" lon="9.16501">
        <ele>629.801</ele>
        <time>2015-08-29T07:23:03Z</time>
      </trkpt>
      <trkpt lat="41.76371" lon="9.16478">
        <ele>626.917</ele>
        <time>2015-08-29T07:23:08Z</time>
      </trkpt>
      <trkpt lat="41.76372" lon="9.16479">
        <ele>627.878</ele>
        <time>2015-08-29T07:23:12Z</time>
      </trkpt>
      <trkpt lat="41.76355" lon="9.16615">
        <ele>630.281</ele>
        <time>2015-08-29T07:23:16Z</time>
      </trkpt>
      <trkpt lat="41.76355" lon="9.16615">
        <ele>628.359</ele>
        <time>2015-08-29T07:23:20Z</time>
      </trkpt>
      <trkpt lat="41.76355" lon="9.16615">
        <ele>626.917</ele>
        <time>2015-08-29T07:23:21Z</time>
      </trkpt>
      <trkpt lat="41.76355" lon="9.16615">
        <ele>631.243</ele>
        <time>2015-08-29T07:23:42Z</time>
      </trkpt>
      <trkpt lat="41.76355" lon="9.16615">
        <ele>632.204</ele>
        <time>2015-08-29T07:23:45Z</time>
      </trkpt>
      <trkpt lat="41.76355" lon="9.16615">
        <ele>638.934</ele>
        <time>2015-08-29T07:24:16Z</time>
      </trkpt>
      <trkpt lat="41.76355" lon="9.16615">
        <ele>641.817</ele>
        <time>2015-08-29T07:24:31Z</time>
      </trkpt>
      <trkpt lat="41.76355" lon="9.16615">
        <ele>640.856</ele>
        <time>2015-08-29T07:24:34Z</time>
      </trkpt>
      <trkpt lat="41.76355" lon="9.16615">
        <ele>637.972</ele>
        <time>2015-08-29T07:24:39Z</time>
      </trkpt>
      <trkpt lat="41.76355" lon="9.16615">
        <ele>637.491</ele>
        <time>2015-08-29T07:24:41Z</time>
      </trkpt>
      <trkpt lat="41.76355" lon="9.16615">
        <ele>636.05</ele>
        <time>2015-08-29T07:25:18Z</time>
      </trkpt>
      <trkpt lat="41.76355" lon="9.16615">
        <ele>637.972</ele>
        <time>2015-08-29T07:25:26Z</time>
      </trkpt>
      <trkpt lat="41.76355" lon="9.16615">
        <ele>640.856</ele>
        <time>2015-08-29T07:25:34Z</time>
      </trkpt>
      <trkpt lat="41.76355" lon="9.16615">
        <ele>638.934</ele>
        <time>2015-08-29T07:25:40Z</time>
      </trkpt>
      <trkpt lat="41.76355" lon="9.16615">
        <ele>634.127</ele>
        <time>2015-08-29T07:25:50Z</time>
      </trkpt>
      <trkpt lat="41.76355" lon="9.16615">
        <ele>630.281</ele>
        <time>2015-08-29T07:26:00Z</time>
      </trkpt>
      <trkpt lat="41.76355" lon="9.16615">
        <ele>630.281</ele>
        <time>2015-08-29T07:26:07Z</time>
      </trkpt>
      <trkpt lat="41.76355" lon="9.16615">
        <ele>629.801</ele>
        <time>2015-08-29T07:26:08Z</time>
      </trkpt>
      <trkpt lat="41.76355" lon="9.16615">
        <ele>631.243</ele>
        <time>2015-08-29T07:26:11Z</time>
      </trkpt>
      <trkpt lat="41.76358" lon="9.16614">
        <ele>631.243</ele>
        <time>2015-08-29T07:26:17Z</time>
      </trkpt>
      <trkpt lat="41.76355" lon="9.16615">
        <ele>632.204</ele>
        <time>2015-08-29T07:26:21Z</time>
      </trkpt>
      <trkpt lat="41.76355" lon="9.16615">
        <ele>634.607</ele>
        <time>2015-08-29T07:26:24Z</time>
      </trkpt>
      <trkpt lat="41.76355" lon="9.16615">
        <ele>634.127</ele>
        <time>2015-08-29T07:26:33Z</time>
      </trkpt>
      <trkpt lat="41.76355" lon="9.16615">
        <ele>632.685</ele>
        <time>2015-08-29T07:26:38Z</time>
      </trkpt>
      <trkpt lat="41.76355" lon="9.16615">
        <ele>633.646</ele>
        <time>2015-08-29T07:26:45Z</time>
      </trkpt>
      <trkpt lat="41.76355" lon="9.16615">
        <ele>634.127</ele>
        <time>2015-08-29T07:26:46Z</time>
      </trkpt>
      <trkpt lat="41.76355" lon="9.16615">
        <ele>636.53</ele>
        <time>2015-08-29T07:26:56Z</time>
      </trkpt>
      <trkpt lat="41.76355" lon="9.16615">
        <ele>636.53</ele>
        <time>2015-08-29T07:26:57Z</time>
      </trkpt>
      <trkpt lat="41.7635" lon="9.16624">
        <ele>636.05</ele>
        <time>2015-08-29T07:27:02Z</time>
      </trkpt>
      <trkpt lat="41.76347" lon="9.16627">
        <ele>637.491</ele>
        <time>2015-08-29T07:27:07Z</time>
      </trkpt>
      <trkpt lat="41.76347" lon="9.16627">
        <ele>632.685</ele>
        <time>2015-08-29T07:27:18Z</time>
      </trkpt>
      <trkpt lat="41.76347" lon="9.16627">
        <ele>638.453</ele>
        <time>2015-08-29T07:27:22Z</time>
      </trkpt>
      <trkpt lat="41.76327" lon="9.16631">
        <ele>639.895</ele>
        <time>2015-08-29T07:27:33Z</time>
      </trkpt>
      <trkpt lat="41.7632" lon="9.16633">
        <ele>637.972</ele>
        <time>2015-08-29T07:27:36Z</time>
      </trkpt>
      <trkpt lat="41.7632" lon="9.16648">
        <ele>642.779</ele>
        <time>2015-08-29T07:27:43Z</time>
      </trkpt>
      <trkpt lat="41.76327" lon="9.16658">
        <ele>649.027</ele>
        <time>2015-08-29T07:27:50Z</time>
      </trkpt>
      <trkpt lat="41.76333" lon="9.16669">
        <ele>649.027</ele>
        <time>2015-08-29T07:27:56Z</time>
      </trkpt>
      <trkpt lat="41.76335" lon="9.16688">
        <ele>651.911</ele>
        <time>2015-08-29T07:28:04Z</time>
      </trkpt>
      <trkpt lat="41.76336" lon="9.167">
        <ele>654.795</ele>
        <time>2015-08-29T07:28:10Z</time>
      </trkpt>
      <trkpt lat="41.76337" lon="9.16715">
        <ele>657.198</ele>
        <time>2015-08-29T07:28:17Z</time>
      </trkpt>
      <trkpt lat="41.76337" lon="9.16717">
        <ele>654.795</ele>
        <time>2015-08-29T07:28:20Z</time>
      </trkpt>
      <trkpt lat="41.76337" lon="9.1672">
        <ele>654.315</ele>
        <time>2015-08-29T07:28:35Z</time>
      </trkpt>
      <trkpt lat="41.76336" lon="9.16731">
        <ele>649.027</ele>
        <time>2015-08-29T07:28:41Z</time>
      </trkpt>
      <trkpt lat="41.76335" lon="9.16739">
        <ele>646.624</ele>
        <time>2015-08-29T07:28:44Z</time>
      </trkpt>
      <trkpt lat="41.76322" lon="9.1674">
        <ele>645.182</ele>
        <time>2015-08-29T07:28:46Z</time>
      </trkpt>
      <trkpt lat="41.76318" lon="9.16733">
        <ele>645.663</ele>
        <time>2015-08-29T07:28:49Z</time>
      </trkpt>
      <trkpt lat="41.76302" lon="9.16719">
        <ele>641.337</ele>
        <time>2015-08-29T07:28:54Z</time>
      </trkpt>
      <trkpt lat="41.76283" lon="9.16706">
        <ele>634.127</ele>
        <time>2015-08-29T07:29:00Z</time>
      </trkpt>
      <trkpt lat="41.7628" lon="9.16704">
        <ele>633.646</ele>
        <time>2015-08-29T07:29:01Z</time>
      </trkpt>
      <trkpt lat="41.76265" lon="9.16694">
        <ele>631.723</ele>
        <time>2015-08-29T07:29:05Z</time>
      </trkpt>
      <trkpt lat="41.76239" lon="9.16676">
        <ele>628.359</ele>
        <time>2015-08-29T07:29:12Z</time>
      </trkpt>
      <trkpt lat="41.76224" lon="9.16667">
        <ele>622.591</ele>
        <time>2015-08-29T07:29:17Z</time>
      </trkpt>
      <trkpt lat="41.7621" lon="9.16658">
        <ele>617.784</ele>
        <time>2015-08-29T07:29:22Z</time>
      </trkpt>
      <trkpt lat="41.7619" lon="9.16642">
        <ele>617.784</ele>
        <time>2015-08-29T07:29:27Z</time>
      </trkpt>
      <trkpt lat="41.76179" lon="9.16627">
        <ele>621.63</ele>
        <time>2015-08-29T07:29:31Z</time>
      </trkpt>
      <trkpt lat="41.76171" lon="9.16613">
        <ele>639.414</ele>
        <time>2015-08-29T07:29:38Z</time>
      </trkpt>
      <trkpt lat="41.76166" lon="9.16598">
        <ele>650.95</ele>
        <time>2015-08-29T07:29:45Z</time>
      </trkpt>
      <trkpt lat="41.76161" lon="9.16586">
        <ele>656.718</ele>
        <time>2015-08-29T07:29:51Z</time>
      </trkpt>
      <trkpt lat="41.76154" lon="9.16575">
        <ele>657.679</ele>
        <time>2015-08-29T07:29:58Z</time>
      </trkpt>
      <trkpt lat="41.76143" lon="9.16564">
        <ele>655.757</ele>
        <time>2015-08-29T07:30:06Z</time>
      </trkpt>
      <trkpt lat="41.76133" lon="9.16557">
        <ele>652.392</ele>
        <time>2015-08-29T07:30:13Z</time>
      </trkpt>
      <trkpt lat="41.76123" lon="9.16544">
        <ele>651.911</ele>
        <time>2015-08-29T07:30:21Z</time>
      </trkpt>
      <trkpt lat="41.76113" lon="9.1653">
        <ele>653.353</ele>
        <time>2015-08-29T07:30:29Z</time>
      </trkpt>
      <trkpt lat="41.76103" lon="9.16515">
        <ele>649.989</ele>
        <time>2015-08-29T07:30:37Z</time>
      </trkpt>
      <trkpt lat="41.76087" lon="9.16497">
        <ele>648.066</ele>
        <time>2015-08-29T07:30:47Z</time>
      </trkpt>
      <trkpt lat="41.76066" lon="9.16481">
        <ele>644.701</ele>
        <time>2015-08-29T07:30:57Z</time>
      </trkpt>
      <trkpt lat="41.76041" lon="9.16459">
        <ele>643.259</ele>
        <time>2015-08-29T07:31:07Z</time>
      </trkpt>
      <trkpt lat="41.76025" lon="9.16448">
        <ele>642.779</ele>
        <time>2015-08-29T07:31:14Z</time>
      </trkpt>
      <trkpt lat="41.76007" lon="9.16434">
        <ele>642.779</ele>
        <time>2015-08-29T07:31:24Z</time>
      </trkpt>
      <trkpt lat="41.75985" lon="9.16421">
        <ele>648.546</ele>
        <time>2015-08-29T07:31:34Z</time>
      </trkpt>
      <trkpt lat="41.75975" lon="9.16413">
        <ele>650.469</ele>
        <time>2015-08-29T07:31:40Z</time>
      </trkpt>
      <trkpt lat="41.75962" lon="9.16403">
        <ele>656.237</ele>
        <time>2015-08-29T07:31:46Z</time>
      </trkpt>
      <trkpt lat="41.75949" lon="9.16401">
        <ele>660.082</ele>
        <time>2015-08-29T07:31:52Z</time>
      </trkpt>
      <trkpt lat="41.75935" lon="9.16397">
        <ele>660.082</ele>
        <time>2015-08-29T07:31:59Z</time>
      </trkpt>
      <trkpt lat="41.75926" lon="9.16393">
        <ele>659.602</ele>
        <time>2015-08-29T07:32:04Z</time>
      </trkpt>
      <trkpt lat="41.75917" lon="9.16387">
        <ele>658.16</ele>
        <time>2015-08-29T07:32:09Z</time>
      </trkpt>
      <trkpt lat="41.75904" lon="9.1638">
        <ele>658.64</ele>
        <time>2015-08-29T07:32:16Z</time>
      </trkpt>
      <trkpt lat="41.75888" lon="9.16374">
        <ele>657.198</ele>
        <time>2015-08-29T07:32:21Z</time>
      </trkpt>
      <trkpt lat="41.7585" lon="9.16369">
        <ele>661.524</ele>
        <time>2015-08-29T07:32:31Z</time>
      </trkpt>
      <trkpt lat="41.75827" lon="9.16366">
        <ele>662.966</ele>
        <time>2015-08-29T07:32:39Z</time>
      </trkpt>
      <trkpt lat="41.75809" lon="9.16364">
        <ele>665.85</ele>
        <time>2015-08-29T07:32:48Z</time>
      </trkpt>
      <trkpt lat="41.75801" lon="9.1636">
        <ele>663.927</ele>
        <time>2015-08-29T07:32:54Z</time>
      </trkpt>
      <trkpt lat="41.7579" lon="9.1635">
        <ele>665.37</ele>
        <time>2015-08-29T07:33:03Z</time>
      </trkpt>
      <trkpt lat="41.75782" lon="9.16345">
        <ele>666.812</ele>
        <time>2015-08-29T07:33:08Z</time>
      </trkpt>
      <trkpt lat="41.75776" lon="9.16338">
        <ele>667.292</ele>
        <time>2015-08-29T07:33:13Z</time>
      </trkpt>
      <trkpt lat="41.75772" lon="9.16323">
        <ele>662.486</ele>
        <time>2015-08-29T07:33:18Z</time>
      </trkpt>
      <trkpt lat="41.7577" lon="9.16306">
        <ele>662.966</ele>
        <time>2015-08-29T07:33:24Z</time>
      </trkpt>
      <trkpt lat="41.75767" lon="9.16292">
        <ele>665.37</ele>
        <time>2015-08-29T07:33:30Z</time>
      </trkpt>
      <trkpt lat="41.75762" lon="9.16274">
        <ele>663.927</ele>
        <time>2015-08-29T07:33:36Z</time>
      </trkpt>
      <trkpt lat="41.75757" lon="9.16254">
        <ele>662.005</ele>
        <time>2015-08-29T07:33:41Z</time>
      </trkpt>
      <trkpt lat="41.75744" lon="9.1624">
        <ele>656.718</ele>
        <time>2015-08-29T07:33:46Z</time>
      </trkpt>
      <trkpt lat="41.75724" lon="9.16232">
        <ele>653.353</ele>
        <time>2015-08-29T07:33:51Z</time>
      </trkpt>
      <trkpt lat="41.75692" lon="9.16224">
        <ele>660.082</ele>
        <time>2015-08-29T07:33:58Z</time>
      </trkpt>
      <trkpt lat="41.75679" lon="9.16216">
        <ele>661.524</ele>
        <time>2015-08-29T07:34:04Z</time>
      </trkpt>
      <trkpt lat="41.75671" lon="9.16209">
        <ele>660.082</ele>
        <time>2015-08-29T07:34:10Z</time>
      </trkpt>
      <trkpt lat="41.75661" lon="9.16204">
        <ele>656.718</ele>
        <time>2015-08-29T07:34:14Z</time>
      </trkpt>
      <trkpt lat="41.75642" lon="9.16211">
        <ele>654.795</ele>
        <time>2015-08-29T07:34:20Z</time>
      </trkpt>
      <trkpt lat="41.75622" lon="9.16224">
        <ele>657.198</ele>
        <time>2015-08-29T07:34:27Z</time>
      </trkpt>
      <trkpt lat="41.75603" lon="9.16227">
        <ele>662.486</ele>
        <time>2015-08-29T07:34:34Z</time>
      </trkpt>
      <trkpt lat="41.75598" lon="9.16228">
        <ele>664.889</ele>
        <time>2015-08-29T07:34:37Z</time>
      </trkpt>
      <trkpt lat="41.75586" lon="9.16234">
        <ele>667.292</ele>
        <time>2015-08-29T07:34:44Z</time>
      </trkpt>
      <trkpt lat="41.75573" lon="9.16237">
        <ele>662.966</ele>
        <time>2015-08-29T07:34:51Z</time>
      </trkpt>
      <trkpt lat="41.75556" lon="9.16234">
        <ele>657.679</ele>
        <time>2015-08-29T07:34:55Z</time>
      </trkpt>
      <trkpt lat="41.75537" lon="9.16215">
        <ele>653.834</ele>
        <time>2015-08-29T07:35:00Z</time>
      </trkpt>
      <trkpt lat="41.75519" lon="9.16213">
        <ele>652.392</ele>
        <time>2015-08-29T07:35:03Z</time>
      </trkpt>
      <trkpt lat="41.7547" lon="9.16223">
        <ele>648.066</ele>
        <time>2015-08-29T07:35:10Z</time>
      </trkpt>
      <trkpt lat="41.75443" lon="9.1623">
        <ele>644.701</ele>
        <time>2015-08-29T07:35:15Z</time>
      </trkpt>
      <trkpt lat="41.75428" lon="9.16228">
        <ele>647.104</ele>
        <time>2015-08-29T07:35:20Z</time>
      </trkpt>
      <trkpt lat="41.75416" lon="9.16215">
        <ele>648.546</ele>
        <time>2015-08-29T07:35:27Z</time>
      </trkpt>
      <trkpt lat="41.75409" lon="9.16201">
        <ele>654.795</ele>
        <time>2015-08-29T07:35:32Z</time>
      </trkpt>
      <trkpt lat="41.75403" lon="9.16187">
        <ele>658.64</ele>
        <time>2015-08-29T07:35:39Z</time>
      </trkpt>
      <trkpt lat="41.75398" lon="9.16175">
        <ele>662.005</ele>
        <time>2015-08-29T07:35:47Z</time>
      </trkpt>
      <trkpt lat="41.75398" lon="9.16175">
        <ele>662.966</ele>
        <time>2015-08-29T07:35:54Z</time>
      </trkpt>
      <trkpt lat="41.75398" lon="9.16175">
        <ele>661.044</ele>
        <time>2015-08-29T07:36:00Z</time>
      </trkpt>
      <trkpt lat="41.75398" lon="9.16175">
        <ele>660.563</ele>
        <time>2015-08-29T07:36:01Z</time>
      </trkpt>
      <trkpt lat="41.75398" lon="9.16175">
        <ele>663.927</ele>
        <time>2015-08-29T07:36:09Z</time>
      </trkpt>
      <trkpt lat="41.75335" lon="9.16178">
        <ele>673.06</ele>
        <time>2015-08-29T07:36:16Z</time>
      </trkpt>
      <trkpt lat="41.75334" lon="9.1618">
        <ele>672.58</ele>
        <time>2015-08-29T07:36:24Z</time>
      </trkpt>
      <trkpt lat="41.75333" lon="9.16182">
        <ele>669.696</ele>
        <time>2015-08-29T07:36:30Z</time>
      </trkpt>
      <trkpt lat="41.75333" lon="9.16182">
        <ele>676.906</ele>
        <time>2015-08-29T07:36:36Z</time>
      </trkpt>
      <trkpt lat="41.75333" lon="9.16182">
        <ele>680.27</ele>
        <time>2015-08-29T07:36:41Z</time>
      </trkpt>
      <trkpt lat="41.75398" lon="9.16175">
        <ele>685.077</ele>
        <time>2015-08-29T07:36:47Z</time>
      </trkpt>
      <trkpt lat="41.75333" lon="9.16182">
        <ele>687.48</ele>
        <time>2015-08-29T07:36:49Z</time>
      </trkpt>
      <trkpt lat="41.75325" lon="9.16186">
        <ele>688.922</ele>
        <time>2015-08-29T07:36:56Z</time>
      </trkpt>
      <trkpt lat="41.75317" lon="9.16189">
        <ele>689.883</ele>
        <time>2015-08-29T07:37:03Z</time>
      </trkpt>
      <trkpt lat="41.75312" lon="9.1619">
        <ele>692.287</ele>
        <time>2015-08-29T07:37:06Z</time>
      </trkpt>
      <trkpt lat="41.75299" lon="9.16193">
        <ele>691.806</ele>
        <time>2015-08-29T07:37:14Z</time>
      </trkpt>
      <trkpt lat="41.75284" lon="9.16196">
        <ele>687.48</ele>
        <time>2015-08-29T07:37:22Z</time>
      </trkpt>
      <trkpt lat="41.75277" lon="9.16197">
        <ele>685.077</ele>
        <time>2015-08-29T07:37:27Z</time>
      </trkpt>
      <trkpt lat="41.75275" lon="9.16198">
        <ele>684.115</ele>
        <time>2015-08-29T07:37:28Z</time>
      </trkpt>
      <trkpt lat="41.75265" lon="9.16201">
        <ele>681.231</ele>
        <time>2015-08-29T07:37:36Z</time>
      </trkpt>
      <trkpt lat="41.75265" lon="9.16201">
        <ele>676.906</ele>
        <time>2015-08-29T07:37:42Z</time>
      </trkpt>
      <trkpt lat="41.75265" lon="9.16201">
        <ele>675.463</ele>
        <time>2015-08-29T07:37:48Z</time>
      </trkpt>
      <trkpt lat="41.75265" lon="9.16201">
        <ele>674.983</ele>
        <time>2015-08-29T07:37:54Z</time>
      </trkpt>
      <trkpt lat="41.75261" lon="9.1621">
        <ele>673.06</ele>
        <time>2015-08-29T07:37:59Z</time>
      </trkpt>
      <trkpt lat="41.7518" lon="9.1621">
        <ele>665.85</ele>
        <time>2015-08-29T07:38:04Z</time>
      </trkpt>
      <trkpt lat="41.75175" lon="9.16198">
        <ele>663.927</ele>
        <time>2015-08-29T07:38:10Z</time>
      </trkpt>
      <trkpt lat="41.75225" lon="9.16271">
        <ele>667.292</ele>
        <time>2015-08-29T07:38:16Z</time>
      </trkpt>
      <trkpt lat="41.75186" lon="9.16225">
        <ele>666.812</ele>
        <time>2015-08-29T07:38:22Z</time>
      </trkpt>
      <trkpt lat="41.75187" lon="9.16226">
        <ele>674.021</ele>
        <time>2015-08-29T07:38:28Z</time>
      </trkpt>
      <trkpt lat="41.75189" lon="9.16232">
        <ele>685.557</ele>
        <time>2015-08-29T07:38:35Z</time>
      </trkpt>
      <trkpt lat="41.75192" lon="9.1624">
        <ele>688.441</ele>
        <time>2015-08-29T07:38:42Z</time>
      </trkpt>
      <trkpt lat="41.75198" lon="9.16253">
        <ele>697.574</ele>
        <time>2015-08-29T07:38:49Z</time>
      </trkpt>
      <trkpt lat="41.75199" lon="9.16256">
        <ele>701.419</ele>
        <time>2015-08-29T07:38:51Z</time>
      </trkpt>
      <trkpt lat="41.75204" lon="9.16265">
        <ele>706.226</ele>
        <time>2015-08-29T07:38:58Z</time>
      </trkpt>
      <trkpt lat="41.75207" lon="9.16269">
        <ele>707.668</ele>
        <time>2015-08-29T07:39:01Z</time>
      </trkpt>
      <trkpt lat="41.75211" lon="9.16274">
        <ele>711.994</ele>
        <time>2015-08-29T07:39:08Z</time>
      </trkpt>
      <trkpt lat="41.75217" lon="9.16281">
        <ele>713.916</ele>
        <time>2015-08-29T07:39:14Z</time>
      </trkpt>
      <trkpt lat="41.75223" lon="9.16295">
        <ele>717.761</ele>
        <time>2015-08-29T07:39:20Z</time>
      </trkpt>
      <trkpt lat="41.75225" lon="9.1631">
        <ele>717.281</ele>
        <time>2015-08-29T07:39:28Z</time>
      </trkpt>
      <trkpt lat="41.75233" lon="9.16324">
        <ele>713.916</ele>
        <time>2015-08-29T07:39:35Z</time>
      </trkpt>
      <trkpt lat="41.75234" lon="9.16326">
        <ele>712.955</ele>
        <time>2015-08-29T07:39:36Z</time>
      </trkpt>
      <trkpt lat="41.75238" lon="9.16343">
        <ele>712.955</ele>
        <time>2015-08-29T07:39:43Z</time>
      </trkpt>
      <trkpt lat="41.75232" lon="9.16354">
        <ele>712.955</ele>
        <time>2015-08-29T07:39:49Z</time>
      </trkpt>
      <trkpt lat="41.75222" lon="9.1637">
        <ele>715.839</ele>
        <time>2015-08-29T07:39:57Z</time>
      </trkpt>
      <trkpt lat="41.75217" lon="9.16378">
        <ele>715.839</ele>
        <time>2015-08-29T07:40:02Z</time>
      </trkpt>
      <trkpt lat="41.75208" lon="9.16395">
        <ele>714.397</ele>
        <time>2015-08-29T07:40:10Z</time>
      </trkpt>
      <trkpt lat="41.75204" lon="9.16409">
        <ele>710.552</ele>
        <time>2015-08-29T07:40:17Z</time>
      </trkpt>
      <trkpt lat="41.75202" lon="9.1643">
        <ele>709.11</ele>
        <time>2015-08-29T07:40:25Z</time>
      </trkpt>
      <trkpt lat="41.75201" lon="9.16458">
        <ele>719.684</ele>
        <time>2015-08-29T07:40:33Z</time>
      </trkpt>
      <trkpt lat="41.75194" lon="9.16476">
        <ele>719.684</ele>
        <time>2015-08-29T07:40:40Z</time>
      </trkpt>
      <trkpt lat="41.75186" lon="9.16487">
        <ele>721.607</ele>
        <time>2015-08-29T07:40:46Z</time>
      </trkpt>
      <trkpt lat="41.75173" lon="9.16501">
        <ele>720.165</ele>
        <time>2015-08-29T07:40:53Z</time>
      </trkpt>
      <trkpt lat="41.75161" lon="9.16506">
        <ele>716.8</ele>
        <time>2015-08-29T07:40:59Z</time>
      </trkpt>
      <trkpt lat="41.75139" lon="9.16508">
        <ele>713.916</ele>
        <time>2015-08-29T07:41:07Z</time>
      </trkpt>
      <trkpt lat="41.75115" lon="9.16511">
        <ele>710.071</ele>
        <time>2015-08-29T07:41:15Z</time>
      </trkpt>
      <trkpt lat="41.75094" lon="9.16516">
        <ele>707.668</ele>
        <time>2015-08-29T07:41:22Z</time>
      </trkpt>
      <trkpt lat="41.75082" lon="9.16527">
        <ele>707.668</ele>
        <time>2015-08-29T07:41:27Z</time>
      </trkpt>
      <trkpt lat="41.75077" lon="9.16546">
        <ele>708.629</ele>
        <time>2015-08-29T07:41:34Z</time>
      </trkpt>
      <trkpt lat="41.75074" lon="9.16561">
        <ele>713.916</ele>
        <time>2015-08-29T07:41:39Z</time>
      </trkpt>
      <trkpt lat="41.75072" lon="9.16583">
        <ele>721.126</ele>
        <time>2015-08-29T07:41:47Z</time>
      </trkpt>
      <trkpt lat="41.7507" lon="9.166">
        <ele>726.413</ele>
        <time>2015-08-29T07:41:54Z</time>
      </trkpt>
      <trkpt lat="41.75069" lon="9.1661">
        <ele>727.855</ele>
        <time>2015-08-29T07:42:00Z</time>
      </trkpt>
      <trkpt lat="41.75066" lon="9.16626">
        <ele>729.778</ele>
        <time>2015-08-29T07:42:06Z</time>
      </trkpt>
      <trkpt lat="41.75065" lon="9.1664">
        <ele>733.623</ele>
        <time>2015-08-29T07:42:13Z</time>
      </trkpt>
      <trkpt lat="41.75064" lon="9.16654">
        <ele>735.546</ele>
        <time>2015-08-29T07:42:20Z</time>
      </trkpt>
      <trkpt lat="41.75064" lon="9.16664">
        <ele>736.507</ele>
        <time>2015-08-29T07:42:25Z</time>
      </trkpt>
      <trkpt lat="41.75064" lon="9.16668">
        <ele>737.469</ele>
        <time>2015-08-29T07:42:27Z</time>
      </trkpt>
      <trkpt lat="41.75064" lon="9.16676">
        <ele>737.949</ele>
        <time>2015-08-29T07:42:31Z</time>
      </trkpt>
      <trkpt lat="41.75064" lon="9.16678">
        <ele>733.623</ele>
        <time>2015-08-29T07:42:39Z</time>
      </trkpt>
      <trkpt lat="41.75059" lon="9.16683">
        <ele>733.623</ele>
        <time>2015-08-29T07:42:45Z</time>
      </trkpt>
      <trkpt lat="41.75056" lon="9.16684">
        <ele>732.181</ele>
        <time>2015-08-29T07:42:47Z</time>
      </trkpt>
      <trkpt lat="41.75054" lon="9.16684">
        <ele>731.7</ele>
        <time>2015-08-29T07:42:49Z</time>
      </trkpt>
      <trkpt lat="41.75044" lon="9.16681">
        <ele>730.739</ele>
        <time>2015-08-29T07:42:56Z</time>
      </trkpt>
      <trkpt lat="41.7504" lon="9.1668">
        <ele>731.7</ele>
        <time>2015-08-29T07:42:58Z</time>
      </trkpt>
      <trkpt lat="41.75026" lon="9.16667">
        <ele>735.065</ele>
        <time>2015-08-29T07:43:05Z</time>
      </trkpt>
      <trkpt lat="41.75015" lon="9.16652">
        <ele>739.391</ele>
        <time>2015-08-29T07:43:12Z</time>
      </trkpt>
      <trkpt lat="41.75002" lon="9.16636">
        <ele>737.949</ele>
        <time>2015-08-29T07:43:19Z</time>
      </trkpt>
      <trkpt lat="41.74997" lon="9.16636">
        <ele>737.949</ele>
        <time>2015-08-29T07:43:21Z</time>
      </trkpt>
      <trkpt lat="41.74995" lon="9.16655">
        <ele>738.43</ele>
        <time>2015-08-29T07:43:28Z</time>
      </trkpt>
      <trkpt lat="41.74995" lon="9.16659">
        <ele>741.794</ele>
        <time>2015-08-29T07:43:29Z</time>
      </trkpt>
      <trkpt lat="41.75" lon="9.16682">
        <ele>748.043</ele>
        <time>2015-08-29T07:43:36Z</time>
      </trkpt>
      <trkpt lat="41.75002" lon="9.16697">
        <ele>748.043</ele>
        <time>2015-08-29T07:43:41Z</time>
      </trkpt>
      <trkpt lat="41.75005" lon="9.16727">
        <ele>747.562</ele>
        <time>2015-08-29T07:43:50Z</time>
      </trkpt>
      <trkpt lat="41.75005" lon="9.16731">
        <ele>746.601</ele>
        <time>2015-08-29T07:44:00Z</time>
      </trkpt>
      <trkpt lat="41.75013" lon="9.16784">
        <ele>749.966</ele>
        <time>2015-08-29T07:44:08Z</time>
      </trkpt>
      <trkpt lat="41.75007" lon="9.16811">
        <ele>754.292</ele>
        <time>2015-08-29T07:44:16Z</time>
      </trkpt>
      <trkpt lat="41.75003" lon="9.16821">
        <ele>748.043</ele>
        <time>2015-08-29T07:44:22Z</time>
      </trkpt>
      <trkpt lat="41.74995" lon="9.16838">
        <ele>744.198</ele>
        <time>2015-08-29T07:44:30Z</time>
      </trkpt>
      <trkpt lat="41.74984" lon="9.16863">
        <ele>748.043</ele>
        <time>2015-08-29T07:44:39Z</time>
      </trkpt>
      <trkpt lat="41.74979" lon="9.16881">
        <ele>747.562</ele>
        <time>2015-08-29T07:44:47Z</time>
      </trkpt>
      <trkpt lat="41.74973" lon="9.16896">
        <ele>747.082</ele>
        <time>2015-08-29T07:44:54Z</time>
      </trkpt>
      <trkpt lat="41.74959" lon="9.1691">
        <ele>747.082</ele>
        <time>2015-08-29T07:45:04Z</time>
      </trkpt>
      <trkpt lat="41.74943" lon="9.16922">
        <ele>749.485</ele>
        <time>2015-08-29T07:45:14Z</time>
      </trkpt>
      <trkpt lat="41.74929" lon="9.16931">
        <ele>751.888</ele>
        <time>2015-08-29T07:45:23Z</time>
      </trkpt>
      <trkpt lat="41.74916" lon="9.16938">
        <ele>753.33</ele>
        <time>2015-08-29T07:45:31Z</time>
      </trkpt>
      <trkpt lat="41.74902" lon="9.16943">
        <ele>754.292</ele>
        <time>2015-08-29T07:45:40Z</time>
      </trkpt>
      <trkpt lat="41.7489" lon="9.16953">
        <ele>757.176</ele>
        <time>2015-08-29T07:45:46Z</time>
      </trkpt>
      <trkpt lat="41.74884" lon="9.16971">
        <ele>756.214</ele>
        <time>2015-08-29T07:45:52Z</time>
      </trkpt>
      <trkpt lat="41.74877" lon="9.16989">
        <ele>755.253</ele>
        <time>2015-08-29T07:45:58Z</time>
      </trkpt>
      <trkpt lat="41.74873" lon="9.16999">
        <ele>754.292</ele>
        <time>2015-08-29T07:46:04Z</time>
      </trkpt>
      <trkpt lat="41.74873" lon="9.17004">
        <ele>753.33</ele>
        <time>2015-08-29T07:46:08Z</time>
      </trkpt>
      <trkpt lat="41.74872" lon="9.17008">
        <ele>752.369</ele>
        <time>2015-08-29T07:46:14Z</time>
      </trkpt>
      <trkpt lat="41.74839" lon="9.17025">
        <ele>753.811</ele>
        <time>2015-08-29T07:46:20Z</time>
      </trkpt>
      <trkpt lat="41.74813" lon="9.17037">
        <ele>750.447</ele>
        <time>2015-08-29T07:46:27Z</time>
      </trkpt>
      <trkpt lat="41.74805" lon="9.17039">
        <ele>750.447</ele>
        <time>2015-08-29T07:46:29Z</time>
      </trkpt>
      <trkpt lat="41.74784" lon="9.17027">
        <ele>752.369</ele>
        <time>2015-08-29T07:46:35Z</time>
      </trkpt>
      <trkpt lat="41.74777" lon="9.17021">
        <ele>752.369</ele>
        <time>2015-08-29T07:46:37Z</time>
      </trkpt>
      <trkpt lat="41.74747" lon="9.16997">
        <ele>750.447</ele>
        <time>2015-08-29T07:46:44Z</time>
      </trkpt>
      <trkpt lat="41.74717" lon="9.16973">
        <ele>746.601</ele>
        <time>2015-08-29T07:46:50Z</time>
      </trkpt>
      <trkpt lat="41.74692" lon="9.16954">
        <ele>745.159</ele>
        <time>2015-08-29T07:46:55Z</time>
      </trkpt>
      <trkpt lat="41.74667" lon="9.16913">
        <ele>740.353</ele>
        <time>2015-08-29T07:47:02Z</time>
      </trkpt>
      <trkpt lat="41.74644" lon="9.16885">
        <ele>736.988</ele>
        <time>2015-08-29T07:47:07Z</time>
      </trkpt>
      <trkpt lat="41.74594" lon="9.16836">
        <ele>731.22</ele>
        <time>2015-08-29T07:47:16Z</time>
      </trkpt>
      <trkpt lat="41.74553" lon="9.16801">
        <ele>726.894</ele>
        <time>2015-08-29T07:47:23Z</time>
      </trkpt>
      <trkpt lat="41.74511" lon="9.16773">
        <ele>726.413</ele>
        <time>2015-08-29T07:47:30Z</time>
      </trkpt>
      <trkpt lat="41.74472" lon="9.16758">
        <ele>724.971</ele>
        <time>2015-08-29T07:47:36Z</time>
      </trkpt>
      <trkpt lat="41.74465" lon="9.16755">
        <ele>724.971</ele>
        <time>2015-08-29T07:47:37Z</time>
      </trkpt>
      <trkpt lat="41.74412" lon="9.16751">
        <ele>724.01</ele>
        <time>2015-08-29T07:47:44Z</time>
      </trkpt>
      <trkpt lat="41.74371" lon="9.16764">
        <ele>721.126</ele>
        <time>2015-08-29T07:47:51Z</time>
      </trkpt>
      <trkpt lat="41.74331" lon="9.1677">
        <ele>719.684</ele>
        <time>2015-08-29T07:47:56Z</time>
      </trkpt>
      <trkpt lat="41.74293" lon="9.16767">
        <ele>719.684</ele>
        <time>2015-08-29T07:48:02Z</time>
      </trkpt>
      <trkpt lat="41.74268" lon="9.16772">
        <ele>720.165</ele>
        <time>2015-08-29T07:48:08Z</time>
      </trkpt>
      <trkpt lat="41.74239" lon="9.16792">
        <ele>720.646</ele>
        <time>2015-08-29T07:48:16Z</time>
      </trkpt>
      <trkpt lat="41.74236" lon="9.16796">
        <ele>720.646</ele>
        <time>2015-08-29T07:48:17Z</time>
      </trkpt>
      <trkpt lat="41.74223" lon="9.16819">
        <ele>721.607</ele>
        <time>2015-08-29T07:48:22Z</time>
      </trkpt>
      <trkpt lat="41.74205" lon="9.1686">
        <ele>719.204</ele>
        <time>2015-08-29T07:48:29Z</time>
      </trkpt>
      <trkpt lat="41.74189" lon="9.16887">
        <ele>718.242</ele>
        <time>2015-08-29T07:48:33Z</time>
      </trkpt>
      <trkpt lat="41.74177" lon="9.16904">
        <ele>715.839</ele>
        <time>2015-08-29T07:48:35Z</time>
      </trkpt>
      <trkpt lat="41.74158" lon="9.1695">
        <ele>713.916</ele>
        <time>2015-08-29T07:48:39Z</time>
      </trkpt>
      <trkpt lat="41.74142" lon="9.17018">
        <ele>710.071</ele>
        <time>2015-08-29T07:48:44Z</time>
      </trkpt>
      <trkpt lat="41.7414" lon="9.1703">
        <ele>708.629</ele>
        <time>2015-08-29T07:48:45Z</time>
      </trkpt>
      <trkpt lat="41.74141" lon="9.17087">
        <ele>705.745</ele>
        <time>2015-08-29T07:48:50Z</time>
      </trkpt>
      <trkpt lat="41.74149" lon="9.1711">
        <ele>703.823</ele>
        <time>2015-08-29T07:48:52Z</time>
      </trkpt>
      <trkpt lat="41.74196" lon="9.1719">
        <ele>696.613</ele>
        <time>2015-08-29T07:48:59Z</time>
      </trkpt>
      <trkpt lat="41.74212" lon="9.17239">
        <ele>693.248</ele>
        <time>2015-08-29T07:49:03Z</time>
      </trkpt>
      <trkpt lat="41.74215" lon="9.17248">
        <ele>693.248</ele>
        <time>2015-08-29T07:49:04Z</time>
      </trkpt>
      <trkpt lat="41.74215" lon="9.17273">
        <ele>689.403</ele>
        <time>2015-08-29T07:49:07Z</time>
      </trkpt>
      <trkpt lat="41.74208" lon="9.17282">
        <ele>687.961</ele>
        <time>2015-08-29T07:49:09Z</time>
      </trkpt>
      <trkpt lat="41.74183" lon="9.17293">
        <ele>686.999</ele>
        <time>2015-08-29T07:49:13Z</time>
      </trkpt>
      <trkpt lat="41.74169" lon="9.17294">
        <ele>688.441</ele>
        <time>2015-08-29T07:49:16Z</time>
      </trkpt>
      <trkpt lat="41.74164" lon="9.17306">
        <ele>690.844</ele>
        <time>2015-08-29T07:49:19Z</time>
      </trkpt>
      <trkpt lat="41.74164" lon="9.17306">
        <ele>692.287</ele>
        <time>2015-08-29T07:49:20Z</time>
      </trkpt>
      <trkpt lat="41.7416" lon="9.17287">
        <ele>700.458</ele>
        <time>2015-08-29T07:49:40Z</time>
      </trkpt>
      <trkpt lat="41.74163" lon="9.17298">
        <ele>699.977</ele>
        <time>2015-08-29T07:49:43Z</time>
      </trkpt>
      <trkpt lat="41.74165" lon="9.17308">
        <ele>704.303</ele>
        <time>2015-08-29T07:49:49Z</time>
      </trkpt>
      <trkpt lat="41.74165" lon="9.17311">
        <ele>704.784</ele>
        <time>2015-08-29T07:49:50Z</time>
      </trkpt>
      <trkpt lat="41.7417" lon="9.17321">
        <ele>709.59</ele>
        <time>2015-08-29T07:49:57Z</time>
      </trkpt>
      <trkpt lat="41.74176" lon="9.17335">
        <ele>710.552</ele>
        <time>2015-08-29T07:50:04Z</time>
      </trkpt>
      <trkpt lat="41.74182" lon="9.17346">
        <ele>714.877</ele>
        <time>2015-08-29T07:50:12Z</time>
      </trkpt>
      <trkpt lat="41.7419" lon="9.1736">
        <ele>723.049</ele>
        <time>2015-08-29T07:50:20Z</time>
      </trkpt>
      <trkpt lat="41.74196" lon="9.17369">
        <ele>730.739</ele>
        <time>2015-08-29T07:50:29Z</time>
      </trkpt>
      <trkpt lat="41.74205" lon="9.17382">
        <ele>734.585</ele>
        <time>2015-08-29T07:50:37Z</time>
      </trkpt>
      <trkpt lat="41.74212" lon="9.17391">
        <ele>738.43</ele>
        <time>2015-08-29T07:50:45Z</time>
      </trkpt>
      <trkpt lat="41.74216" lon="9.17398">
        <ele>742.756</ele>
        <time>2015-08-29T07:50:50Z</time>
      </trkpt>
      <trkpt lat="41.74224" lon="9.17411">
        <ele>745.64</ele>
        <time>2015-08-29T07:50:58Z</time>
      </trkpt>
      <trkpt lat="41.74233" lon="9.17424">
        <ele>747.562</ele>
        <time>2015-08-29T07:51:07Z</time>
      </trkpt>
      <trkpt lat="41.74243" lon="9.17437">
        <ele>748.524</ele>
        <time>2015-08-29T07:51:16Z</time>
      </trkpt>
      <trkpt lat="41.74252" lon="9.17448">
        <ele>745.159</ele>
        <time>2015-08-29T07:51:25Z</time>
      </trkpt>
      <trkpt lat="41.74265" lon="9.17472">
        <ele>744.678</ele>
        <time>2015-08-29T07:51:33Z</time>
      </trkpt>
      <trkpt lat="41.7427" lon="9.17501">
        <ele>747.082</ele>
        <time>2015-08-29T07:51:40Z</time>
      </trkpt>
      <trkpt lat="41.74264" lon="9.17531">
        <ele>753.811</ele>
        <time>2015-08-29T07:51:49Z</time>
      </trkpt>
      <trkpt lat="41.74261" lon="9.17555">
        <ele>753.33</ele>
        <time>2015-08-29T07:51:58Z</time>
      </trkpt>
      <trkpt lat="41.74256" lon="9.17584">
        <ele>762.463</ele>
        <time>2015-08-29T07:52:09Z</time>
      </trkpt>
      <trkpt lat="41.74252" lon="9.17608">
        <ele>764.385</ele>
        <time>2015-08-29T07:52:17Z</time>
      </trkpt>
      <trkpt lat="41.74244" lon="9.1763">
        <ele>768.231</ele>
        <time>2015-08-29T07:52:25Z</time>
      </trkpt>
      <trkpt lat="41.74242" lon="9.17653">
        <ele>772.076</ele>
        <time>2015-08-29T07:52:33Z</time>
      </trkpt>
      <trkpt lat="41.74244" lon="9.17664">
        <ele>774.96</ele>
        <time>2015-08-29T07:52:40Z</time>
      </trkpt>
      <trkpt lat="41.74248" lon="9.1768">
        <ele>776.883</ele>
        <time>2015-08-29T07:52:46Z</time>
      </trkpt>
      <trkpt lat="41.74249" lon="9.17709">
        <ele>776.883</ele>
        <time>2015-08-29T07:52:53Z</time>
      </trkpt>
      <trkpt lat="41.74245" lon="9.17727">
        <ele>773.999</ele>
        <time>2015-08-29T07:52:59Z</time>
      </trkpt>
      <trkpt lat="41.74239" lon="9.17743">
        <ele>764.385</ele>
        <time>2015-08-29T07:53:05Z</time>
      </trkpt>
      <trkpt lat="41.74232" lon="9.17755">
        <ele>749.966</ele>
        <time>2015-08-29T07:53:11Z</time>
      </trkpt>
      <trkpt lat="41.74224" lon="9.17765">
        <ele>739.391</ele>
        <time>2015-08-29T07:53:16Z</time>
      </trkpt>
      <trkpt lat="41.74207" lon="9.17784">
        <ele>725.452</ele>
        <time>2015-08-29T07:53:23Z</time>
      </trkpt>
      <trkpt lat="41.74202" lon="9.17797">
        <ele>720.646</ele>
        <time>2015-08-29T07:53:28Z</time>
      </trkpt>
      <trkpt lat="41.74202" lon="9.17797">
        <ele>719.684</ele>
        <time>2015-08-29T07:53:30Z</time>
      </trkpt>
      <trkpt lat="41.74214" lon="9.17826">
        <ele>720.165</ele>
        <time>2015-08-29T07:53:36Z</time>
      </trkpt>
      <trkpt lat="41.74227" lon="9.17843">
        <ele>718.242</ele>
        <time>2015-08-29T07:53:42Z</time>
      </trkpt>
      <trkpt lat="41.74245" lon="9.17867">
        <ele>716.32</ele>
        <time>2015-08-29T07:53:49Z</time>
      </trkpt>
      <trkpt lat="41.74264" lon="9.17891">
        <ele>714.877</ele>
        <time>2015-08-29T07:53:55Z</time>
      </trkpt>
      <trkpt lat="41.74296" lon="9.17931">
        <ele>714.877</ele>
        <time>2015-08-29T07:54:04Z</time>
      </trkpt>
      <trkpt lat="41.74323" lon="9.17953">
        <ele>716.32</ele>
        <time>2015-08-29T07:54:12Z</time>
      </trkpt>
      <trkpt lat="41.74331" lon="9.17964">
        <ele>715.839</ele>
        <time>2015-08-29T07:54:15Z</time>
      </trkpt>
      <trkpt lat="41.74327" lon="9.17983">
        <ele>718.723</ele>
        <time>2015-08-29T07:54:20Z</time>
      </trkpt>
      <trkpt lat="41.74303" lon="9.17995">
        <ele>721.607</ele>
        <time>2015-08-29T07:54:28Z</time>
      </trkpt>
      <trkpt lat="41.74297" lon="9.18002">
        <ele>722.568</ele>
        <time>2015-08-29T07:54:31Z</time>
      </trkpt>
      <trkpt lat="41.74297" lon="9.18012">
        <ele>721.126</ele>
        <time>2015-08-29T07:54:36Z</time>
      </trkpt>
      <trkpt lat="41.74302" lon="9.18015">
        <ele>721.607</ele>
        <time>2015-08-29T07:54:39Z</time>
      </trkpt>
      <trkpt lat="41.74309" lon="9.18016">
        <ele>723.53</ele>
        <time>2015-08-29T07:54:42Z</time>
      </trkpt>
      <trkpt lat="41.74328" lon="9.18017">
        <ele>724.01</ele>
        <time>2015-08-29T07:54:48Z</time>
      </trkpt>
      <trkpt lat="41.74345" lon="9.18017">
        <ele>724.01</ele>
        <time>2015-08-29T07:54:53Z</time>
      </trkpt>
      <trkpt lat="41.74362" lon="9.18016">
        <ele>722.568</ele>
        <time>2015-08-29T07:54:59Z</time>
      </trkpt>
      <trkpt lat="41.74378" lon="9.18012">
        <ele>722.087</ele>
        <time>2015-08-29T07:55:07Z</time>
      </trkpt>
      <trkpt lat="41.74391" lon="9.18008">
        <ele>723.049</ele>
        <time>2015-08-29T07:55:13Z</time>
      </trkpt>
      <trkpt lat="41.74412" lon="9.18014">
        <ele>724.01</ele>
        <time>2015-08-29T07:55:23Z</time>
      </trkpt>
      <trkpt lat="41.74431" lon="9.18026">
        <ele>726.413</ele>
        <time>2015-08-29T07:55:32Z</time>
      </trkpt>
      <trkpt lat="41.74446" lon="9.18036">
        <ele>725.933</ele>
        <time>2015-08-29T07:55:39Z</time>
      </trkpt>
      <trkpt lat="41.74463" lon="9.18049">
        <ele>727.855</ele>
        <time>2015-08-29T07:55:48Z</time>
      </trkpt>
      <trkpt lat="41.74477" lon="9.18063">
        <ele>729.297</ele>
        <time>2015-08-29T07:55:56Z</time>
      </trkpt>
      <trkpt lat="41.74489" lon="9.18074">
        <ele>730.739</ele>
        <time>2015-08-29T07:56:03Z</time>
      </trkpt>
      <trkpt lat="41.74503" lon="9.18091">
        <ele>734.585</ele>
        <time>2015-08-29T07:56:12Z</time>
      </trkpt>
      <trkpt lat="41.74515" lon="9.18106">
        <ele>734.104</ele>
        <time>2015-08-29T07:56:19Z</time>
      </trkpt>
      <trkpt lat="41.74527" lon="9.18119">
        <ele>734.585</ele>
        <time>2015-08-29T07:56:26Z</time>
      </trkpt>
      <trkpt lat="41.74537" lon="9.18131">
        <ele>735.546</ele>
        <time>2015-08-29T07:56:32Z</time>
      </trkpt>
      <trkpt lat="41.74554" lon="9.18154">
        <ele>736.507</ele>
        <time>2015-08-29T07:56:42Z</time>
      </trkpt>
      <trkpt lat="41.74564" lon="9.18173">
        <ele>735.546</ele>
        <time>2015-08-29T07:56:49Z</time>
      </trkpt>
      <trkpt lat="41.74574" lon="9.18199">
        <ele>733.143</ele>
        <time>2015-08-29T07:56:57Z</time>
      </trkpt>
      <trkpt lat="41.74578" lon="9.18228">
        <ele>732.181</ele>
        <time>2015-08-29T07:57:05Z</time>
      </trkpt>
      <trkpt lat="41.74577" lon="9.1825">
        <ele>730.739</ele>
        <time>2015-08-29T07:57:11Z</time>
      </trkpt>
      <trkpt lat="41.74571" lon="9.18282">
        <ele>732.181</ele>
        <time>2015-08-29T07:57:19Z</time>
      </trkpt>
      <trkpt lat="41.74568" lon="9.1831">
        <ele>732.662</ele>
        <time>2015-08-29T07:57:26Z</time>
      </trkpt>
      <trkpt lat="41.74572" lon="9.18334">
        <ele>735.065</ele>
        <time>2015-08-29T07:57:32Z</time>
      </trkpt>
      <trkpt lat="41.74577" lon="9.18373">
        <ele>733.623</ele>
        <time>2015-08-29T07:57:42Z</time>
      </trkpt>
      <trkpt lat="41.7457" lon="9.18393">
        <ele>733.623</ele>
        <time>2015-08-29T07:57:48Z</time>
      </trkpt>
      <trkpt lat="41.74559" lon="9.18415">
        <ele>733.143</ele>
        <time>2015-08-29T07:57:54Z</time>
      </trkpt>
      <trkpt lat="41.74556" lon="9.18431">
        <ele>734.104</ele>
        <time>2015-08-29T07:57:58Z</time>
      </trkpt>
      <trkpt lat="41.74555" lon="9.18446">
        <ele>732.181</ele>
        <time>2015-08-29T07:58:03Z</time>
      </trkpt>
      <trkpt lat="41.74554" lon="9.18454">
        <ele>731.22</ele>
        <time>2015-08-29T07:58:06Z</time>
      </trkpt>
      <trkpt lat="41.74582" lon="9.18455">
        <ele>736.027</ele>
        <time>2015-08-29T07:58:11Z</time>
      </trkpt>
      <trkpt lat="41.74585" lon="9.18455">
        <ele>735.065</ele>
        <time>2015-08-29T07:58:14Z</time>
      </trkpt>
      <trkpt lat="41.74602" lon="9.18444">
        <ele>736.027</ele>
        <time>2015-08-29T07:58:21Z</time>
      </trkpt>
      <trkpt lat="41.74614" lon="9.18438">
        <ele>739.391</ele>
        <time>2015-08-29T07:58:26Z</time>
      </trkpt>
      <trkpt lat="41.74627" lon="9.18441">
        <ele>742.275</ele>
        <time>2015-08-29T07:58:32Z</time>
      </trkpt>
      <trkpt lat="41.74643" lon="9.18455">
        <ele>744.198</ele>
        <time>2015-08-29T07:58:38Z</time>
      </trkpt>
      <trkpt lat="41.74664" lon="9.18478">
        <ele>742.756</ele>
        <time>2015-08-29T07:58:48Z</time>
      </trkpt>
      <trkpt lat="41.74676" lon="9.18488">
        <ele>744.198</ele>
        <time>2015-08-29T07:58:54Z</time>
      </trkpt>
      <trkpt lat="41.7469" lon="9.18503">
        <ele>741.794</ele>
        <time>2015-08-29T07:59:02Z</time>
      </trkpt>
      <trkpt lat="41.74698" lon="9.18515">
        <ele>741.794</ele>
        <time>2015-08-29T07:59:08Z</time>
      </trkpt>
      <trkpt lat="41.74705" lon="9.18526">
        <ele>743.236</ele>
        <time>2015-08-29T07:59:14Z</time>
      </trkpt>
      <trkpt lat="41.74715" lon="9.1854">
        <ele>743.717</ele>
        <time>2015-08-29T07:59:22Z</time>
      </trkpt>
      <trkpt lat="41.74722" lon="9.18557">
        <ele>742.756</ele>
        <time>2015-08-29T07:59:29Z</time>
      </trkpt>
      <trkpt lat="41.74727" lon="9.18572">
        <ele>742.275</ele>
        <time>2015-08-29T07:59:36Z</time>
      </trkpt>
      <trkpt lat="41.74737" lon="9.18585">
        <ele>741.794</ele>
        <time>2015-08-29T07:59:44Z</time>
      </trkpt>
      <trkpt lat="41.74748" lon="9.18595">
        <ele>745.159</ele>
        <time>2015-08-29T07:59:51Z</time>
      </trkpt>
      <trkpt lat="41.74761" lon="9.18609">
        <ele>748.043</ele>
        <time>2015-08-29T07:59:59Z</time>
      </trkpt>
      <trkpt lat="41.7477" lon="9.18624">
        <ele>749.485</ele>
        <time>2015-08-29T08:00:07Z</time>
      </trkpt>
      <trkpt lat="41.74777" lon="9.18641">
        <ele>753.811</ele>
        <time>2015-08-29T08:00:15Z</time>
      </trkpt>
      <trkpt lat="41.74786" lon="9.18653">
        <ele>756.695</ele>
        <time>2015-08-29T08:00:24Z</time>
      </trkpt>
      <trkpt lat="41.74795" lon="9.18666">
        <ele>756.695</ele>
        <time>2015-08-29T08:00:32Z</time>
      </trkpt>
      <trkpt lat="41.74798" lon="9.18686">
        <ele>755.253</ele>
        <time>2015-08-29T08:00:40Z</time>
      </trkpt>
      <trkpt lat="41.74801" lon="9.18705">
        <ele>755.253</ele>
        <time>2015-08-29T08:00:48Z</time>
      </trkpt>
      <trkpt lat="41.74802" lon="9.18726">
        <ele>758.617</ele>
        <time>2015-08-29T08:00:57Z</time>
      </trkpt>
      <trkpt lat="41.74803" lon="9.18744">
        <ele>759.098</ele>
        <time>2015-08-29T08:01:05Z</time>
      </trkpt>
      <trkpt lat="41.74804" lon="9.18762">
        <ele>758.137</ele>
        <time>2015-08-29T08:01:13Z</time>
      </trkpt>
      <trkpt lat="41.74805" lon="9.18766">
        <ele>757.656</ele>
        <time>2015-08-29T08:01:15Z</time>
      </trkpt>
      <trkpt lat="41.74805" lon="9.18774">
        <ele>756.695</ele>
        <time>2015-08-29T08:01:21Z</time>
      </trkpt>
      <trkpt lat="41.74807" lon="9.18793">
        <ele>755.253</ele>
        <time>2015-08-29T08:01:28Z</time>
      </trkpt>
      <trkpt lat="41.74809" lon="9.18818">
        <ele>754.292</ele>
        <time>2015-08-29T08:01:34Z</time>
      </trkpt>
      <trkpt lat="41.74816" lon="9.1884">
        <ele>753.33</ele>
        <time>2015-08-29T08:01:39Z</time>
      </trkpt>
      <trkpt lat="41.74835" lon="9.18872">
        <ele>751.408</ele>
        <time>2015-08-29T08:01:48Z</time>
      </trkpt>
      <trkpt lat="41.74844" lon="9.18887">
        <ele>750.447</ele>
        <time>2015-08-29T08:01:52Z</time>
      </trkpt>
      <trkpt lat="41.74855" lon="9.18902">
        <ele>749.966</ele>
        <time>2015-08-29T08:01:56Z</time>
      </trkpt>
      <trkpt lat="41.74876" lon="9.18931">
        <ele>749.485</ele>
        <time>2015-08-29T08:02:04Z</time>
      </trkpt>
      <trkpt lat="41.74897" lon="9.1896">
        <ele>749.004</ele>
        <time>2015-08-29T08:02:11Z</time>
      </trkpt>
      <trkpt lat="41.74901" lon="9.1897">
        <ele>749.004</ele>
        <time>2015-08-29T08:02:15Z</time>
      </trkpt>
      <trkpt lat="41.74903" lon="9.18976">
        <ele>749.966</ele>
        <time>2015-08-29T08:02:22Z</time>
      </trkpt>
      <trkpt lat="41.74905" lon="9.18984">
        <ele>752.85</ele>
        <time>2015-08-29T08:02:28Z</time>
      </trkpt>
      <trkpt lat="41.74905" lon="9.18984">
        <ele>753.33</ele>
        <time>2015-08-29T08:02:29Z</time>
      </trkpt>
      <trkpt lat="41.74905" lon="9.18984">
        <ele>752.369</ele>
        <time>2015-08-29T08:02:35Z</time>
      </trkpt>
      <trkpt lat="41.74905" lon="9.19016">
        <ele>746.601</ele>
        <time>2015-08-29T08:03:14Z</time>
      </trkpt>
      <trkpt lat="41.74906" lon="9.19018">
        <ele>746.601</ele>
        <time>2015-08-29T08:03:22Z</time>
      </trkpt>
      <trkpt lat="41.74906" lon="9.19018">
        <ele>745.159</ele>
        <time>2015-08-29T08:03:30Z</time>
      </trkpt>
      <trkpt lat="41.74906" lon="9.19018">
        <ele>744.678</ele>
        <time>2015-08-29T08:03:32Z</time>
      </trkpt>
      <trkpt lat="41.74939" lon="9.1903">
        <ele>749.004</ele>
        <time>2015-08-29T08:04:37Z</time>
      </trkpt>
      <trkpt lat="41.7494" lon="9.19041">
        <ele>745.64</ele>
        <time>2015-08-29T08:04:43Z</time>
      </trkpt>
      <trkpt lat="41.74939" lon="9.19059">
        <ele>745.64</ele>
        <time>2015-08-29T08:04:51Z</time>
      </trkpt>
      <trkpt lat="41.7494" lon="9.19069">
        <ele>746.12</ele>
        <time>2015-08-29T08:04:55Z</time>
      </trkpt>
      <trkpt lat="41.74943" lon="9.19074">
        <ele>750.447</ele>
        <time>2015-08-29T08:04:59Z</time>
      </trkpt>
      <trkpt lat="41.74949" lon="9.19077">
        <ele>754.772</ele>
        <time>2015-08-29T08:05:05Z</time>
      </trkpt>
      <trkpt lat="41.74949" lon="9.19077">
        <ele>755.253</ele>
        <time>2015-08-29T08:05:06Z</time>
      </trkpt>
      <trkpt lat="41.74954" lon="9.19076">
        <ele>756.695</ele>
        <time>2015-08-29T08:05:34Z</time>
      </trkpt>
      <trkpt lat="41.74966" lon="9.19073">
        <ele>751.888</ele>
        <time>2015-08-29T08:06:03Z</time>
      </trkpt>
      <trkpt lat="41.74966" lon="9.19073">
        <ele>750.447</ele>
        <time>2015-08-29T08:06:06Z</time>
      </trkpt>
      <trkpt lat="41.74983" lon="9.19076">
        <ele>760.059</ele>
        <time>2015-08-29T08:06:39Z</time>
      </trkpt>
      <trkpt lat="41.74999" lon="9.19088">
        <ele>764.866</ele>
        <time>2015-08-29T08:06:49Z</time>
      </trkpt>
      <trkpt lat="41.75011" lon="9.19094">
        <ele>761.021</ele>
        <time>2015-08-29T08:06:57Z</time>
      </trkpt>
      <trkpt lat="41.75018" lon="9.19098">
        <ele>760.059</ele>
        <time>2015-08-29T08:07:04Z</time>
      </trkpt>
      <trkpt lat="41.7502" lon="9.19099">
        <ele>760.54</ele>
        <time>2015-08-29T08:07:09Z</time>
      </trkpt>
      <trkpt lat="41.75043" lon="9.19107">
        <ele>762.463</ele>
        <time>2015-08-29T08:09:18Z</time>
      </trkpt>
      <trkpt lat="41.75054" lon="9.1911">
        <ele>763.905</ele>
        <time>2015-08-29T08:09:25Z</time>
      </trkpt>
      <trkpt lat="41.75068" lon="9.19113">
        <ele>763.905</ele>
        <time>2015-08-29T08:09:34Z</time>
      </trkpt>
      <trkpt lat="41.75078" lon="9.19116">
        <ele>763.905</ele>
        <time>2015-08-29T08:09:41Z</time>
      </trkpt>
      <trkpt lat="41.75094" lon="9.19121">
        <ele>763.424</ele>
        <time>2015-08-29T08:09:49Z</time>
      </trkpt>
      <trkpt lat="41.75111" lon="9.19136">
        <ele>762.943</ele>
        <time>2015-08-29T08:09:56Z</time>
      </trkpt>
      <trkpt lat="41.7512" lon="9.1915">
        <ele>762.943</ele>
        <time>2015-08-29T08:10:01Z</time>
      </trkpt>
      <trkpt lat="41.75121" lon="9.19168">
        <ele>766.308</ele>
        <time>2015-08-29T08:10:07Z</time>
      </trkpt>
      <trkpt lat="41.7513" lon="9.19188">
        <ele>768.231</ele>
        <time>2015-08-29T08:10:14Z</time>
      </trkpt>
      <trkpt lat="41.75142" lon="9.1919">
        <ele>772.076</ele>
        <time>2015-08-29T08:10:21Z</time>
      </trkpt>
      <trkpt lat="41.75153" lon="9.19191">
        <ele>771.115</ele>
        <time>2015-08-29T08:10:26Z</time>
      </trkpt>
      <trkpt lat="41.75163" lon="9.19194">
        <ele>771.115</ele>
        <time>2015-08-29T08:10:32Z</time>
      </trkpt>
      <trkpt lat="41.7517" lon="9.19197">
        <ele>771.115</ele>
        <time>2015-08-29T08:10:37Z</time>
      </trkpt>
      <trkpt lat="41.75179" lon="9.19211">
        <ele>769.192</ele>
        <time>2015-08-29T08:10:43Z</time>
      </trkpt>
      <trkpt lat="41.75188" lon="9.19231">
        <ele>768.711</ele>
        <time>2015-08-29T08:10:49Z</time>
      </trkpt>
      <trkpt lat="41.752" lon="9.19241">
        <ele>768.711</ele>
        <time>2015-08-29T08:10:55Z</time>
      </trkpt>
      <trkpt lat="41.75209" lon="9.19244">
        <ele>768.711</ele>
        <time>2015-08-29T08:11:02Z</time>
      </trkpt>
      <trkpt lat="41.75209" lon="9.19244">
        <ele>772.076</ele>
        <time>2015-08-29T08:11:07Z</time>
      </trkpt>
      <trkpt lat="41.75225" lon="9.19295">
        <ele>773.999</ele>
        <time>2015-08-29T08:11:15Z</time>
      </trkpt>
      <trkpt lat="41.75228" lon="9.19322">
        <ele>771.595</ele>
        <time>2015-08-29T08:11:22Z</time>
      </trkpt>
      <trkpt lat="41.7523" lon="9.19352">
        <ele>771.115</ele>
        <time>2015-08-29T08:11:29Z</time>
      </trkpt>
      <trkpt lat="41.75224" lon="9.19377">
        <ele>772.557</ele>
        <time>2015-08-29T08:11:35Z</time>
      </trkpt>
      <trkpt lat="41.75209" lon="9.19401">
        <ele>776.402</ele>
        <time>2015-08-29T08:11:41Z</time>
      </trkpt>
      <trkpt lat="41.75194" lon="9.19416">
        <ele>775.44</ele>
        <time>2015-08-29T08:11:46Z</time>
      </trkpt>
      <trkpt lat="41.75175" lon="9.19425">
        <ele>774.479</ele>
        <time>2015-08-29T08:11:52Z</time>
      </trkpt>
      <trkpt lat="41.75156" lon="9.19428">
        <ele>773.518</ele>
        <time>2015-08-29T08:11:57Z</time>
      </trkpt>
      <trkpt lat="41.75137" lon="9.19421">
        <ele>773.518</ele>
        <time>2015-08-29T08:12:03Z</time>
      </trkpt>
      <trkpt lat="41.75113" lon="9.19405">
        <ele>775.44</ele>
        <time>2015-08-29T08:12:11Z</time>
      </trkpt>
      <trkpt lat="41.75092" lon="9.19394">
        <ele>773.037</ele>
        <time>2015-08-29T08:12:17Z</time>
      </trkpt>
      <trkpt lat="41.75071" lon="9.19397">
        <ele>771.595</ele>
        <time>2015-08-29T08:12:23Z</time>
      </trkpt>
      <trkpt lat="41.75054" lon="9.19407">
        <ele>772.557</ele>
        <time>2015-08-29T08:12:28Z</time>
      </trkpt>
      <trkpt lat="41.75025" lon="9.19436">
        <ele>776.402</ele>
        <time>2015-08-29T08:12:36Z</time>
      </trkpt>
      <trkpt lat="41.75007" lon="9.1946">
        <ele>777.363</ele>
        <time>2015-08-29T08:12:42Z</time>
      </trkpt>
      <trkpt lat="41.74985" lon="9.19487">
        <ele>779.766</ele>
        <time>2015-08-29T08:12:49Z</time>
      </trkpt>
      <trkpt lat="41.74975" lon="9.19499">
        <ele>780.247</ele>
        <time>2015-08-29T08:12:54Z</time>
      </trkpt>
      <trkpt lat="41.74961" lon="9.19515">
        <ele>778.324</ele>
        <time>2015-08-29T08:12:59Z</time>
      </trkpt>
      <trkpt lat="41.74938" lon="9.1954">
        <ele>773.999</ele>
        <time>2015-08-29T08:13:06Z</time>
      </trkpt>
      <trkpt lat="41.74924" lon="9.19556">
        <ele>776.402</ele>
        <time>2015-08-29T08:13:11Z</time>
      </trkpt>
      <trkpt lat="41.74903" lon="9.19578">
        <ele>778.805</ele>
        <time>2015-08-29T08:13:16Z</time>
      </trkpt>
      <trkpt lat="41.74887" lon="9.19597">
        <ele>779.286</ele>
        <time>2015-08-29T08:13:21Z</time>
      </trkpt>
      <trkpt lat="41.74882" lon="9.19604">
        <ele>778.324</ele>
        <time>2015-08-29T08:13:25Z</time>
      </trkpt>
      <trkpt lat="41.74855" lon="9.19648">
        <ele>779.286</ele>
        <time>2015-08-29T08:13:31Z</time>
      </trkpt>
      <trkpt lat="41.74855" lon="9.19648">
        <ele>777.844</ele>
        <time>2015-08-29T08:13:35Z</time>
      </trkpt>
      <trkpt lat="41.74895" lon="9.19587">
        <ele>780.247</ele>
        <time>2015-08-29T08:14:39Z</time>
      </trkpt>
      <trkpt lat="41.74895" lon="9.19587">
        <ele>779.286</ele>
        <time>2015-08-29T08:14:40Z</time>
      </trkpt>
      <trkpt lat="41.74895" lon="9.19587">
        <ele>774.479</ele>
        <time>2015-08-29T08:14:51Z</time>
      </trkpt>
      <trkpt lat="41.74899" lon="9.19583">
        <ele>773.037</ele>
        <time>2015-08-29T08:14:57Z</time>
      </trkpt>
      <trkpt lat="41.74905" lon="9.19577">
        <ele>773.037</ele>
        <time>2015-08-29T08:15:01Z</time>
      </trkpt>
      <trkpt lat="41.74955" lon="9.19604">
        <ele>769.673</ele>
        <time>2015-08-29T08:15:07Z</time>
      </trkpt>
      <trkpt lat="41.74964" lon="9.19643">
        <ele>767.75</ele>
        <time>2015-08-29T08:15:13Z</time>
      </trkpt>
      <trkpt lat="41.74967" lon="9.19668">
        <ele>769.192</ele>
        <time>2015-08-29T08:15:18Z</time>
      </trkpt>
      <trkpt lat="41.74973" lon="9.19689">
        <ele>771.115</ele>
        <time>2015-08-29T08:15:24Z</time>
      </trkpt>
      <trkpt lat="41.7498" lon="9.19713">
        <ele>779.286</ele>
        <time>2015-08-29T08:15:30Z</time>
      </trkpt>
      <trkpt lat="41.74981" lon="9.19717">
        <ele>780.728</ele>
        <time>2015-08-29T08:15:32Z</time>
      </trkpt>
      <trkpt lat="41.74986" lon="9.19732">
        <ele>782.651</ele>
        <time>2015-08-29T08:15:37Z</time>
      </trkpt>
      <trkpt lat="41.74991" lon="9.19749">
        <ele>781.209</ele>
        <time>2015-08-29T08:15:43Z</time>
      </trkpt>
      <trkpt lat="41.74991" lon="9.19751">
        <ele>781.209</ele>
        <time>2015-08-29T08:15:44Z</time>
      </trkpt>
      <trkpt lat="41.74996" lon="9.19768">
        <ele>781.209</ele>
        <time>2015-08-29T08:15:53Z</time>
      </trkpt>
      <trkpt lat="41.74997" lon="9.19772">
        <ele>781.689</ele>
        <time>2015-08-29T08:15:55Z</time>
      </trkpt>
      <trkpt lat="41.74998" lon="9.1978">
        <ele>783.131</ele>
        <time>2015-08-29T08:15:59Z</time>
      </trkpt>
      <trkpt lat="41.74996" lon="9.1979">
        <ele>786.015</ele>
        <time>2015-08-29T08:16:06Z</time>
      </trkpt>
      <trkpt lat="41.74995" lon="9.19797">
        <ele>785.534</ele>
        <time>2015-08-29T08:16:08Z</time>
      </trkpt>
      <trkpt lat="41.74995" lon="9.19813">
        <ele>789.38</ele>
        <time>2015-08-29T08:16:13Z</time>
      </trkpt>
      <trkpt lat="41.75004" lon="9.19828">
        <ele>788.899</ele>
        <time>2015-08-29T08:16:18Z</time>
      </trkpt>
      <trkpt lat="41.75013" lon="9.1984">
        <ele>793.225</ele>
        <time>2015-08-29T08:16:23Z</time>
      </trkpt>
      <trkpt lat="41.75025" lon="9.19851">
        <ele>789.86</ele>
        <time>2015-08-29T08:16:29Z</time>
      </trkpt>
      <trkpt lat="41.75034" lon="9.19858">
        <ele>790.341</ele>
        <time>2015-08-29T08:16:34Z</time>
      </trkpt>
      <trkpt lat="41.75052" lon="9.19866">
        <ele>787.457</ele>
        <time>2015-08-29T08:16:41Z</time>
      </trkpt>
      <trkpt lat="41.75066" lon="9.19865">
        <ele>782.651</ele>
        <time>2015-08-29T08:16:46Z</time>
      </trkpt>
      <trkpt lat="41.75084" lon="9.1986">
        <ele>781.209</ele>
        <time>2015-08-29T08:16:53Z</time>
      </trkpt>
      <trkpt lat="41.75099" lon="9.19852">
        <ele>779.766</ele>
        <time>2015-08-29T08:16:59Z</time>
      </trkpt>
      <trkpt lat="41.7511" lon="9.19846">
        <ele>779.766</ele>
        <time>2015-08-29T08:17:04Z</time>
      </trkpt>
      <trkpt lat="41.75118" lon="9.19843">
        <ele>779.766</ele>
        <time>2015-08-29T08:17:07Z</time>
      </trkpt>
      <trkpt lat="41.75133" lon="9.19839">
        <ele>780.247</ele>
        <time>2015-08-29T08:17:14Z</time>
      </trkpt>
      <trkpt lat="41.75138" lon="9.19838">
        <ele>781.209</ele>
        <time>2015-08-29T08:17:16Z</time>
      </trkpt>
      <trkpt lat="41.75155" lon="9.1984">
        <ele>780.728</ele>
        <time>2015-08-29T08:17:22Z</time>
      </trkpt>
      <trkpt lat="41.75174" lon="9.19856">
        <ele>779.286</ele>
        <time>2015-08-29T08:17:29Z</time>
      </trkpt>
      <trkpt lat="41.75186" lon="9.1988">
        <ele>782.17</ele>
        <time>2015-08-29T08:17:36Z</time>
      </trkpt>
      <trkpt lat="41.75194" lon="9.19894">
        <ele>781.689</ele>
        <time>2015-08-29T08:17:41Z</time>
      </trkpt>
      <trkpt lat="41.75203" lon="9.19911">
        <ele>781.209</ele>
        <time>2015-08-29T08:17:47Z</time>
      </trkpt>
      <trkpt lat="41.75212" lon="9.19929">
        <ele>780.728</ele>
        <time>2015-08-29T08:17:53Z</time>
      </trkpt>
      <trkpt lat="41.75225" lon="9.19949">
        <ele>780.728</ele>
        <time>2015-08-29T08:17:59Z</time>
      </trkpt>
      <trkpt lat="41.75245" lon="9.19972">
        <ele>790.341</ele>
        <time>2015-08-29T08:18:07Z</time>
      </trkpt>
      <trkpt lat="41.75254" lon="9.19979">
        <ele>797.07</ele>
        <time>2015-08-29T08:18:12Z</time>
      </trkpt>
      <trkpt lat="41.75262" lon="9.19986">
        <ele>802.838</ele>
        <time>2015-08-29T08:18:17Z</time>
      </trkpt>
      <trkpt lat="41.75271" lon="9.19992">
        <ele>798.032</ele>
        <time>2015-08-29T08:18:23Z</time>
      </trkpt>
      <trkpt lat="41.75276" lon="9.19995">
        <ele>798.032</ele>
        <time>2015-08-29T08:18:29Z</time>
      </trkpt>
      <trkpt lat="41.75276" lon="9.19995">
        <ele>801.396</ele>
        <time>2015-08-29T08:18:32Z</time>
      </trkpt>
      <trkpt lat="41.75289" lon="9.20005">
        <ele>804.28</ele>
        <time>2015-08-29T08:18:39Z</time>
      </trkpt>
      <trkpt lat="41.75301" lon="9.20013">
        <ele>803.319</ele>
        <time>2015-08-29T08:18:47Z</time>
      </trkpt>
      <trkpt lat="41.75312" lon="9.20017">
        <ele>801.877</ele>
        <time>2015-08-29T08:18:54Z</time>
      </trkpt>
      <trkpt lat="41.75322" lon="9.20016">
        <ele>799.474</ele>
        <time>2015-08-29T08:19:00Z</time>
      </trkpt>
      <trkpt lat="41.75339" lon="9.2002">
        <ele>793.225</ele>
        <time>2015-08-29T08:19:05Z</time>
      </trkpt>
      <trkpt lat="41.75346" lon="9.20024">
        <ele>790.822</ele>
        <time>2015-08-29T08:19:07Z</time>
      </trkpt>
      <trkpt lat="41.75362" lon="9.20033">
        <ele>788.418</ele>
        <time>2015-08-29T08:19:12Z</time>
      </trkpt>
      <trkpt lat="41.75372" lon="9.20033">
        <ele>786.015</ele>
        <time>2015-08-29T08:19:16Z</time>
      </trkpt>
      <trkpt lat="41.75394" lon="9.20032">
        <ele>786.496</ele>
        <time>2015-08-29T08:19:21Z</time>
      </trkpt>
      <trkpt lat="41.75411" lon="9.20041">
        <ele>789.38</ele>
        <time>2015-08-29T08:19:26Z</time>
      </trkpt>
      <trkpt lat="41.75426" lon="9.2005">
        <ele>796.109</ele>
        <time>2015-08-29T08:19:32Z</time>
      </trkpt>
      <trkpt lat="41.75446" lon="9.20067">
        <ele>798.993</ele>
        <time>2015-08-29T08:19:40Z</time>
      </trkpt>
      <trkpt lat="41.75452" lon="9.20078">
        <ele>798.512</ele>
        <time>2015-08-29T08:19:46Z</time>
      </trkpt>
      <trkpt lat="41.75456" lon="9.20092">
        <ele>795.628</ele>
        <time>2015-08-29T08:19:53Z</time>
      </trkpt>
      <trkpt lat="41.75459" lon="9.20105">
        <ele>795.147</ele>
        <time>2015-08-29T08:19:59Z</time>
      </trkpt>
      <trkpt lat="41.75462" lon="9.20115">
        <ele>796.109</ele>
        <time>2015-08-29T08:20:05Z</time>
      </trkpt>
      <trkpt lat="41.75464" lon="9.20118">
        <ele>797.07</ele>
        <time>2015-08-29T08:20:07Z</time>
      </trkpt>
      <trkpt lat="41.75466" lon="9.20124">
        <ele>797.551</ele>
        <time>2015-08-29T08:20:11Z</time>
      </trkpt>
      <trkpt lat="41.75475" lon="9.2014">
        <ele>798.993</ele>
        <time>2015-08-29T08:20:16Z</time>
      </trkpt>
      <trkpt lat="41.75487" lon="9.20155">
        <ele>801.877</ele>
        <time>2015-08-29T08:20:21Z</time>
      </trkpt>
      <trkpt lat="41.75499" lon="9.20174">
        <ele>800.435</ele>
        <time>2015-08-29T08:20:27Z</time>
      </trkpt>
      <trkpt lat="41.75506" lon="9.20187">
        <ele>797.07</ele>
        <time>2015-08-29T08:20:32Z</time>
      </trkpt>
      <trkpt lat="41.7551" lon="9.20201">
        <ele>798.993</ele>
        <time>2015-08-29T08:20:37Z</time>
      </trkpt>
      <trkpt lat="41.75514" lon="9.2022">
        <ele>801.877</ele>
        <time>2015-08-29T08:20:44Z</time>
      </trkpt>
      <trkpt lat="41.75516" lon="9.20233">
        <ele>802.357</ele>
        <time>2015-08-29T08:20:48Z</time>
      </trkpt>
      <trkpt lat="41.75525" lon="9.2026">
        <ele>803.8</ele>
        <time>2015-08-29T08:20:58Z</time>
      </trkpt>
      <trkpt lat="41.75532" lon="9.20274">
        <ele>808.606</ele>
        <time>2015-08-29T08:21:04Z</time>
      </trkpt>
      <trkpt lat="41.75538" lon="9.20286">
        <ele>811.971</ele>
        <time>2015-08-29T08:21:09Z</time>
      </trkpt>
      <trkpt lat="41.75541" lon="9.20294">
        <ele>813.893</ele>
        <time>2015-08-29T08:21:13Z</time>
      </trkpt>
      <trkpt lat="41.75545" lon="9.20308">
        <ele>811.49</ele>
        <time>2015-08-29T08:21:20Z</time>
      </trkpt>
      <trkpt lat="41.75548" lon="9.20315">
        <ele>811.971</ele>
        <time>2015-08-29T08:21:24Z</time>
      </trkpt>
      <trkpt lat="41.75551" lon="9.20326">
        <ele>811.49</ele>
        <time>2015-08-29T08:21:30Z</time>
      </trkpt>
      <trkpt lat="41.75553" lon="9.20335">
        <ele>817.258</ele>
        <time>2015-08-29T08:21:36Z</time>
      </trkpt>
      <trkpt lat="41.75554" lon="9.20341">
        <ele>820.623</ele>
        <time>2015-08-29T08:21:39Z</time>
      </trkpt>
      <trkpt lat="41.75559" lon="9.20363">
        <ele>823.507</ele>
        <time>2015-08-29T08:21:47Z</time>
      </trkpt>
      <trkpt lat="41.75561" lon="9.20376">
        <ele>829.755</ele>
        <time>2015-08-29T08:21:53Z</time>
      </trkpt>
      <trkpt lat="41.75563" lon="9.20388">
        <ele>826.871</ele>
        <time>2015-08-29T08:22:00Z</time>
      </trkpt>
      <trkpt lat="41.75565" lon="9.204">
        <ele>827.832</ele>
        <time>2015-08-29T08:22:07Z</time>
      </trkpt>
      <trkpt lat="41.75568" lon="9.20415">
        <ele>829.274</ele>
        <time>2015-08-29T08:22:12Z</time>
      </trkpt>
      <trkpt lat="41.7557" lon="9.20421">
        <ele>829.755</ele>
        <time>2015-08-29T08:22:15Z</time>
      </trkpt>
      <trkpt lat="41.75572" lon="9.20431">
        <ele>827.352</ele>
        <time>2015-08-29T08:22:19Z</time>
      </trkpt>
      <trkpt lat="41.75574" lon="9.20435">
        <ele>823.987</ele>
        <time>2015-08-29T08:22:22Z</time>
      </trkpt>
      <trkpt lat="41.75574" lon="9.20438">
        <ele>823.026</ele>
        <time>2015-08-29T08:22:26Z</time>
      </trkpt>
      <trkpt lat="41.75577" lon="9.20448">
        <ele>824.948</ele>
        <time>2015-08-29T08:22:48Z</time>
      </trkpt>
      <trkpt lat="41.75578" lon="9.20452">
        <ele>826.871</ele>
        <time>2015-08-29T08:22:50Z</time>
      </trkpt>
      <trkpt lat="41.75579" lon="9.20459">
        <ele>825.429</ele>
        <time>2015-08-29T08:22:54Z</time>
      </trkpt>
      <trkpt lat="41.75581" lon="9.20465">
        <ele>823.507</ele>
        <time>2015-08-29T08:22:59Z</time>
      </trkpt>
      <trkpt lat="41.75585" lon="9.20479">
        <ele>827.352</ele>
        <time>2015-08-29T08:23:05Z</time>
      </trkpt>
      <trkpt lat="41.75586" lon="9.20484">
        <ele>830.236</ele>
        <time>2015-08-29T08:23:09Z</time>
      </trkpt>
      <trkpt lat="41.7559" lon="9.20495">
        <ele>830.717</ele>
        <time>2015-08-29T08:23:16Z</time>
      </trkpt>
      <trkpt lat="41.75592" lon="9.20501">
        <ele>831.197</ele>
        <time>2015-08-29T08:23:19Z</time>
      </trkpt>
      <trkpt lat="41.75595" lon="9.20508">
        <ele>829.755</ele>
        <time>2015-08-29T08:23:24Z</time>
      </trkpt>
      <trkpt lat="41.75595" lon="9.20516">
        <ele>827.352</ele>
        <time>2015-08-29T08:23:29Z</time>
      </trkpt>
      <trkpt lat="41.75595" lon="9.20533">
        <ele>827.832</ele>
        <time>2015-08-29T08:23:37Z</time>
      </trkpt>
      <trkpt lat="41.75594" lon="9.2054">
        <ele>830.236</ele>
        <time>2015-08-29T08:23:41Z</time>
      </trkpt>
      <trkpt lat="41.75593" lon="9.20551">
        <ele>834.081</ele>
        <time>2015-08-29T08:23:48Z</time>
      </trkpt>
      <trkpt lat="41.75592" lon="9.20557">
        <ele>836.484</ele>
        <time>2015-08-29T08:23:52Z</time>
      </trkpt>
      <trkpt lat="41.75588" lon="9.20576">
        <ele>837.446</ele>
        <time>2015-08-29T08:24:00Z</time>
      </trkpt>
      <trkpt lat="41.75585" lon="9.20592">
        <ele>843.213</ele>
        <time>2015-08-29T08:24:07Z</time>
      </trkpt>
      <trkpt lat="41.75584" lon="9.20607">
        <ele>844.656</ele>
        <time>2015-08-29T08:24:12Z</time>
      </trkpt>
      <trkpt lat="41.75584" lon="9.20618">
        <ele>842.252</ele>
        <time>2015-08-29T08:24:17Z</time>
      </trkpt>
      <trkpt lat="41.75585" lon="9.2063">
        <ele>841.291</ele>
        <time>2015-08-29T08:24:24Z</time>
      </trkpt>
      <trkpt lat="41.75592" lon="9.20642">
        <ele>848.02</ele>
        <time>2015-08-29T08:24:30Z</time>
      </trkpt>
      <trkpt lat="41.756" lon="9.20651">
        <ele>850.904</ele>
        <time>2015-08-29T08:24:37Z</time>
      </trkpt>
      <trkpt lat="41.756" lon="9.20651">
        <ele>849.943</ele>
        <time>2015-08-29T08:24:39Z</time>
      </trkpt>
      <trkpt lat="41.756" lon="9.20651">
        <ele>854.749</ele>
        <time>2015-08-29T08:25:40Z</time>
      </trkpt>
      <trkpt lat="41.756" lon="9.20651">
        <ele>845.136</ele>
        <time>2015-08-29T08:25:46Z</time>
      </trkpt>
      <trkpt lat="41.75606" lon="9.20659">
        <ele>844.175</ele>
        <time>2015-08-29T08:25:48Z</time>
      </trkpt>
      <trkpt lat="41.75609" lon="9.20667">
        <ele>844.175</ele>
        <time>2015-08-29T08:25:54Z</time>
      </trkpt>
      <trkpt lat="41.75609" lon="9.20667">
        <ele>845.136</ele>
        <time>2015-08-29T08:25:59Z</time>
      </trkpt>
      <trkpt lat="41.75615" lon="9.20684">
        <ele>841.291</ele>
        <time>2015-08-29T08:27:14Z</time>
      </trkpt>
      <trkpt lat="41.75616" lon="9.20686">
        <ele>841.291</ele>
        <time>2015-08-29T08:27:16Z</time>
      </trkpt>
      <trkpt lat="41.75617" lon="9.2069">
        <ele>842.733</ele>
        <time>2015-08-29T08:27:22Z</time>
      </trkpt>
      <trkpt lat="41.75617" lon="9.2069">
        <ele>841.771</ele>
        <time>2015-08-29T08:27:23Z</time>
      </trkpt>
      <trkpt lat="41.75619" lon="9.20703">
        <ele>842.733</ele>
        <time>2015-08-29T08:27:35Z</time>
      </trkpt>
      <trkpt lat="41.75621" lon="9.20711">
        <ele>845.136</ele>
        <time>2015-08-29T08:27:40Z</time>
      </trkpt>
      <trkpt lat="41.75624" lon="9.20723">
        <ele>852.346</ele>
        <time>2015-08-29T08:27:47Z</time>
      </trkpt>
      <trkpt lat="41.75624" lon="9.20725">
        <ele>853.788</ele>
        <time>2015-08-29T08:27:48Z</time>
      </trkpt>
      <trkpt lat="41.75632" lon="9.20737">
        <ele>857.153</ele>
        <time>2015-08-29T08:27:52Z</time>
      </trkpt>
      <trkpt lat="41.7564" lon="9.20742">
        <ele>857.153</ele>
        <time>2015-08-29T08:27:55Z</time>
      </trkpt>
      <trkpt lat="41.75649" lon="9.20746">
        <ele>860.517</ele>
        <time>2015-08-29T08:28:02Z</time>
      </trkpt>
      <trkpt lat="41.75655" lon="9.20749">
        <ele>860.517</ele>
        <time>2015-08-29T08:28:09Z</time>
      </trkpt>
      <trkpt lat="41.75662" lon="9.20753">
        <ele>860.517</ele>
        <time>2015-08-29T08:28:15Z</time>
      </trkpt>
      <trkpt lat="41.75662" lon="9.20753">
        <ele>860.037</ele>
        <time>2015-08-29T08:28:16Z</time>
      </trkpt>
      <trkpt lat="41.75662" lon="9.20753">
        <ele>861.479</ele>
        <time>2015-08-29T08:28:35Z</time>
      </trkpt>
      <trkpt lat="41.75662" lon="9.20753">
        <ele>862.44</ele>
        <time>2015-08-29T08:28:37Z</time>
      </trkpt>
      <trkpt lat="41.75662" lon="9.20753">
        <ele>859.556</ele>
        <time>2015-08-29T08:28:52Z</time>
      </trkpt>
      <trkpt lat="41.75662" lon="9.20753">
        <ele>859.075</ele>
        <time>2015-08-29T08:28:53Z</time>
      </trkpt>
      <trkpt lat="41.75687" lon="9.20775">
        <ele>867.247</ele>
        <time>2015-08-29T08:29:09Z</time>
      </trkpt>
      <trkpt lat="41.75696" lon="9.20784">
        <ele>866.285</ele>
        <time>2015-08-29T08:29:17Z</time>
      </trkpt>
      <trkpt lat="41.75705" lon="9.20793">
        <ele>861.479</ele>
        <time>2015-08-29T08:29:23Z</time>
      </trkpt>
      <trkpt lat="41.75716" lon="9.20809">
        <ele>860.517</ele>
        <time>2015-08-29T08:29:31Z</time>
      </trkpt>
      <trkpt lat="41.75722" lon="9.20826">
        <ele>853.307</ele>
        <time>2015-08-29T08:29:37Z</time>
      </trkpt>
      <trkpt lat="41.75731" lon="9.2085">
        <ele>848.02</ele>
        <time>2015-08-29T08:29:46Z</time>
      </trkpt>
      <trkpt lat="41.75732" lon="9.20855">
        <ele>847.54</ele>
        <time>2015-08-29T08:29:48Z</time>
      </trkpt>
      <trkpt lat="41.75733" lon="9.20873">
        <ele>848.501</ele>
        <time>2015-08-29T08:29:55Z</time>
      </trkpt>
      <trkpt lat="41.75732" lon="9.20896">
        <ele>853.307</ele>
        <time>2015-08-29T08:30:01Z</time>
      </trkpt>
      <trkpt lat="41.75748" lon="9.20909">
        <ele>855.711</ele>
        <time>2015-08-29T08:30:05Z</time>
      </trkpt>
      <trkpt lat="41.75762" lon="9.20901">
        <ele>856.191</ele>
        <time>2015-08-29T08:30:09Z</time>
      </trkpt>
      <trkpt lat="41.75781" lon="9.20892">
        <ele>858.114</ele>
        <time>2015-08-29T08:30:14Z</time>
      </trkpt>
      <trkpt lat="41.75804" lon="9.20876">
        <ele>861.959</ele>
        <time>2015-08-29T08:30:20Z</time>
      </trkpt>
      <trkpt lat="41.75812" lon="9.20869">
        <ele>861.479</ele>
        <time>2015-08-29T08:30:24Z</time>
      </trkpt>
      <trkpt lat="41.75823" lon="9.20856">
        <ele>859.556</ele>
        <time>2015-08-29T08:30:29Z</time>
      </trkpt>
      <trkpt lat="41.75827" lon="9.2085">
        <ele>861.479</ele>
        <time>2015-08-29T08:30:34Z</time>
      </trkpt>
      <trkpt lat="41.75837" lon="9.20838">
        <ele>857.633</ele>
        <time>2015-08-29T08:30:41Z</time>
      </trkpt>
      <trkpt lat="41.75845" lon="9.20826">
        <ele>856.672</ele>
        <time>2015-08-29T08:30:47Z</time>
      </trkpt>
      <trkpt lat="41.75854" lon="9.20815">
        <ele>857.153</ele>
        <time>2015-08-29T08:30:53Z</time>
      </trkpt>
      <trkpt lat="41.75869" lon="9.20802">
        <ele>856.672</ele>
        <time>2015-08-29T08:31:01Z</time>
      </trkpt>
      <trkpt lat="41.75878" lon="9.20798">
        <ele>860.037</ele>
        <time>2015-08-29T08:31:07Z</time>
      </trkpt>
      <trkpt lat="41.75878" lon="9.20798">
        <ele>862.921</ele>
        <time>2015-08-29T08:31:10Z</time>
      </trkpt>
      <trkpt lat="41.75878" lon="9.20798">
        <ele>863.882</ele>
        <time>2015-08-29T08:31:22Z</time>
      </trkpt>
      <trkpt lat="41.75878" lon="9.20798">
        <ele>862.44</ele>
        <time>2015-08-29T08:31:31Z</time>
      </trkpt>
      <trkpt lat="41.75878" lon="9.20798">
        <ele>861.959</ele>
        <time>2015-08-29T08:31:34Z</time>
      </trkpt>
      <trkpt lat="41.75878" lon="9.20798">
        <ele>859.556</ele>
        <time>2015-08-29T08:31:38Z</time>
      </trkpt>
      <trkpt lat="41.75906" lon="9.20775">
        <ele>856.672</ele>
        <time>2015-08-29T08:31:44Z</time>
      </trkpt>
      <trkpt lat="41.75922" lon="9.20768">
        <ele>856.672</ele>
        <time>2015-08-29T08:31:49Z</time>
      </trkpt>
      <trkpt lat="41.75927" lon="9.20765">
        <ele>855.23</ele>
        <time>2015-08-29T08:31:54Z</time>
      </trkpt>
      <trkpt lat="41.75924" lon="9.2077">
        <ele>855.23</ele>
        <time>2015-08-29T08:32:02Z</time>
      </trkpt>
      <trkpt lat="41.7592" lon="9.20777">
        <ele>855.711</ele>
        <time>2015-08-29T08:32:07Z</time>
      </trkpt>
      <trkpt lat="41.7592" lon="9.20777">
        <ele>857.633</ele>
        <time>2015-08-29T08:32:14Z</time>
      </trkpt>
      <trkpt lat="41.7592" lon="9.20777">
        <ele>856.672</ele>
        <time>2015-08-29T08:32:22Z</time>
      </trkpt>
      <trkpt lat="41.7592" lon="9.20777">
        <ele>856.191</ele>
        <time>2015-08-29T08:32:28Z</time>
      </trkpt>
      <trkpt lat="41.7592" lon="9.20777">
        <ele>857.633</ele>
        <time>2015-08-29T08:32:32Z</time>
      </trkpt>
      <trkpt lat="41.7592" lon="9.20777">
        <ele>858.594</ele>
        <time>2015-08-29T08:32:35Z</time>
      </trkpt>
      <trkpt lat="41.7592" lon="9.20777">
        <ele>859.556</ele>
        <time>2015-08-29T08:32:39Z</time>
      </trkpt>
      <trkpt lat="41.75905" lon="9.20805">
        <ele>860.517</ele>
        <time>2015-08-29T08:32:47Z</time>
      </trkpt>
      <trkpt lat="41.75902" lon="9.20821">
        <ele>863.401</ele>
        <time>2015-08-29T08:32:57Z</time>
      </trkpt>
      <trkpt lat="41.75902" lon="9.20821">
        <ele>865.324</ele>
        <time>2015-08-29T08:33:06Z</time>
      </trkpt>
      <trkpt lat="41.75902" lon="9.20821">
        <ele>865.324</ele>
        <time>2015-08-29T08:33:12Z</time>
      </trkpt>
      <trkpt lat="41.75902" lon="9.20821">
        <ele>867.247</ele>
        <time>2015-08-29T08:33:17Z</time>
      </trkpt>
      <trkpt lat="41.75926" lon="9.20831">
        <ele>870.611</ele>
        <time>2015-08-29T08:34:00Z</time>
      </trkpt>
      <trkpt lat="41.75936" lon="9.20826">
        <ele>870.611</ele>
        <time>2015-08-29T08:34:07Z</time>
      </trkpt>
      <trkpt lat="41.75939" lon="9.20825">
        <ele>871.572</ele>
        <time>2015-08-29T08:34:10Z</time>
      </trkpt>
      <trkpt lat="41.75946" lon="9.20821">
        <ele>873.495</ele>
        <time>2015-08-29T08:34:16Z</time>
      </trkpt>
      <trkpt lat="41.75959" lon="9.20814">
        <ele>871.572</ele>
        <time>2015-08-29T08:34:23Z</time>
      </trkpt>
      <trkpt lat="41.75971" lon="9.20812">
        <ele>872.053</ele>
        <time>2015-08-29T08:34:29Z</time>
      </trkpt>
      <trkpt lat="41.75976" lon="9.20828">
        <ele>870.13</ele>
        <time>2015-08-29T08:34:36Z</time>
      </trkpt>
      <trkpt lat="41.75975" lon="9.20836">
        <ele>870.13</ele>
        <time>2015-08-29T08:34:41Z</time>
      </trkpt>
      <trkpt lat="41.75972" lon="9.20853">
        <ele>875.417</ele>
        <time>2015-08-29T08:34:50Z</time>
      </trkpt>
      <trkpt lat="41.75971" lon="9.20868">
        <ele>876.379</ele>
        <time>2015-08-29T08:34:56Z</time>
      </trkpt>
      <trkpt lat="41.75971" lon="9.20878">
        <ele>877.341</ele>
        <time>2015-08-29T08:35:01Z</time>
      </trkpt>
      <trkpt lat="41.75971" lon="9.20888">
        <ele>878.782</ele>
        <time>2015-08-29T08:35:06Z</time>
      </trkpt>
      <trkpt lat="41.75971" lon="9.20905">
        <ele>877.821</ele>
        <time>2015-08-29T08:35:14Z</time>
      </trkpt>
      <trkpt lat="41.75972" lon="9.20921">
        <ele>880.224</ele>
        <time>2015-08-29T08:35:21Z</time>
      </trkpt>
      <trkpt lat="41.7597" lon="9.20938">
        <ele>880.224</ele>
        <time>2015-08-29T08:35:29Z</time>
      </trkpt>
      <trkpt lat="41.75967" lon="9.20948">
        <ele>878.782</ele>
        <time>2015-08-29T08:35:34Z</time>
      </trkpt>
      <trkpt lat="41.75962" lon="9.20954">
        <ele>882.147</ele>
        <time>2015-08-29T08:35:41Z</time>
      </trkpt>
      <trkpt lat="41.75951" lon="9.20959">
        <ele>887.434</ele>
        <time>2015-08-29T08:35:47Z</time>
      </trkpt>
      <trkpt lat="41.75937" lon="9.20968">
        <ele>889.837</ele>
        <time>2015-08-29T08:35:53Z</time>
      </trkpt>
      <trkpt lat="41.7593" lon="9.20978">
        <ele>892.722</ele>
        <time>2015-08-29T08:35:58Z</time>
      </trkpt>
      <trkpt lat="41.75924" lon="9.20988">
        <ele>893.683</ele>
        <time>2015-08-29T08:36:02Z</time>
      </trkpt>
      <trkpt lat="41.7592" lon="9.21001">
        <ele>894.164</ele>
        <time>2015-08-29T08:36:07Z</time>
      </trkpt>
      <trkpt lat="41.75919" lon="9.2101">
        <ele>894.164</ele>
        <time>2015-08-29T08:36:08Z</time>
      </trkpt>
      <trkpt lat="41.75923" lon="9.2103">
        <ele>894.644</ele>
        <time>2015-08-29T08:36:13Z</time>
      </trkpt>
      <trkpt lat="41.75939" lon="9.2106">
        <ele>897.528</ele>
        <time>2015-08-29T08:36:20Z</time>
      </trkpt>
      <trkpt lat="41.75955" lon="9.21067">
        <ele>898.97</ele>
        <time>2015-08-29T08:36:25Z</time>
      </trkpt>
      <trkpt lat="41.75966" lon="9.21069">
        <ele>896.567</ele>
        <time>2015-08-29T08:36:31Z</time>
      </trkpt>
      <trkpt lat="41.75968" lon="9.2107">
        <ele>894.644</ele>
        <time>2015-08-29T08:36:35Z</time>
      </trkpt>
      <trkpt lat="41.75974" lon="9.21071">
        <ele>891.76</ele>
        <time>2015-08-29T08:36:40Z</time>
      </trkpt>
      <trkpt lat="41.7598" lon="9.21073">
        <ele>892.241</ele>
        <time>2015-08-29T08:36:44Z</time>
      </trkpt>
      <trkpt lat="41.75984" lon="9.21076">
        <ele>892.241</ele>
        <time>2015-08-29T08:36:47Z</time>
      </trkpt>
      <trkpt lat="41.75993" lon="9.21088">
        <ele>895.605</ele>
        <time>2015-08-29T08:36:54Z</time>
      </trkpt>
      <trkpt lat="41.75997" lon="9.21101">
        <ele>898.489</ele>
        <time>2015-08-29T08:37:00Z</time>
      </trkpt>
      <trkpt lat="41.75998" lon="9.21105">
        <ele>900.412</ele>
        <time>2015-08-29T08:37:02Z</time>
      </trkpt>
      <trkpt lat="41.75997" lon="9.21127">
        <ele>896.086</ele>
        <time>2015-08-29T08:37:09Z</time>
      </trkpt>
      <trkpt lat="41.75996" lon="9.21149">
        <ele>891.76</ele>
        <time>2015-08-29T08:37:16Z</time>
      </trkpt>
      <trkpt lat="41.75996" lon="9.21162">
        <ele>890.318</ele>
        <time>2015-08-29T08:37:22Z</time>
      </trkpt>
      <trkpt lat="41.75997" lon="9.21176">
        <ele>893.683</ele>
        <time>2015-08-29T08:37:29Z</time>
      </trkpt>
      <trkpt lat="41.75997" lon="9.2118">
        <ele>895.605</ele>
        <time>2015-08-29T08:37:31Z</time>
      </trkpt>
      <trkpt lat="41.75998" lon="9.21193">
        <ele>900.893</ele>
        <time>2015-08-29T08:37:37Z</time>
      </trkpt>
      <trkpt lat="41.76004" lon="9.21211">
        <ele>908.583</ele>
        <time>2015-08-29T08:37:46Z</time>
      </trkpt>
      <trkpt lat="41.76007" lon="9.2122">
        <ele>909.545</ele>
        <time>2015-08-29T08:37:52Z</time>
      </trkpt>
      <trkpt lat="41.76014" lon="9.21236">
        <ele>907.622</ele>
        <time>2015-08-29T08:37:59Z</time>
      </trkpt>
      <trkpt lat="41.76015" lon="9.21239">
        <ele>907.622</ele>
        <time>2015-08-29T08:38:01Z</time>
      </trkpt>
      <trkpt lat="41.7602" lon="9.21247">
        <ele>907.141</ele>
        <time>2015-08-29T08:38:06Z</time>
      </trkpt>
      <trkpt lat="41.76028" lon="9.21254">
        <ele>906.18</ele>
        <time>2015-08-29T08:38:12Z</time>
      </trkpt>
      <trkpt lat="41.76037" lon="9.21261">
        <ele>904.257</ele>
        <time>2015-08-29T08:38:18Z</time>
      </trkpt>
      <trkpt lat="41.7605" lon="9.21272">
        <ele>899.931</ele>
        <time>2015-08-29T08:38:25Z</time>
      </trkpt>
      <trkpt lat="41.76059" lon="9.21278">
        <ele>901.854</ele>
        <time>2015-08-29T08:38:31Z</time>
      </trkpt>
      <trkpt lat="41.76066" lon="9.21282">
        <ele>902.815</ele>
        <time>2015-08-29T08:38:37Z</time>
      </trkpt>
      <trkpt lat="41.7608" lon="9.2129">
        <ele>905.219</ele>
        <time>2015-08-29T08:38:44Z</time>
      </trkpt>
      <trkpt lat="41.7609" lon="9.21296">
        <ele>906.18</ele>
        <time>2015-08-29T08:38:49Z</time>
      </trkpt>
      <trkpt lat="41.76106" lon="9.21306">
        <ele>907.141</ele>
        <time>2015-08-29T08:38:57Z</time>
      </trkpt>
      <trkpt lat="41.76113" lon="9.21316">
        <ele>908.103</ele>
        <time>2015-08-29T08:39:02Z</time>
      </trkpt>
      <trkpt lat="41.76116" lon="9.21329">
        <ele>908.583</ele>
        <time>2015-08-29T08:39:08Z</time>
      </trkpt>
      <trkpt lat="41.76117" lon="9.21332">
        <ele>908.103</ele>
        <time>2015-08-29T08:39:09Z</time>
      </trkpt>
      <trkpt lat="41.7612" lon="9.21352">
        <ele>908.103</ele>
        <time>2015-08-29T08:39:17Z</time>
      </trkpt>
      <trkpt lat="41.76121" lon="9.2136">
        <ele>909.064</ele>
        <time>2015-08-29T08:39:20Z</time>
      </trkpt>
      <trkpt lat="41.76124" lon="9.21385">
        <ele>919.638</ele>
        <time>2015-08-29T08:39:28Z</time>
      </trkpt>
      <trkpt lat="41.76128" lon="9.21407">
        <ele>924.926</ele>
        <time>2015-08-29T08:39:35Z</time>
      </trkpt>
      <trkpt lat="41.7613" lon="9.21419">
        <ele>928.771</ele>
        <time>2015-08-29T08:39:41Z</time>
      </trkpt>
      <trkpt lat="41.76131" lon="9.21436">
        <ele>931.174</ele>
        <time>2015-08-29T08:39:49Z</time>
      </trkpt>
      <trkpt lat="41.76131" lon="9.21446">
        <ele>922.522</ele>
        <time>2015-08-29T08:39:54Z</time>
      </trkpt>
      <trkpt lat="41.76131" lon="9.21446">
        <ele>920.6</ele>
        <time>2015-08-29T08:39:56Z</time>
      </trkpt>
      <trkpt lat="41.76131" lon="9.21446">
        <ele>913.39</ele>
        <time>2015-08-29T08:40:12Z</time>
      </trkpt>
      <trkpt lat="41.76131" lon="9.21446">
        <ele>913.39</ele>
        <time>2015-08-29T08:40:13Z</time>
      </trkpt>
      <trkpt lat="41.76132" lon="9.21468">
        <ele>914.351</ele>
        <time>2015-08-29T08:40:38Z</time>
      </trkpt>
      <trkpt lat="41.76052" lon="9.21515">
        <ele>900.412</ele>
        <time>2015-08-29T08:40:58Z</time>
      </trkpt>
      <trkpt lat="41.76044" lon="9.21484">
        <ele>877.341</ele>
        <time>2015-08-29T08:41:06Z</time>
      </trkpt>
      <trkpt lat="41.76132" lon="9.21469">
        <ele>883.108</ele>
        <time>2015-08-29T08:41:10Z</time>
      </trkpt>
      <trkpt lat="41.76132" lon="9.21482">
        <ele>895.125</ele>
        <time>2015-08-29T08:41:16Z</time>
      </trkpt>
      <trkpt lat="41.76131" lon="9.21493">
        <ele>896.567</ele>
        <time>2015-08-29T08:41:22Z</time>
      </trkpt>
      <trkpt lat="41.76131" lon="9.21506">
        <ele>903.777</ele>
        <time>2015-08-29T08:41:28Z</time>
      </trkpt>
      <trkpt lat="41.76131" lon="9.21517">
        <ele>914.351</ele>
        <time>2015-08-29T08:41:33Z</time>
      </trkpt>
      <trkpt lat="41.76131" lon="9.21522">
        <ele>915.312</ele>
        <time>2015-08-29T08:41:37Z</time>
      </trkpt>
      <trkpt lat="41.76131" lon="9.21522">
        <ele>912.428</ele>
        <time>2015-08-29T08:41:48Z</time>
      </trkpt>
      <trkpt lat="41.76131" lon="9.21522">
        <ele>908.583</ele>
        <time>2015-08-29T08:41:55Z</time>
      </trkpt>
      <trkpt lat="41.76131" lon="9.21535">
        <ele>910.506</ele>
        <time>2015-08-29T08:42:00Z</time>
      </trkpt>
      <trkpt lat="41.76131" lon="9.21539">
        <ele>910.987</ele>
        <time>2015-08-29T08:42:07Z</time>
      </trkpt>
      <trkpt lat="41.76131" lon="9.21539">
        <ele>912.428</ele>
        <time>2015-08-29T08:42:13Z</time>
      </trkpt>
      <trkpt lat="41.76131" lon="9.21539">
        <ele>912.909</ele>
        <time>2015-08-29T08:42:14Z</time>
      </trkpt>
      <trkpt lat="41.76131" lon="9.21539">
        <ele>910.506</ele>
        <time>2015-08-29T08:42:27Z</time>
      </trkpt>
      <trkpt lat="41.76131" lon="9.21539">
        <ele>914.351</ele>
        <time>2015-08-29T08:42:34Z</time>
      </trkpt>
      <trkpt lat="41.76133" lon="9.21568">
        <ele>914.832</ele>
        <time>2015-08-29T08:42:39Z</time>
      </trkpt>
      <trkpt lat="41.76135" lon="9.21581">
        <ele>919.158</ele>
        <time>2015-08-29T08:42:44Z</time>
      </trkpt>
      <trkpt lat="41.76138" lon="9.21594">
        <ele>919.158</ele>
        <time>2015-08-29T08:42:49Z</time>
      </trkpt>
      <trkpt lat="41.7614" lon="9.21603">
        <ele>918.196</ele>
        <time>2015-08-29T08:42:53Z</time>
      </trkpt>
      <trkpt lat="41.7614" lon="9.21603">
        <ele>917.716</ele>
        <time>2015-08-29T08:43:03Z</time>
      </trkpt>
      <trkpt lat="41.76141" lon="9.2161">
        <ele>919.638</ele>
        <time>2015-08-29T08:43:08Z</time>
      </trkpt>
      <trkpt lat="41.76142" lon="9.21614">
        <ele>918.196</ele>
        <time>2015-08-29T08:43:15Z</time>
      </trkpt>
      <trkpt lat="41.76142" lon="9.21614">
        <ele>914.351</ele>
        <time>2015-08-29T08:43:24Z</time>
      </trkpt>
      <trkpt lat="41.7615" lon="9.21638">
        <ele>922.042</ele>
        <time>2015-08-29T08:43:46Z</time>
      </trkpt>
      <trkpt lat="41.76152" lon="9.21639">
        <ele>922.042</ele>
        <time>2015-08-29T08:43:53Z</time>
      </trkpt>
      <trkpt lat="41.76152" lon="9.21639">
        <ele>923.003</ele>
        <time>2015-08-29T08:44:01Z</time>
      </trkpt>
      <trkpt lat="41.76152" lon="9.21639">
        <ele>937.423</ele>
        <time>2015-08-29T08:44:17Z</time>
      </trkpt>
      <trkpt lat="41.76152" lon="9.21639">
        <ele>935.02</ele>
        <time>2015-08-29T08:44:21Z</time>
      </trkpt>
      <trkpt lat="41.76152" lon="9.21639">
        <ele>939.826</ele>
        <time>2015-08-29T08:44:28Z</time>
      </trkpt>
      <trkpt lat="41.76164" lon="9.21629">
        <ele>942.71</ele>
        <time>2015-08-29T08:44:39Z</time>
      </trkpt>
      <trkpt lat="41.76163" lon="9.21615">
        <ele>926.368</ele>
        <time>2015-08-29T08:45:06Z</time>
      </trkpt>
      <trkpt lat="41.76168" lon="9.21599">
        <ele>934.058</ele>
        <time>2015-08-29T08:45:14Z</time>
      </trkpt>
      <trkpt lat="41.76169" lon="9.21597">
        <ele>937.423</ele>
        <time>2015-08-29T08:45:15Z</time>
      </trkpt>
      <trkpt lat="41.76169" lon="9.21594">
        <ele>946.075</ele>
        <time>2015-08-29T08:45:19Z</time>
      </trkpt>
      <trkpt lat="41.76163" lon="9.21586">
        <ele>947.997</ele>
        <time>2015-08-29T08:45:26Z</time>
      </trkpt>
      <trkpt lat="41.76171" lon="9.21575">
        <ele>946.075</ele>
        <time>2015-08-29T08:45:31Z</time>
      </trkpt>
      <trkpt lat="41.7617" lon="9.21557">
        <ele>943.191</ele>
        <time>2015-08-29T08:45:36Z</time>
      </trkpt>
      <trkpt lat="41.76169" lon="9.21541">
        <ele>938.384</ele>
        <time>2015-08-29T08:45:40Z</time>
      </trkpt>
      <trkpt lat="41.76167" lon="9.21516">
        <ele>931.174</ele>
        <time>2015-08-29T08:45:45Z</time>
      </trkpt>
      <trkpt lat="41.76166" lon="9.21503">
        <ele>923.964</ele>
        <time>2015-08-29T08:45:50Z</time>
      </trkpt>
      <trkpt lat="41.76166" lon="9.21483">
        <ele>921.08</ele>
        <time>2015-08-29T08:45:54Z</time>
      </trkpt>
      <trkpt lat="41.76169" lon="9.21458">
        <ele>922.042</ele>
        <time>2015-08-29T08:46:00Z</time>
      </trkpt>
      <trkpt lat="41.76168" lon="9.21434">
        <ele>922.042</ele>
        <time>2015-08-29T08:46:05Z</time>
      </trkpt>
      <trkpt lat="41.76169" lon="9.21407">
        <ele>922.042</ele>
        <time>2015-08-29T08:46:10Z</time>
      </trkpt>
      <trkpt lat="41.76171" lon="9.21378">
        <ele>926.848</ele>
        <time>2015-08-29T08:46:16Z</time>
      </trkpt>
      <trkpt lat="41.76174" lon="9.21355">
        <ele>928.771</ele>
        <time>2015-08-29T08:46:21Z</time>
      </trkpt>
      <trkpt lat="41.76175" lon="9.21343">
        <ele>929.732</ele>
        <time>2015-08-29T08:46:23Z</time>
      </trkpt>
      <trkpt lat="41.76176" lon="9.2131">
        <ele>931.655</ele>
        <time>2015-08-29T08:46:29Z</time>
      </trkpt>
      <trkpt lat="41.76176" lon="9.21295">
        <ele>931.655</ele>
        <time>2015-08-29T08:46:34Z</time>
      </trkpt>
      <trkpt lat="41.76175" lon="9.21273">
        <ele>929.251</ele>
        <time>2015-08-29T08:46:40Z</time>
      </trkpt>
      <trkpt lat="41.76171" lon="9.21257">
        <ele>929.251</ele>
        <time>2015-08-29T08:46:45Z</time>
      </trkpt>
      <trkpt lat="41.7617" lon="9.21254">
        <ele>929.251</ele>
        <time>2015-08-29T08:46:46Z</time>
      </trkpt>
      <trkpt lat="41.76167" lon="9.21243">
        <ele>929.251</ele>
        <time>2015-08-29T08:46:50Z</time>
      </trkpt>
      <trkpt lat="41.76158" lon="9.21231">
        <ele>925.406</ele>
        <time>2015-08-29T08:46:56Z</time>
      </trkpt>
      <trkpt lat="41.7614" lon="9.21212">
        <ele>923.484</ele>
        <time>2015-08-29T08:47:02Z</time>
      </trkpt>
      <trkpt lat="41.76124" lon="9.21196">
        <ele>921.561</ele>
        <time>2015-08-29T08:47:08Z</time>
      </trkpt>
      <trkpt lat="41.76111" lon="9.21187">
        <ele>921.08</ele>
        <time>2015-08-29T08:47:13Z</time>
      </trkpt>
      <trkpt lat="41.76093" lon="9.21177">
        <ele>917.716</ele>
        <time>2015-08-29T08:47:18Z</time>
      </trkpt>
      <trkpt lat="41.76084" lon="9.21156">
        <ele>916.274</ele>
        <time>2015-08-29T08:47:22Z</time>
      </trkpt>
      <trkpt lat="41.76082" lon="9.21134">
        <ele>915.793</ele>
        <time>2015-08-29T08:47:27Z</time>
      </trkpt>
      <trkpt lat="41.76082" lon="9.21114">
        <ele>916.754</ele>
        <time>2015-08-29T08:47:31Z</time>
      </trkpt>
      <trkpt lat="41.76082" lon="9.21092">
        <ele>915.793</ele>
        <time>2015-08-29T08:47:35Z</time>
      </trkpt>
      <trkpt lat="41.76085" lon="9.21069">
        <ele>914.832</ele>
        <time>2015-08-29T08:47:39Z</time>
      </trkpt>
      <trkpt lat="41.76091" lon="9.21051">
        <ele>914.351</ele>
        <time>2015-08-29T08:47:42Z</time>
      </trkpt>
      <trkpt lat="41.7611" lon="9.2102">
        <ele>916.754</ele>
        <time>2015-08-29T08:47:48Z</time>
      </trkpt>
      <trkpt lat="41.76119" lon="9.21009">
        <ele>918.196</ele>
        <time>2015-08-29T08:47:53Z</time>
      </trkpt>
      <trkpt lat="41.76127" lon="9.21008">
        <ele>921.08</ele>
        <time>2015-08-29T08:47:58Z</time>
      </trkpt>
      <trkpt lat="41.76142" lon="9.21007">
        <ele>927.81</ele>
        <time>2015-08-29T08:48:04Z</time>
      </trkpt>
      <trkpt lat="41.76148" lon="9.21006">
        <ele>929.251</ele>
        <time>2015-08-29T08:48:09Z</time>
      </trkpt>
      <trkpt lat="41.7616" lon="9.20998">
        <ele>930.694</ele>
        <time>2015-08-29T08:48:16Z</time>
      </trkpt>
      <trkpt lat="41.76165" lon="9.20991">
        <ele>929.732</ele>
        <time>2015-08-29T08:48:19Z</time>
      </trkpt>
      <trkpt lat="41.76176" lon="9.20972">
        <ele>931.174</ele>
        <time>2015-08-29T08:48:27Z</time>
      </trkpt>
      <trkpt lat="41.7618" lon="9.20966">
        <ele>931.655</ele>
        <time>2015-08-29T08:48:29Z</time>
      </trkpt>
      <trkpt lat="41.76184" lon="9.2096">
        <ele>932.135</ele>
        <time>2015-08-29T08:48:34Z</time>
      </trkpt>
      <trkpt lat="41.762" lon="9.20941">
        <ele>931.655</ele>
        <time>2015-08-29T08:48:41Z</time>
      </trkpt>
      <trkpt lat="41.76204" lon="9.20938">
        <ele>932.616</ele>
        <time>2015-08-29T08:48:43Z</time>
      </trkpt>
      <trkpt lat="41.76214" lon="9.20935">
        <ele>932.616</ele>
        <time>2015-08-29T08:48:48Z</time>
      </trkpt>
      <trkpt lat="41.7623" lon="9.20937">
        <ele>933.577</ele>
        <time>2015-08-29T08:48:55Z</time>
      </trkpt>
      <trkpt lat="41.76245" lon="9.20933">
        <ele>933.577</ele>
        <time>2015-08-29T08:49:02Z</time>
      </trkpt>
      <trkpt lat="41.76249" lon="9.20931">
        <ele>934.539</ele>
        <time>2015-08-29T08:49:05Z</time>
      </trkpt>
      <trkpt lat="41.76265" lon="9.20925">
        <ele>940.307</ele>
        <time>2015-08-29T08:49:13Z</time>
      </trkpt>
      <trkpt lat="41.76276" lon="9.20926">
        <ele>945.113</ele>
        <time>2015-08-29T08:49:18Z</time>
      </trkpt>
      <trkpt lat="41.76278" lon="9.20926">
        <ele>946.075</ele>
        <time>2015-08-29T08:49:19Z</time>
      </trkpt>
      <trkpt lat="41.76281" lon="9.20927">
        <ele>951.843</ele>
        <time>2015-08-29T08:49:24Z</time>
      </trkpt>
      <trkpt lat="41.76286" lon="9.20922">
        <ele>953.284</ele>
        <time>2015-08-29T08:49:27Z</time>
      </trkpt>
      <trkpt lat="41.7629" lon="9.20902">
        <ele>948.478</ele>
        <time>2015-08-29T08:49:34Z</time>
      </trkpt>
      <trkpt lat="41.76283" lon="9.20887">
        <ele>946.075</ele>
        <time>2015-08-29T08:49:40Z</time>
      </trkpt>
      <trkpt lat="41.76272" lon="9.20869">
        <ele>939.826</ele>
        <time>2015-08-29T08:49:47Z</time>
      </trkpt>
      <trkpt lat="41.76267" lon="9.2086">
        <ele>935.5</ele>
        <time>2015-08-29T08:49:51Z</time>
      </trkpt>
      <trkpt lat="41.76249" lon="9.2084">
        <ele>932.616</ele>
        <time>2015-08-29T08:49:57Z</time>
      </trkpt>
      <trkpt lat="41.76227" lon="9.20824">
        <ele>929.732</ele>
        <time>2015-08-29T08:50:03Z</time>
      </trkpt>
      <trkpt lat="41.76216" lon="9.20818">
        <ele>930.213</ele>
        <time>2015-08-29T08:50:06Z</time>
      </trkpt>
      <trkpt lat="41.76205" lon="9.20813">
        <ele>930.213</ele>
        <time>2015-08-29T08:50:08Z</time>
      </trkpt>
      <trkpt lat="41.76193" lon="9.20805">
        <ele>930.694</ele>
        <time>2015-08-29T08:50:10Z</time>
      </trkpt>
      <trkpt lat="41.76177" lon="9.20769">
        <ele>932.616</ele>
        <time>2015-08-29T08:50:15Z</time>
      </trkpt>
      <trkpt lat="41.76178" lon="9.20744">
        <ele>924.445</ele>
        <time>2015-08-29T08:50:19Z</time>
      </trkpt>
      <trkpt lat="41.76181" lon="9.20714">
        <ele>916.754</ele>
        <time>2015-08-29T08:50:23Z</time>
      </trkpt>
      <trkpt lat="41.76187" lon="9.20673">
        <ele>907.622</ele>
        <time>2015-08-29T08:50:29Z</time>
      </trkpt>
      <trkpt lat="41.76191" lon="9.20641">
        <ele>906.66</ele>
        <time>2015-08-29T08:50:35Z</time>
      </trkpt>
      <trkpt lat="41.76194" lon="9.20623">
        <ele>906.18</ele>
        <time>2015-08-29T08:50:40Z</time>
      </trkpt>
      <trkpt lat="41.76196" lon="9.20605">
        <ele>901.854</ele>
        <time>2015-08-29T08:50:45Z</time>
      </trkpt>
      <trkpt lat="41.76197" lon="9.2058">
        <ele>898.97</ele>
        <time>2015-08-29T08:50:50Z</time>
      </trkpt>
      <trkpt lat="41.76197" lon="9.20554">
        <ele>905.699</ele>
        <time>2015-08-29T08:50:55Z</time>
      </trkpt>
      <trkpt lat="41.76195" lon="9.20535">
        <ele>905.699</ele>
        <time>2015-08-29T08:50:59Z</time>
      </trkpt>
      <trkpt lat="41.76191" lon="9.20519">
        <ele>903.296</ele>
        <time>2015-08-29T08:51:04Z</time>
      </trkpt>
      <trkpt lat="41.76188" lon="9.2051">
        <ele>900.893</ele>
        <time>2015-08-29T08:51:09Z</time>
      </trkpt>
      <trkpt lat="41.76178" lon="9.20495">
        <ele>900.412</ele>
        <time>2015-08-29T08:51:14Z</time>
      </trkpt>
      <trkpt lat="41.76182" lon="9.20429">
        <ele>901.854</ele>
        <time>2015-08-29T08:51:18Z</time>
      </trkpt>
      <trkpt lat="41.76194" lon="9.20418">
        <ele>904.738</ele>
        <time>2015-08-29T08:51:24Z</time>
      </trkpt>
      <trkpt lat="41.76204" lon="9.2041">
        <ele>904.257</ele>
        <time>2015-08-29T08:51:28Z</time>
      </trkpt>
      <trkpt lat="41.76224" lon="9.20397">
        <ele>902.815</ele>
        <time>2015-08-29T08:51:33Z</time>
      </trkpt>
      <trkpt lat="41.76238" lon="9.20387">
        <ele>901.373</ele>
        <time>2015-08-29T08:51:36Z</time>
      </trkpt>
      <trkpt lat="41.76246" lon="9.20379">
        <ele>899.451</ele>
        <time>2015-08-29T08:51:38Z</time>
      </trkpt>
      <trkpt lat="41.76266" lon="9.2036">
        <ele>898.489</ele>
        <time>2015-08-29T08:51:44Z</time>
      </trkpt>
      <trkpt lat="41.76267" lon="9.20359">
        <ele>899.451</ele>
        <time>2015-08-29T08:51:46Z</time>
      </trkpt>
      <trkpt lat="41.76268" lon="9.20358">
        <ele>904.257</ele>
        <time>2015-08-29T08:57:51Z</time>
      </trkpt>
      <trkpt lat="41.76276" lon="9.20351">
        <ele>903.777</ele>
        <time>2015-08-29T08:57:57Z</time>
      </trkpt>
      <trkpt lat="41.76289" lon="9.20345">
        <ele>902.815</ele>
        <time>2015-08-29T08:58:02Z</time>
      </trkpt>
      <trkpt lat="41.76305" lon="9.20343">
        <ele>903.296</ele>
        <time>2015-08-29T08:58:07Z</time>
      </trkpt>
      <trkpt lat="41.7632" lon="9.20343">
        <ele>906.18</ele>
        <time>2015-08-29T08:58:12Z</time>
      </trkpt>
      <trkpt lat="41.76336" lon="9.20343">
        <ele>908.103</ele>
        <time>2015-08-29T08:58:17Z</time>
      </trkpt>
      <trkpt lat="41.76346" lon="9.20345">
        <ele>908.583</ele>
        <time>2015-08-29T08:58:22Z</time>
      </trkpt>
      <trkpt lat="41.76355" lon="9.20354">
        <ele>913.39</ele>
        <time>2015-08-29T08:58:29Z</time>
      </trkpt>
      <trkpt lat="41.76359" lon="9.20365">
        <ele>910.987</ele>
        <time>2015-08-29T08:58:32Z</time>
      </trkpt>
      <trkpt lat="41.76368" lon="9.20372">
        <ele>911.948</ele>
        <time>2015-08-29T08:58:36Z</time>
      </trkpt>
      <trkpt lat="41.76385" lon="9.20379">
        <ele>911.467</ele>
        <time>2015-08-29T08:58:42Z</time>
      </trkpt>
      <trkpt lat="41.764" lon="9.20381">
        <ele>915.312</ele>
        <time>2015-08-29T08:58:48Z</time>
      </trkpt>
      <trkpt lat="41.76416" lon="9.20381">
        <ele>916.754</ele>
        <time>2015-08-29T08:58:54Z</time>
      </trkpt>
      <trkpt lat="41.76424" lon="9.20381">
        <ele>914.832</ele>
        <time>2015-08-29T08:59:00Z</time>
      </trkpt>
      <trkpt lat="41.76455" lon="9.20377">
        <ele>914.832</ele>
        <time>2015-08-29T08:59:06Z</time>
      </trkpt>
      <trkpt lat="41.76472" lon="9.2038">
        <ele>911.948</ele>
        <time>2015-08-29T08:59:12Z</time>
      </trkpt>
      <trkpt lat="41.76487" lon="9.20383">
        <ele>917.235</ele>
        <time>2015-08-29T08:59:18Z</time>
      </trkpt>
      <trkpt lat="41.76507" lon="9.20386">
        <ele>916.274</ele>
        <time>2015-08-29T08:59:26Z</time>
      </trkpt>
      <trkpt lat="41.7652" lon="9.20388">
        <ele>918.196</ele>
        <time>2015-08-29T08:59:32Z</time>
      </trkpt>
      <trkpt lat="41.76524" lon="9.20389">
        <ele>917.716</ele>
        <time>2015-08-29T08:59:34Z</time>
      </trkpt>
      <trkpt lat="41.76545" lon="9.20394">
        <ele>922.522</ele>
        <time>2015-08-29T08:59:42Z</time>
      </trkpt>
      <trkpt lat="41.76557" lon="9.20399">
        <ele>928.29</ele>
        <time>2015-08-29T08:59:48Z</time>
      </trkpt>
      <trkpt lat="41.76559" lon="9.20399">
        <ele>929.732</ele>
        <time>2015-08-29T08:59:50Z</time>
      </trkpt>
      <trkpt lat="41.76564" lon="9.20401">
        <ele>933.097</ele>
        <time>2015-08-29T08:59:53Z</time>
      </trkpt>
      <trkpt lat="41.76573" lon="9.20404">
        <ele>942.71</ele>
        <time>2015-08-29T08:59:59Z</time>
      </trkpt>
      <trkpt lat="41.76573" lon="9.20404">
        <ele>943.671</ele>
        <time>2015-08-29T09:00:00Z</time>
      </trkpt>
      <trkpt lat="41.76584" lon="9.20408">
        <ele>955.688</ele>
        <time>2015-08-29T09:00:07Z</time>
      </trkpt>
      <trkpt lat="41.76591" lon="9.20411">
        <ele>970.588</ele>
        <time>2015-08-29T09:00:15Z</time>
      </trkpt>
      <trkpt lat="41.76591" lon="9.20411">
        <ele>972.992</ele>
        <time>2015-08-29T09:00:16Z</time>
      </trkpt>
      <trkpt lat="41.76591" lon="9.20411">
        <ele>978.76</ele>
        <time>2015-08-29T09:00:20Z</time>
      </trkpt>
      <trkpt lat="41.76602" lon="9.20415">
        <ele>986.45</ele>
        <time>2015-08-29T09:00:24Z</time>
      </trkpt>
      <trkpt lat="41.76616" lon="9.20418">
        <ele>992.699</ele>
        <time>2015-08-29T09:00:30Z</time>
      </trkpt>
      <trkpt lat="41.76628" lon="9.20421">
        <ele>1000.87</ele>
        <time>2015-08-29T09:00:36Z</time>
      </trkpt>
      <trkpt lat="41.76646" lon="9.20424">
        <ele>1005.677</ele>
        <time>2015-08-29T09:00:44Z</time>
      </trkpt>
      <trkpt lat="41.76679" lon="9.20416">
        <ele>1006.638</ele>
        <time>2015-08-29T09:00:51Z</time>
      </trkpt>
      <trkpt lat="41.76724" lon="9.20361">
        <ele>1000.87</ele>
        <time>2015-08-29T09:00:59Z</time>
      </trkpt>
      <trkpt lat="41.76723" lon="9.20358">
        <ele>995.102</ele>
        <time>2015-08-29T09:01:02Z</time>
      </trkpt>
      <trkpt lat="41.76722" lon="9.20351">
        <ele>986.93</ele>
        <time>2015-08-29T09:01:06Z</time>
      </trkpt>
      <trkpt lat="41.7672" lon="9.20341">
        <ele>966.262</ele>
        <time>2015-08-29T09:01:13Z</time>
      </trkpt>
      <trkpt lat="41.76719" lon="9.20337">
        <ele>947.036</ele>
        <time>2015-08-29T09:01:20Z</time>
      </trkpt>
      <trkpt lat="41.76718" lon="9.20332">
        <ele>932.616</ele>
        <time>2015-08-29T09:01:26Z</time>
      </trkpt>
      <trkpt lat="41.76718" lon="9.20332">
        <ele>930.694</ele>
        <time>2015-08-29T09:01:27Z</time>
      </trkpt>
      <trkpt lat="41.76717" lon="9.20325">
        <ele>925.406</ele>
        <time>2015-08-29T09:01:31Z</time>
      </trkpt>
      <trkpt lat="41.76708" lon="9.20327">
        <ele>923.003</ele>
        <time>2015-08-29T09:01:38Z</time>
      </trkpt>
      <trkpt lat="41.7671" lon="9.20327">
        <ele>922.522</ele>
        <time>2015-08-29T09:01:39Z</time>
      </trkpt>
      <trkpt lat="41.76718" lon="9.20329">
        <ele>925.887</ele>
        <time>2015-08-29T09:01:47Z</time>
      </trkpt>
      <trkpt lat="41.76731" lon="9.2033">
        <ele>931.174</ele>
        <time>2015-08-29T09:01:53Z</time>
      </trkpt>
      <trkpt lat="41.76743" lon="9.2033">
        <ele>938.384</ele>
        <time>2015-08-29T09:01:59Z</time>
      </trkpt>
      <trkpt lat="41.76754" lon="9.20332">
        <ele>935.02</ele>
        <time>2015-08-29T09:02:03Z</time>
      </trkpt>
      <trkpt lat="41.76762" lon="9.20337">
        <ele>935.981</ele>
        <time>2015-08-29T09:02:08Z</time>
      </trkpt>
      <trkpt lat="41.76763" lon="9.20339">
        <ele>937.423</ele>
        <time>2015-08-29T09:02:11Z</time>
      </trkpt>
      <trkpt lat="41.76765" lon="9.20341">
        <ele>939.345</ele>
        <time>2015-08-29T09:02:20Z</time>
      </trkpt>
      <trkpt lat="41.76766" lon="9.20319">
        <ele>940.307</ele>
        <time>2015-08-29T09:02:22Z</time>
      </trkpt>
      <trkpt lat="41.76766" lon="9.20317">
        <ele>939.826</ele>
        <time>2015-08-29T09:02:26Z</time>
      </trkpt>
      <trkpt lat="41.76767" lon="9.20292">
        <ele>933.577</ele>
        <time>2015-08-29T09:02:32Z</time>
      </trkpt>
      <trkpt lat="41.76767" lon="9.20273">
        <ele>929.732</ele>
        <time>2015-08-29T09:02:37Z</time>
      </trkpt>
      <trkpt lat="41.76767" lon="9.20269">
        <ele>929.732</ele>
        <time>2015-08-29T09:02:39Z</time>
      </trkpt>
      <trkpt lat="41.76768" lon="9.20259">
        <ele>930.694</ele>
        <time>2015-08-29T09:02:43Z</time>
      </trkpt>
      <trkpt lat="41.76776" lon="9.20244">
        <ele>926.848</ele>
        <time>2015-08-29T09:02:49Z</time>
      </trkpt>
      <trkpt lat="41.76784" lon="9.20241">
        <ele>923.964</ele>
        <time>2015-08-29T09:02:52Z</time>
      </trkpt>
      <trkpt lat="41.76791" lon="9.20246">
        <ele>922.042</ele>
        <time>2015-08-29T09:02:54Z</time>
      </trkpt>
      <trkpt lat="41.76797" lon="9.20261">
        <ele>917.716</ele>
        <time>2015-08-29T09:02:58Z</time>
      </trkpt>
      <trkpt lat="41.768" lon="9.20291">
        <ele>917.235</ele>
        <time>2015-08-29T09:03:02Z</time>
      </trkpt>
      <trkpt lat="41.76826" lon="9.20328">
        <ele>918.677</ele>
        <time>2015-08-29T09:03:09Z</time>
      </trkpt>
      <trkpt lat="41.76851" lon="9.20344">
        <ele>921.08</ele>
        <time>2015-08-29T09:03:14Z</time>
      </trkpt>
      <trkpt lat="41.76888" lon="9.20355">
        <ele>923.003</ele>
        <time>2015-08-29T09:03:20Z</time>
      </trkpt>
      <trkpt lat="41.7692" lon="9.20363">
        <ele>918.196</ele>
        <time>2015-08-29T09:03:26Z</time>
      </trkpt>
      <trkpt lat="41.7693" lon="9.20366">
        <ele>917.716</ele>
        <time>2015-08-29T09:03:28Z</time>
      </trkpt>
      <trkpt lat="41.76952" lon="9.20376">
        <ele>909.545</ele>
        <time>2015-08-29T09:03:33Z</time>
      </trkpt>
      <trkpt lat="41.7696" lon="9.20393">
        <ele>904.738</ele>
        <time>2015-08-29T09:03:37Z</time>
      </trkpt>
      <trkpt lat="41.76972" lon="9.20428">
        <ele>909.545</ele>
        <time>2015-08-29T09:03:43Z</time>
      </trkpt>
      <trkpt lat="41.76991" lon="9.20433">
        <ele>909.545</ele>
        <time>2015-08-29T09:03:47Z</time>
      </trkpt>
      <trkpt lat="41.77014" lon="9.20415">
        <ele>907.141</ele>
        <time>2015-08-29T09:03:53Z</time>
      </trkpt>
      <trkpt lat="41.77014" lon="9.20415">
        <ele>905.219</ele>
        <time>2015-08-29T09:03:54Z</time>
      </trkpt>
      <trkpt lat="41.77032" lon="9.20418">
        <ele>902.334</ele>
        <time>2015-08-29T09:03:56Z</time>
      </trkpt>
      <trkpt lat="41.77054" lon="9.20446">
        <ele>898.489</ele>
        <time>2015-08-29T09:04:01Z</time>
      </trkpt>
      <trkpt lat="41.77053" lon="9.20475">
        <ele>903.296</ele>
        <time>2015-08-29T09:04:05Z</time>
      </trkpt>
      <trkpt lat="41.77052" lon="9.20488">
        <ele>906.18</ele>
        <time>2015-08-29T09:04:08Z</time>
      </trkpt>
      <trkpt lat="41.77052" lon="9.20492">
        <ele>906.66</ele>
        <time>2015-08-29T09:04:11Z</time>
      </trkpt>
      <trkpt lat="41.77052" lon="9.20492">
        <ele>923.003</ele>
        <time>2015-08-29T09:05:02Z</time>
      </trkpt>
      <trkpt lat="41.77052" lon="9.20492">
        <ele>938.865</ele>
        <time>2015-08-29T09:05:52Z</time>
      </trkpt>
      <trkpt lat="41.77052" lon="9.20492">
        <ele>941.749</ele>
        <time>2015-08-29T09:05:56Z</time>
      </trkpt>
      <trkpt lat="41.77052" lon="9.20491">
        <ele>939.826</ele>
        <time>2015-08-29T09:06:01Z</time>
      </trkpt>
      <trkpt lat="41.77014" lon="9.20415">
        <ele>935.5</ele>
        <time>2015-08-29T09:06:06Z</time>
      </trkpt>
      <trkpt lat="41.77092" lon="9.20488">
        <ele>931.655</ele>
        <time>2015-08-29T09:06:11Z</time>
      </trkpt>
      <trkpt lat="41.77097" lon="9.20487">
        <ele>932.135</ele>
        <time>2015-08-29T09:06:14Z</time>
      </trkpt>
      <trkpt lat="41.7711" lon="9.20489">
        <ele>930.213</ele>
        <time>2015-08-29T09:06:19Z</time>
      </trkpt>
      <trkpt lat="41.77115" lon="9.20491">
        <ele>923.964</ele>
        <time>2015-08-29T09:06:22Z</time>
      </trkpt>
      <trkpt lat="41.7715" lon="9.20492">
        <ele>918.196</ele>
        <time>2015-08-29T09:06:25Z</time>
      </trkpt>
      <trkpt lat="41.77179" lon="9.20463">
        <ele>909.064</ele>
        <time>2015-08-29T09:06:30Z</time>
      </trkpt>
      <trkpt lat="41.77202" lon="9.20439">
        <ele>899.931</ele>
        <time>2015-08-29T09:06:34Z</time>
      </trkpt>
      <trkpt lat="41.77211" lon="9.2043">
        <ele>893.683</ele>
        <time>2015-08-29T09:06:39Z</time>
      </trkpt>
      <trkpt lat="41.77212" lon="9.20429">
        <ele>888.396</ele>
        <time>2015-08-29T09:06:42Z</time>
      </trkpt>
      <trkpt lat="41.77236" lon="9.2039">
        <ele>878.302</ele>
        <time>2015-08-29T09:06:45Z</time>
      </trkpt>
      <trkpt lat="41.77221" lon="9.20387">
        <ele>867.727</ele>
        <time>2015-08-29T09:06:49Z</time>
      </trkpt>
      <trkpt lat="41.77212" lon="9.20384">
        <ele>862.921</ele>
        <time>2015-08-29T09:06:53Z</time>
      </trkpt>
      <trkpt lat="41.7721" lon="9.20383">
        <ele>861.479</ele>
        <time>2015-08-29T09:06:57Z</time>
      </trkpt>
      <trkpt lat="41.77197" lon="9.20377">
        <ele>867.727</ele>
        <time>2015-08-29T09:07:03Z</time>
      </trkpt>
      <trkpt lat="41.77193" lon="9.20367">
        <ele>870.611</ele>
        <time>2015-08-29T09:07:08Z</time>
      </trkpt>
      <trkpt lat="41.77195" lon="9.20365">
        <ele>868.688</ele>
        <time>2015-08-29T09:07:12Z</time>
      </trkpt>
      <trkpt lat="41.77207" lon="9.20361">
        <ele>865.805</ele>
        <time>2015-08-29T09:07:18Z</time>
      </trkpt>
      <trkpt lat="41.77215" lon="9.20358">
        <ele>871.572</ele>
        <time>2015-08-29T09:07:23Z</time>
      </trkpt>
      <trkpt lat="41.77235" lon="9.2034">
        <ele>875.417</ele>
        <time>2015-08-29T09:07:27Z</time>
      </trkpt>
      <trkpt lat="41.77253" lon="9.20326">
        <ele>875.417</ele>
        <time>2015-08-29T09:07:32Z</time>
      </trkpt>
      <trkpt lat="41.77267" lon="9.20329">
        <ele>870.13</ele>
        <time>2015-08-29T09:07:36Z</time>
      </trkpt>
      <trkpt lat="41.7728" lon="9.20342">
        <ele>862.44</ele>
        <time>2015-08-29T09:07:39Z</time>
      </trkpt>
      <trkpt lat="41.77299" lon="9.20367">
        <ele>857.153</ele>
        <time>2015-08-29T09:07:44Z</time>
      </trkpt>
      <trkpt lat="41.77314" lon="9.20372">
        <ele>856.672</ele>
        <time>2015-08-29T09:07:47Z</time>
      </trkpt>
      <trkpt lat="41.77342" lon="9.20361">
        <ele>853.788</ele>
        <time>2015-08-29T09:07:53Z</time>
      </trkpt>
      <trkpt lat="41.77358" lon="9.20361">
        <ele>849.943</ele>
        <time>2015-08-29T09:07:57Z</time>
      </trkpt>
      <trkpt lat="41.77381" lon="9.20365">
        <ele>847.54</ele>
        <time>2015-08-29T09:08:03Z</time>
      </trkpt>
      <trkpt lat="41.77386" lon="9.20365">
        <ele>848.02</ele>
        <time>2015-08-29T09:08:04Z</time>
      </trkpt>
      <trkpt lat="41.77401" lon="9.20347">
        <ele>842.733</ele>
        <time>2015-08-29T09:08:08Z</time>
      </trkpt>
      <trkpt lat="41.77408" lon="9.20326">
        <ele>835.042</ele>
        <time>2015-08-29T09:08:12Z</time>
      </trkpt>
      <trkpt lat="41.77425" lon="9.20306">
        <ele>826.871</ele>
        <time>2015-08-29T09:08:16Z</time>
      </trkpt>
      <trkpt lat="41.7744" lon="9.20288">
        <ele>819.661</ele>
        <time>2015-08-29T09:08:21Z</time>
      </trkpt>
      <trkpt lat="41.77439" lon="9.20283">
        <ele>815.816</ele>
        <time>2015-08-29T09:08:23Z</time>
      </trkpt>
      <trkpt lat="41.77424" lon="9.20265">
        <ele>809.567</ele>
        <time>2015-08-29T09:08:26Z</time>
      </trkpt>
      <trkpt lat="41.77413" lon="9.20243">
        <ele>802.357</ele>
        <time>2015-08-29T09:08:29Z</time>
      </trkpt>
      <trkpt lat="41.77417" lon="9.2022">
        <ele>798.993</ele>
        <time>2015-08-29T09:08:33Z</time>
      </trkpt>
      <trkpt lat="41.77423" lon="9.202">
        <ele>797.07</ele>
        <time>2015-08-29T09:08:36Z</time>
      </trkpt>
      <trkpt lat="41.77434" lon="9.20166">
        <ele>792.264</ele>
        <time>2015-08-29T09:08:41Z</time>
      </trkpt>
      <trkpt lat="41.77441" lon="9.20151">
        <ele>788.899</ele>
        <time>2015-08-29T09:08:43Z</time>
      </trkpt>
      <trkpt lat="41.7745" lon="9.2014">
        <ele>787.457</ele>
        <time>2015-08-29T09:08:45Z</time>
      </trkpt>
      <trkpt lat="41.7746" lon="9.2013">
        <ele>787.938</ele>
        <time>2015-08-29T09:08:47Z</time>
      </trkpt>
      <trkpt lat="41.77481" lon="9.20117">
        <ele>785.054</ele>
        <time>2015-08-29T09:08:52Z</time>
      </trkpt>
      <trkpt lat="41.77499" lon="9.20129">
        <ele>785.534</ele>
        <time>2015-08-29T09:08:57Z</time>
      </trkpt>
      <trkpt lat="41.7753" lon="9.20167">
        <ele>784.573</ele>
        <time>2015-08-29T09:09:03Z</time>
      </trkpt>
      <trkpt lat="41.77538" lon="9.20169">
        <ele>783.131</ele>
        <time>2015-08-29T09:09:04Z</time>
      </trkpt>
      <trkpt lat="41.77579" lon="9.20189">
        <ele>788.899</ele>
        <time>2015-08-29T09:09:09Z</time>
      </trkpt>
      <trkpt lat="41.77602" lon="9.20213">
        <ele>786.015</ele>
        <time>2015-08-29T09:09:13Z</time>
      </trkpt>
      <trkpt lat="41.77611" lon="9.20226">
        <ele>783.131</ele>
        <time>2015-08-29T09:09:15Z</time>
      </trkpt>
      <trkpt lat="41.77625" lon="9.20248">
        <ele>780.728</ele>
        <time>2015-08-29T09:09:18Z</time>
      </trkpt>
      <trkpt lat="41.77647" lon="9.20268">
        <ele>776.883</ele>
        <time>2015-08-29T09:09:23Z</time>
      </trkpt>
      <trkpt lat="41.77654" lon="9.20271">
        <ele>776.402</ele>
        <time>2015-08-29T09:09:24Z</time>
      </trkpt>
      <trkpt lat="41.77677" lon="9.20275">
        <ele>777.844</ele>
        <time>2015-08-29T09:09:29Z</time>
      </trkpt>
      <trkpt lat="41.77693" lon="9.20272">
        <ele>781.209</ele>
        <time>2015-08-29T09:09:33Z</time>
      </trkpt>
      <trkpt lat="41.77698" lon="9.2027">
        <ele>781.209</ele>
        <time>2015-08-29T09:09:34Z</time>
      </trkpt>
      <trkpt lat="41.77724" lon="9.20259">
        <ele>777.844</ele>
        <time>2015-08-29T09:09:38Z</time>
      </trkpt>
      <trkpt lat="41.77748" lon="9.20259">
        <ele>766.308</ele>
        <time>2015-08-29T09:09:42Z</time>
      </trkpt>
      <trkpt lat="41.77755" lon="9.20267">
        <ele>762.943</ele>
        <time>2015-08-29T09:09:44Z</time>
      </trkpt>
      <trkpt lat="41.77762" lon="9.20274">
        <ele>761.982</ele>
        <time>2015-08-29T09:09:46Z</time>
      </trkpt>
      <trkpt lat="41.77785" lon="9.203">
        <ele>760.059</ele>
        <time>2015-08-29T09:09:51Z</time>
      </trkpt>
      <trkpt lat="41.778" lon="9.20316">
        <ele>760.059</ele>
        <time>2015-08-29T09:09:54Z</time>
      </trkpt>
      <trkpt lat="41.77814" lon="9.20332">
        <ele>761.501</ele>
        <time>2015-08-29T09:09:58Z</time>
      </trkpt>
      <trkpt lat="41.77826" lon="9.20348">
        <ele>761.982</ele>
        <time>2015-08-29T09:10:02Z</time>
      </trkpt>
      <trkpt lat="41.77846" lon="9.20374">
        <ele>761.982</ele>
        <time>2015-08-29T09:10:08Z</time>
      </trkpt>
      <trkpt lat="41.77857" lon="9.20388">
        <ele>763.905</ele>
        <time>2015-08-29T09:10:11Z</time>
      </trkpt>
      <trkpt lat="41.77874" lon="9.2041">
        <ele>764.866</ele>
        <time>2015-08-29T09:10:14Z</time>
      </trkpt>
      <trkpt lat="41.77883" lon="9.20427">
        <ele>767.27</ele>
        <time>2015-08-29T09:10:17Z</time>
      </trkpt>
      <trkpt lat="41.77883" lon="9.20442">
        <ele>774.96</ele>
        <time>2015-08-29T09:10:21Z</time>
      </trkpt>
      <trkpt lat="41.77879" lon="9.20468">
        <ele>783.612</ele>
        <time>2015-08-29T09:10:25Z</time>
      </trkpt>
      <trkpt lat="41.77879" lon="9.20476">
        <ele>787.938</ele>
        <time>2015-08-29T09:10:27Z</time>
      </trkpt>
      <trkpt lat="41.77879" lon="9.20475">
        <ele>793.706</ele>
        <time>2015-08-29T09:10:30Z</time>
      </trkpt>
      <trkpt lat="41.77907" lon="9.20475">
        <ele>799.954</ele>
        <time>2015-08-29T09:10:35Z</time>
      </trkpt>
      <trkpt lat="41.77911" lon="9.20475">
        <ele>802.838</ele>
        <time>2015-08-29T09:10:37Z</time>
      </trkpt>
      <trkpt lat="41.77925" lon="9.20473">
        <ele>811.009</ele>
        <time>2015-08-29T09:10:42Z</time>
      </trkpt>
      <trkpt lat="41.77934" lon="9.20472">
        <ele>815.816</ele>
        <time>2015-08-29T09:10:45Z</time>
      </trkpt>
      <trkpt lat="41.77937" lon="9.20472">
        <ele>816.297</ele>
        <time>2015-08-29T09:10:51Z</time>
      </trkpt>
      <trkpt lat="41.77964" lon="9.20469">
        <ele>811.971</ele>
        <time>2015-08-29T09:10:55Z</time>
      </trkpt>
      <trkpt lat="41.77937" lon="9.20472">
        <ele>805.722</ele>
        <time>2015-08-29T09:10:59Z</time>
      </trkpt>
      <trkpt lat="41.78016" lon="9.20429">
        <ele>800.435</ele>
        <time>2015-08-29T09:11:03Z</time>
      </trkpt>
      <trkpt lat="41.78016" lon="9.20428">
        <ele>786.496</ele>
        <time>2015-08-29T09:11:08Z</time>
      </trkpt>
      <trkpt lat="41.78018" lon="9.20425">
        <ele>784.093</ele>
        <time>2015-08-29T09:11:09Z</time>
      </trkpt>
      <trkpt lat="41.78029" lon="9.20413">
        <ele>776.883</ele>
        <time>2015-08-29T09:11:14Z</time>
      </trkpt>
      <trkpt lat="41.78045" lon="9.20391">
        <ele>760.059</ele>
        <time>2015-08-29T09:11:18Z</time>
      </trkpt>
      <trkpt lat="41.78055" lon="9.20374">
        <ele>752.85</ele>
        <time>2015-08-29T09:11:24Z</time>
      </trkpt>
      <trkpt lat="41.78066" lon="9.20367">
        <ele>748.043</ele>
        <time>2015-08-29T09:11:31Z</time>
      </trkpt>
      <trkpt lat="41.78074" lon="9.20362">
        <ele>748.524</ele>
        <time>2015-08-29T09:11:36Z</time>
      </trkpt>
      <trkpt lat="41.78086" lon="9.2035">
        <ele>749.485</ele>
        <time>2015-08-29T09:11:42Z</time>
      </trkpt>
      <trkpt lat="41.78088" lon="9.20347">
        <ele>749.485</ele>
        <time>2015-08-29T09:11:43Z</time>
      </trkpt>
      <trkpt lat="41.78095" lon="9.20337">
        <ele>752.369</ele>
        <time>2015-08-29T09:11:49Z</time>
      </trkpt>
      <trkpt lat="41.78107" lon="9.20318">
        <ele>755.253</ele>
        <time>2015-08-29T09:11:56Z</time>
      </trkpt>
      <trkpt lat="41.78117" lon="9.20304">
        <ele>758.137</ele>
        <time>2015-08-29T09:12:01Z</time>
      </trkpt>
      <trkpt lat="41.78129" lon="9.20289">
        <ele>761.501</ele>
        <time>2015-08-29T09:12:06Z</time>
      </trkpt>
      <trkpt lat="41.78142" lon="9.20277">
        <ele>762.943</ele>
        <time>2015-08-29T09:12:12Z</time>
      </trkpt>
      <trkpt lat="41.78156" lon="9.20266">
        <ele>764.866</ele>
        <time>2015-08-29T09:12:17Z</time>
      </trkpt>
      <trkpt lat="41.78169" lon="9.20259">
        <ele>769.673</ele>
        <time>2015-08-29T09:12:22Z</time>
      </trkpt>
      <trkpt lat="41.78183" lon="9.20256">
        <ele>768.231</ele>
        <time>2015-08-29T09:12:28Z</time>
      </trkpt>
      <trkpt lat="41.78199" lon="9.20256">
        <ele>769.192</ele>
        <time>2015-08-29T09:12:34Z</time>
      </trkpt>
      <trkpt lat="41.78214" lon="9.20257">
        <ele>769.192</ele>
        <time>2015-08-29T09:12:39Z</time>
      </trkpt>
      <trkpt lat="41.78236" lon="9.2026">
        <ele>765.828</ele>
        <time>2015-08-29T09:12:46Z</time>
      </trkpt>
      <trkpt lat="41.78258" lon="9.20257">
        <ele>758.617</ele>
        <time>2015-08-29T09:12:53Z</time>
      </trkpt>
      <trkpt lat="41.78263" lon="9.20257">
        <ele>773.518</ele>
        <time>2015-08-29T09:12:59Z</time>
      </trkpt>
      <trkpt lat="41.78273" lon="9.20257">
        <ele>779.286</ele>
        <time>2015-08-29T09:13:04Z</time>
      </trkpt>
      <trkpt lat="41.78284" lon="9.20257">
        <ele>782.651</ele>
        <time>2015-08-29T09:13:09Z</time>
      </trkpt>
      <trkpt lat="41.78302" lon="9.20259">
        <ele>783.612</ele>
        <time>2015-08-29T09:13:15Z</time>
      </trkpt>
      <trkpt lat="41.78323" lon="9.20263">
        <ele>785.534</ele>
        <time>2015-08-29T09:13:22Z</time>
      </trkpt>
      <trkpt lat="41.78346" lon="9.20268">
        <ele>786.015</ele>
        <time>2015-08-29T09:13:29Z</time>
      </trkpt>
      <trkpt lat="41.78351" lon="9.20269">
        <ele>793.225</ele>
        <time>2015-08-29T09:13:33Z</time>
      </trkpt>
      <trkpt lat="41.78363" lon="9.20271">
        <ele>801.396</ele>
        <time>2015-08-29T09:13:39Z</time>
      </trkpt>
      <trkpt lat="41.78381" lon="9.20275">
        <ele>806.203</ele>
        <time>2015-08-29T09:13:44Z</time>
      </trkpt>
      <trkpt lat="41.78405" lon="9.20284">
        <ele>814.855</ele>
        <time>2015-08-29T09:13:50Z</time>
      </trkpt>
      <trkpt lat="41.78409" lon="9.20286">
        <ele>816.297</ele>
        <time>2015-08-29T09:13:51Z</time>
      </trkpt>
      <trkpt lat="41.78426" lon="9.20294">
        <ele>818.7</ele>
        <time>2015-08-29T09:13:54Z</time>
      </trkpt>
      <trkpt lat="41.7845" lon="9.20308">
        <ele>806.203</ele>
        <time>2015-08-29T09:13:58Z</time>
      </trkpt>
      <trkpt lat="41.7847" lon="9.20315">
        <ele>791.783</ele>
        <time>2015-08-29T09:14:04Z</time>
      </trkpt>
      <trkpt lat="41.78484" lon="9.20319">
        <ele>787.457</ele>
        <time>2015-08-29T09:14:11Z</time>
      </trkpt>
      <trkpt lat="41.78495" lon="9.2032">
        <ele>786.976</ele>
        <time>2015-08-29T09:14:18Z</time>
      </trkpt>
      <trkpt lat="41.78503" lon="9.20321">
        <ele>783.131</ele>
        <time>2015-08-29T09:14:24Z</time>
      </trkpt>
      <trkpt lat="41.78518" lon="9.20324">
        <ele>780.728</ele>
        <time>2015-08-29T09:14:33Z</time>
      </trkpt>
      <trkpt lat="41.78526" lon="9.20325">
        <ele>780.728</ele>
        <time>2015-08-29T09:14:38Z</time>
      </trkpt>
      <trkpt lat="41.78536" lon="9.20327">
        <ele>781.689</ele>
        <time>2015-08-29T09:14:47Z</time>
      </trkpt>
      <trkpt lat="41.7854" lon="9.20328">
        <ele>784.573</ele>
        <time>2015-08-29T09:14:53Z</time>
      </trkpt>
      <trkpt lat="41.7855" lon="9.2033">
        <ele>786.496</ele>
        <time>2015-08-29T09:15:00Z</time>
      </trkpt>
      <trkpt lat="41.78557" lon="9.20332">
        <ele>787.457</ele>
        <time>2015-08-29T09:15:06Z</time>
      </trkpt>
      <trkpt lat="41.78573" lon="9.20335">
        <ele>788.418</ele>
        <time>2015-08-29T09:15:16Z</time>
      </trkpt>
      <trkpt lat="41.78582" lon="9.20335">
        <ele>787.938</ele>
        <time>2015-08-29T09:15:22Z</time>
      </trkpt>
      <trkpt lat="41.78588" lon="9.20334">
        <ele>789.86</ele>
        <time>2015-08-29T09:15:28Z</time>
      </trkpt>
      <trkpt lat="41.78597" lon="9.20332">
        <ele>792.264</ele>
        <time>2015-08-29T09:15:34Z</time>
      </trkpt>
      <trkpt lat="41.78603" lon="9.2033">
        <ele>795.628</ele>
        <time>2015-08-29T09:15:40Z</time>
      </trkpt>
      <trkpt lat="41.78607" lon="9.20328">
        <ele>797.07</ele>
        <time>2015-08-29T09:15:45Z</time>
      </trkpt>
      <trkpt lat="41.78619" lon="9.20323">
        <ele>796.109</ele>
        <time>2015-08-29T09:15:52Z</time>
      </trkpt>
      <trkpt lat="41.78632" lon="9.20315">
        <ele>791.783</ele>
        <time>2015-08-29T09:16:02Z</time>
      </trkpt>
      <trkpt lat="41.7864" lon="9.20307">
        <ele>791.783</ele>
        <time>2015-08-29T09:16:10Z</time>
      </trkpt>
      <trkpt lat="41.78647" lon="9.20302">
        <ele>794.667</ele>
        <time>2015-08-29T09:16:15Z</time>
      </trkpt>
      <trkpt lat="41.78658" lon="9.20297">
        <ele>798.032</ele>
        <time>2015-08-29T09:16:22Z</time>
      </trkpt>
      <trkpt lat="41.78668" lon="9.20295">
        <ele>799.474</ele>
        <time>2015-08-29T09:16:29Z</time>
      </trkpt>
      <trkpt lat="41.78677" lon="9.20297">
        <ele>802.838</ele>
        <time>2015-08-29T09:16:37Z</time>
      </trkpt>
      <trkpt lat="41.78684" lon="9.20303">
        <ele>805.241</ele>
        <time>2015-08-29T09:16:45Z</time>
      </trkpt>
      <trkpt lat="41.78693" lon="9.20312">
        <ele>806.683</ele>
        <time>2015-08-29T09:16:54Z</time>
      </trkpt>
      <trkpt lat="41.787" lon="9.2032">
        <ele>807.645</ele>
        <time>2015-08-29T09:17:01Z</time>
      </trkpt>
      <trkpt lat="41.78706" lon="9.2033">
        <ele>809.567</ele>
        <time>2015-08-29T09:17:08Z</time>
      </trkpt>
      <trkpt lat="41.78714" lon="9.20343">
        <ele>811.009</ele>
        <time>2015-08-29T09:17:15Z</time>
      </trkpt>
      <trkpt lat="41.78719" lon="9.20367">
        <ele>815.816</ele>
        <time>2015-08-29T09:17:23Z</time>
      </trkpt>
      <trkpt lat="41.78719" lon="9.20377">
        <ele>815.816</ele>
        <time>2015-08-29T09:17:29Z</time>
      </trkpt>
      <trkpt lat="41.7872" lon="9.20392">
        <ele>815.816</ele>
        <time>2015-08-29T09:17:38Z</time>
      </trkpt>
      <trkpt lat="41.78722" lon="9.20401">
        <ele>818.219</ele>
        <time>2015-08-29T09:17:44Z</time>
      </trkpt>
      <trkpt lat="41.78728" lon="9.20416">
        <ele>823.026</ele>
        <time>2015-08-29T09:17:51Z</time>
      </trkpt>
      <trkpt lat="41.78734" lon="9.20424">
        <ele>824.948</ele>
        <time>2015-08-29T09:17:56Z</time>
      </trkpt>
      <trkpt lat="41.78753" lon="9.20434">
        <ele>828.313</ele>
        <time>2015-08-29T09:18:03Z</time>
      </trkpt>
      <trkpt lat="41.78765" lon="9.20438">
        <ele>829.274</ele>
        <time>2015-08-29T09:18:10Z</time>
      </trkpt>
      <trkpt lat="41.78774" lon="9.20441">
        <ele>829.274</ele>
        <time>2015-08-29T09:18:16Z</time>
      </trkpt>
      <trkpt lat="41.78782" lon="9.20444">
        <ele>836.004</ele>
        <time>2015-08-29T09:18:23Z</time>
      </trkpt>
      <trkpt lat="41.78797" lon="9.20454">
        <ele>836.004</ele>
        <time>2015-08-29T09:18:30Z</time>
      </trkpt>
      <trkpt lat="41.78808" lon="9.20464">
        <ele>832.158</ele>
        <time>2015-08-29T09:18:37Z</time>
      </trkpt>
      <trkpt lat="41.7882" lon="9.20472">
        <ele>831.678</ele>
        <time>2015-08-29T09:18:44Z</time>
      </trkpt>
      <trkpt lat="41.78828" lon="9.20477">
        <ele>831.678</ele>
        <time>2015-08-29T09:18:50Z</time>
      </trkpt>
      <trkpt lat="41.78836" lon="9.20482">
        <ele>832.158</ele>
        <time>2015-08-29T09:18:55Z</time>
      </trkpt>
      <trkpt lat="41.78847" lon="9.20489">
        <ele>833.6</ele>
        <time>2015-08-29T09:19:01Z</time>
      </trkpt>
      <trkpt lat="41.78855" lon="9.20495">
        <ele>835.523</ele>
        <time>2015-08-29T09:19:07Z</time>
      </trkpt>
      <trkpt lat="41.78864" lon="9.20499">
        <ele>834.081</ele>
        <time>2015-08-29T09:19:13Z</time>
      </trkpt>
      <trkpt lat="41.78875" lon="9.20503">
        <ele>840.81</ele>
        <time>2015-08-29T09:19:20Z</time>
      </trkpt>
      <trkpt lat="41.7888" lon="9.20505">
        <ele>841.291</ele>
        <time>2015-08-29T09:19:26Z</time>
      </trkpt>
      <trkpt lat="41.78891" lon="9.20509">
        <ele>842.733</ele>
        <time>2015-08-29T09:19:33Z</time>
      </trkpt>
      <trkpt lat="41.78897" lon="9.20512">
        <ele>846.098</ele>
        <time>2015-08-29T09:19:38Z</time>
      </trkpt>
      <trkpt lat="41.789" lon="9.20513">
        <ele>848.02</ele>
        <time>2015-08-29T09:19:41Z</time>
      </trkpt>
      <trkpt lat="41.78907" lon="9.20516">
        <ele>847.54</ele>
        <time>2015-08-29T09:19:45Z</time>
      </trkpt>
      <trkpt lat="41.78918" lon="9.20521">
        <ele>848.02</ele>
        <time>2015-08-29T09:19:52Z</time>
      </trkpt>
      <trkpt lat="41.78925" lon="9.20523">
        <ele>846.578</ele>
        <time>2015-08-29T09:19:59Z</time>
      </trkpt>
      <trkpt lat="41.7894" lon="9.20528">
        <ele>842.733</ele>
        <time>2015-08-29T09:20:07Z</time>
      </trkpt>
      <trkpt lat="41.78952" lon="9.20531">
        <ele>843.213</ele>
        <time>2015-08-29T09:20:15Z</time>
      </trkpt>
      <trkpt lat="41.78968" lon="9.20536">
        <ele>841.291</ele>
        <time>2015-08-29T09:20:22Z</time>
      </trkpt>
      <trkpt lat="41.78975" lon="9.20537">
        <ele>845.617</ele>
        <time>2015-08-29T09:20:26Z</time>
      </trkpt>
      <trkpt lat="41.78988" lon="9.20537">
        <ele>850.424</ele>
        <time>2015-08-29T09:20:32Z</time>
      </trkpt>
      <trkpt lat="41.78996" lon="9.20535">
        <ele>858.594</ele>
        <time>2015-08-29T09:20:37Z</time>
      </trkpt>
      <trkpt lat="41.79003" lon="9.20531">
        <ele>857.153</ele>
        <time>2015-08-29T09:20:43Z</time>
      </trkpt>
      <trkpt lat="41.79008" lon="9.20528">
        <ele>856.672</ele>
        <time>2015-08-29T09:20:47Z</time>
      </trkpt>
      <trkpt lat="41.79012" lon="9.20525">
        <ele>856.672</ele>
        <time>2015-08-29T09:20:53Z</time>
      </trkpt>
      <trkpt lat="41.79025" lon="9.20516">
        <ele>853.788</ele>
        <time>2015-08-29T09:20:59Z</time>
      </trkpt>
      <trkpt lat="41.7903" lon="9.20513">
        <ele>853.788</ele>
        <time>2015-08-29T09:21:04Z</time>
      </trkpt>
      <trkpt lat="41.79039" lon="9.20508">
        <ele>859.075</ele>
        <time>2015-08-29T09:21:11Z</time>
      </trkpt>
      <trkpt lat="41.7905" lon="9.20503">
        <ele>855.711</ele>
        <time>2015-08-29T09:21:18Z</time>
      </trkpt>
      <trkpt lat="41.79059" lon="9.20495">
        <ele>853.788</ele>
        <time>2015-08-29T09:21:24Z</time>
      </trkpt>
      <trkpt lat="41.79063" lon="9.20489">
        <ele>854.749</ele>
        <time>2015-08-29T09:21:30Z</time>
      </trkpt>
      <trkpt lat="41.79066" lon="9.20479">
        <ele>853.307</ele>
        <time>2015-08-29T09:21:35Z</time>
      </trkpt>
      <trkpt lat="41.79064" lon="9.20459">
        <ele>844.175</ele>
        <time>2015-08-29T09:21:43Z</time>
      </trkpt>
      <trkpt lat="41.79063" lon="9.20457">
        <ele>843.694</ele>
        <time>2015-08-29T09:21:44Z</time>
      </trkpt>
      <trkpt lat="41.7906" lon="9.20448">
        <ele>835.523</ele>
        <time>2015-08-29T09:21:50Z</time>
      </trkpt>
      <trkpt lat="41.79051" lon="9.20434">
        <ele>832.158</ele>
        <time>2015-08-29T09:22:01Z</time>
      </trkpt>
      <trkpt lat="41.79051" lon="9.20433">
        <ele>832.158</ele>
        <time>2015-08-29T09:22:02Z</time>
      </trkpt>
      <trkpt lat="41.79048" lon="9.20427">
        <ele>834.081</ele>
        <time>2015-08-29T09:22:06Z</time>
      </trkpt>
      <trkpt lat="41.79045" lon="9.2042">
        <ele>835.042</ele>
        <time>2015-08-29T09:22:11Z</time>
      </trkpt>
      <trkpt lat="41.79042" lon="9.20413">
        <ele>836.004</ele>
        <time>2015-08-29T09:22:14Z</time>
      </trkpt>
      <trkpt lat="41.79038" lon="9.20393">
        <ele>836.965</ele>
        <time>2015-08-29T09:22:25Z</time>
      </trkpt>
      <trkpt lat="41.79038" lon="9.20375">
        <ele>851.865</ele>
        <time>2015-08-29T09:22:34Z</time>
      </trkpt>
      <trkpt lat="41.79039" lon="9.20372">
        <ele>853.307</ele>
        <time>2015-08-29T09:22:37Z</time>
      </trkpt>
      <trkpt lat="41.79043" lon="9.20361">
        <ele>859.075</ele>
        <time>2015-08-29T09:22:44Z</time>
      </trkpt>
      <trkpt lat="41.79044" lon="9.20359">
        <ele>861.959</ele>
        <time>2015-08-29T09:22:48Z</time>
      </trkpt>
      <trkpt lat="41.79047" lon="9.20354">
        <ele>863.882</ele>
        <time>2015-08-29T09:22:52Z</time>
      </trkpt>
      <trkpt lat="41.79051" lon="9.20347">
        <ele>865.324</ele>
        <time>2015-08-29T09:22:57Z</time>
      </trkpt>
      <trkpt lat="41.79053" lon="9.20344">
        <ele>866.285</ele>
        <time>2015-08-29T09:22:59Z</time>
      </trkpt>
      <trkpt lat="41.79059" lon="9.20335">
        <ele>869.65</ele>
        <time>2015-08-29T09:23:05Z</time>
      </trkpt>
      <trkpt lat="41.79063" lon="9.2033">
        <ele>871.572</ele>
        <time>2015-08-29T09:23:09Z</time>
      </trkpt>
      <trkpt lat="41.79067" lon="9.20324">
        <ele>871.572</ele>
        <time>2015-08-29T09:23:14Z</time>
      </trkpt>
      <trkpt lat="41.79071" lon="9.20317">
        <ele>875.417</ele>
        <time>2015-08-29T09:23:18Z</time>
      </trkpt>
      <trkpt lat="41.79074" lon="9.20313">
        <ele>877.341</ele>
        <time>2015-08-29T09:23:22Z</time>
      </trkpt>
      <trkpt lat="41.7908" lon="9.20302">
        <ele>887.434</ele>
        <time>2015-08-29T09:23:29Z</time>
      </trkpt>
      <trkpt lat="41.79084" lon="9.20288">
        <ele>896.086</ele>
        <time>2015-08-29T09:23:36Z</time>
      </trkpt>
      <trkpt lat="41.79087" lon="9.20274">
        <ele>895.125</ele>
        <time>2015-08-29T09:23:44Z</time>
      </trkpt>
      <trkpt lat="41.79089" lon="9.20264">
        <ele>888.876</ele>
        <time>2015-08-29T09:23:50Z</time>
      </trkpt>
      <trkpt lat="41.7909" lon="9.20258">
        <ele>885.992</ele>
        <time>2015-08-29T09:23:53Z</time>
      </trkpt>
      <trkpt lat="41.79092" lon="9.20245">
        <ele>883.108</ele>
        <time>2015-08-29T09:24:01Z</time>
      </trkpt>
      <trkpt lat="41.79091" lon="9.2023">
        <ele>881.186</ele>
        <time>2015-08-29T09:24:08Z</time>
      </trkpt>
      <trkpt lat="41.79089" lon="9.20218">
        <ele>879.744</ele>
        <time>2015-08-29T09:24:16Z</time>
      </trkpt>
      <trkpt lat="41.79088" lon="9.20211">
        <ele>882.147</ele>
        <time>2015-08-29T09:24:22Z</time>
      </trkpt>
      <trkpt lat="41.79087" lon="9.20203">
        <ele>881.666</ele>
        <time>2015-08-29T09:24:28Z</time>
      </trkpt>
      <trkpt lat="41.79086" lon="9.20198">
        <ele>881.666</ele>
        <time>2015-08-29T09:24:32Z</time>
      </trkpt>
      <trkpt lat="41.79086" lon="9.20193">
        <ele>878.782</ele>
        <time>2015-08-29T09:24:36Z</time>
      </trkpt>
      <trkpt lat="41.79085" lon="9.20188">
        <ele>877.821</ele>
        <time>2015-08-29T09:24:39Z</time>
      </trkpt>
      <trkpt lat="41.79084" lon="9.20174">
        <ele>883.108</ele>
        <time>2015-08-29T09:24:47Z</time>
      </trkpt>
      <trkpt lat="41.79082" lon="9.20161">
        <ele>885.031</ele>
        <time>2015-08-29T09:24:54Z</time>
      </trkpt>
      <trkpt lat="41.7908" lon="9.20145">
        <ele>887.434</ele>
        <time>2015-08-29T09:25:02Z</time>
      </trkpt>
      <trkpt lat="41.79078" lon="9.20134">
        <ele>891.279</ele>
        <time>2015-08-29T09:25:10Z</time>
      </trkpt>
      <trkpt lat="41.79078" lon="9.20125">
        <ele>892.722</ele>
        <time>2015-08-29T09:25:16Z</time>
      </trkpt>
      <trkpt lat="41.7908" lon="9.20114">
        <ele>897.528</ele>
        <time>2015-08-29T09:25:24Z</time>
      </trkpt>
      <trkpt lat="41.79088" lon="9.20106">
        <ele>900.412</ele>
        <time>2015-08-29T09:25:33Z</time>
      </trkpt>
      <trkpt lat="41.79094" lon="9.201">
        <ele>902.815</ele>
        <time>2015-08-29T09:25:39Z</time>
      </trkpt>
      <trkpt lat="41.79095" lon="9.20099">
        <ele>901.854</ele>
        <time>2015-08-29T09:25:40Z</time>
      </trkpt>
      <trkpt lat="41.79105" lon="9.20089">
        <ele>900.412</ele>
        <time>2015-08-29T09:25:48Z</time>
      </trkpt>
      <trkpt lat="41.79111" lon="9.20083">
        <ele>901.854</ele>
        <time>2015-08-29T09:25:53Z</time>
      </trkpt>
      <trkpt lat="41.79114" lon="9.20082">
        <ele>906.66</ele>
        <time>2015-08-29T09:25:57Z</time>
      </trkpt>
      <trkpt lat="41.79122" lon="9.20077">
        <ele>915.312</ele>
        <time>2015-08-29T09:26:05Z</time>
      </trkpt>
      <trkpt lat="41.79124" lon="9.20076">
        <ele>915.793</ele>
        <time>2015-08-29T09:26:06Z</time>
      </trkpt>
      <trkpt lat="41.79135" lon="9.20071">
        <ele>919.638</ele>
        <time>2015-08-29T09:26:15Z</time>
      </trkpt>
      <trkpt lat="41.7914" lon="9.20068">
        <ele>925.406</ele>
        <time>2015-08-29T09:26:22Z</time>
      </trkpt>
      <trkpt lat="41.79149" lon="9.20064">
        <ele>923.484</ele>
        <time>2015-08-29T09:26:29Z</time>
      </trkpt>
      <trkpt lat="41.79149" lon="9.20064">
        <ele>925.406</ele>
        <time>2015-08-29T09:26:30Z</time>
      </trkpt>
      <trkpt lat="41.79149" lon="9.20064">
        <ele>930.694</ele>
        <time>2015-08-29T09:26:36Z</time>
      </trkpt>
      <trkpt lat="41.79149" lon="9.20064">
        <ele>933.097</ele>
        <time>2015-08-29T09:26:43Z</time>
      </trkpt>
      <trkpt lat="41.79149" lon="9.20064">
        <ele>935.981</ele>
        <time>2015-08-29T09:27:49Z</time>
      </trkpt>
      <trkpt lat="41.79165" lon="9.20056">
        <ele>948.478</ele>
        <time>2015-08-29T09:27:55Z</time>
      </trkpt>
      <trkpt lat="41.7915" lon="9.20064">
        <ele>926.368</ele>
        <time>2015-08-29T09:28:14Z</time>
      </trkpt>
      <trkpt lat="41.7915" lon="9.20064">
        <ele>945.113</ele>
        <time>2015-08-29T09:29:30Z</time>
      </trkpt>
      <trkpt lat="41.7915" lon="9.20064">
        <ele>938.384</ele>
        <time>2015-08-29T09:29:37Z</time>
      </trkpt>
      <trkpt lat="41.7915" lon="9.20064">
        <ele>920.6</ele>
        <time>2015-08-29T09:30:32Z</time>
      </trkpt>
      <trkpt lat="41.79162" lon="9.20057">
        <ele>920.119</ele>
        <time>2015-08-29T09:30:38Z</time>
      </trkpt>
      <trkpt lat="41.79163" lon="9.20056">
        <ele>921.561</ele>
        <time>2015-08-29T09:30:40Z</time>
      </trkpt>
      <trkpt lat="41.79171" lon="9.20051">
        <ele>916.754</ele>
        <time>2015-08-29T09:30:46Z</time>
      </trkpt>
      <trkpt lat="41.7918" lon="9.20043">
        <ele>919.638</ele>
        <time>2015-08-29T09:30:53Z</time>
      </trkpt>
      <trkpt lat="41.79188" lon="9.20036">
        <ele>922.042</ele>
        <time>2015-08-29T09:30:59Z</time>
      </trkpt>
      <trkpt lat="41.79198" lon="9.20029">
        <ele>920.119</ele>
        <time>2015-08-29T09:31:06Z</time>
      </trkpt>
      <trkpt lat="41.79211" lon="9.2002">
        <ele>919.638</ele>
        <time>2015-08-29T09:31:12Z</time>
      </trkpt>
      <trkpt lat="41.79217" lon="9.20017">
        <ele>922.522</ele>
        <time>2015-08-29T09:31:15Z</time>
      </trkpt>
      <trkpt lat="41.79223" lon="9.20013">
        <ele>927.329</ele>
        <time>2015-08-29T09:31:20Z</time>
      </trkpt>
      <trkpt lat="41.79233" lon="9.20005">
        <ele>923.964</ele>
        <time>2015-08-29T09:31:26Z</time>
      </trkpt>
      <trkpt lat="41.79244" lon="9.19997">
        <ele>924.926</ele>
        <time>2015-08-29T09:31:32Z</time>
      </trkpt>
      <trkpt lat="41.79246" lon="9.19996">
        <ele>923.484</ele>
        <time>2015-08-29T09:31:33Z</time>
      </trkpt>
      <trkpt lat="41.79259" lon="9.19987">
        <ele>926.848</ele>
        <time>2015-08-29T09:31:40Z</time>
      </trkpt>
      <trkpt lat="41.79272" lon="9.19973">
        <ele>921.561</ele>
        <time>2015-08-29T09:31:48Z</time>
      </trkpt>
      <trkpt lat="41.79275" lon="9.19966">
        <ele>930.694</ele>
        <time>2015-08-29T09:31:51Z</time>
      </trkpt>
      <trkpt lat="41.79271" lon="9.19951">
        <ele>942.71</ele>
        <time>2015-08-29T09:31:56Z</time>
      </trkpt>
      <trkpt lat="41.79261" lon="9.19947">
        <ele>950.401</ele>
        <time>2015-08-29T09:32:00Z</time>
      </trkpt>
      <trkpt lat="41.79246" lon="9.19941">
        <ele>950.881</ele>
        <time>2015-08-29T09:32:07Z</time>
      </trkpt>
      <trkpt lat="41.79233" lon="9.19929">
        <ele>945.113</ele>
        <time>2015-08-29T09:32:15Z</time>
      </trkpt>
      <trkpt lat="41.79228" lon="9.19914">
        <ele>932.135</ele>
        <time>2015-08-29T09:32:21Z</time>
      </trkpt>
      <trkpt lat="41.79233" lon="9.19893">
        <ele>925.887</ele>
        <time>2015-08-29T09:32:27Z</time>
      </trkpt>
      <trkpt lat="41.79239" lon="9.19863">
        <ele>917.235</ele>
        <time>2015-08-29T09:32:35Z</time>
      </trkpt>
      <trkpt lat="41.79238" lon="9.19839">
        <ele>910.506</ele>
        <time>2015-08-29T09:32:42Z</time>
      </trkpt>
      <trkpt lat="41.79235" lon="9.19806">
        <ele>902.815</ele>
        <time>2015-08-29T09:32:51Z</time>
      </trkpt>
      <trkpt lat="41.79235" lon="9.19771">
        <ele>902.334</ele>
        <time>2015-08-29T09:33:00Z</time>
      </trkpt>
      <trkpt lat="41.79236" lon="9.19738">
        <ele>902.334</ele>
        <time>2015-08-29T09:33:09Z</time>
      </trkpt>
      <trkpt lat="41.79235" lon="9.19716">
        <ele>902.334</ele>
        <time>2015-08-29T09:33:16Z</time>
      </trkpt>
      <trkpt lat="41.79229" lon="9.19699">
        <ele>901.854</ele>
        <time>2015-08-29T09:33:22Z</time>
      </trkpt>
      <trkpt lat="41.79228" lon="9.19678">
        <ele>902.815</ele>
        <time>2015-08-29T09:33:28Z</time>
      </trkpt>
      <trkpt lat="41.79227" lon="9.19657">
        <ele>905.699</ele>
        <time>2015-08-29T09:33:34Z</time>
      </trkpt>
      <trkpt lat="41.79223" lon="9.19642">
        <ele>908.103</ele>
        <time>2015-08-29T09:33:39Z</time>
      </trkpt>
      <trkpt lat="41.79218" lon="9.19617">
        <ele>910.506</ele>
        <time>2015-08-29T09:33:47Z</time>
      </trkpt>
      <trkpt lat="41.79214" lon="9.19596">
        <ele>911.467</ele>
        <time>2015-08-29T09:33:53Z</time>
      </trkpt>
      <trkpt lat="41.79213" lon="9.19573">
        <ele>920.119</ele>
        <time>2015-08-29T09:33:59Z</time>
      </trkpt>
      <trkpt lat="41.79214" lon="9.19561">
        <ele>932.135</ele>
        <time>2015-08-29T09:34:04Z</time>
      </trkpt>
      <trkpt lat="41.79223" lon="9.1954">
        <ele>929.732</ele>
        <time>2015-08-29T09:34:11Z</time>
      </trkpt>
      <trkpt lat="41.79238" lon="9.19513">
        <ele>934.058</ele>
        <time>2015-08-29T09:34:20Z</time>
      </trkpt>
      <trkpt lat="41.79245" lon="9.19494">
        <ele>943.191</ele>
        <time>2015-08-29T09:34:26Z</time>
      </trkpt>
      <trkpt lat="41.79249" lon="9.19478">
        <ele>944.152</ele>
        <time>2015-08-29T09:34:32Z</time>
      </trkpt>
      <trkpt lat="41.79255" lon="9.19461">
        <ele>937.423</ele>
        <time>2015-08-29T09:34:38Z</time>
      </trkpt>
      <trkpt lat="41.7926" lon="9.19446">
        <ele>935.5</ele>
        <time>2015-08-29T09:34:43Z</time>
      </trkpt>
      <trkpt lat="41.79266" lon="9.19429">
        <ele>929.251</ele>
        <time>2015-08-29T09:34:48Z</time>
      </trkpt>
      <trkpt lat="41.79274" lon="9.1941">
        <ele>925.406</ele>
        <time>2015-08-29T09:34:54Z</time>
      </trkpt>
      <trkpt lat="41.79281" lon="9.19386">
        <ele>936.942</ele>
        <time>2015-08-29T09:35:01Z</time>
      </trkpt>
      <trkpt lat="41.79275" lon="9.19359">
        <ele>953.765</ele>
        <time>2015-08-29T09:35:08Z</time>
      </trkpt>
      <trkpt lat="41.7927" lon="9.19342">
        <ele>952.323</ele>
        <time>2015-08-29T09:35:14Z</time>
      </trkpt>
      <trkpt lat="41.79267" lon="9.19321">
        <ele>946.075</ele>
        <time>2015-08-29T09:35:20Z</time>
      </trkpt>
      <trkpt lat="41.79268" lon="9.19302">
        <ele>947.517</ele>
        <time>2015-08-29T09:35:25Z</time>
      </trkpt>
      <trkpt lat="41.79272" lon="9.19271">
        <ele>947.517</ele>
        <time>2015-08-29T09:35:33Z</time>
      </trkpt>
      <trkpt lat="41.79278" lon="9.19248">
        <ele>945.594</ele>
        <time>2015-08-29T09:35:40Z</time>
      </trkpt>
      <trkpt lat="41.79291" lon="9.1924">
        <ele>943.671</ele>
        <time>2015-08-29T09:35:46Z</time>
      </trkpt>
      <trkpt lat="41.79303" lon="9.19234">
        <ele>941.749</ele>
        <time>2015-08-29T09:35:51Z</time>
      </trkpt>
      <trkpt lat="41.7932" lon="9.19225">
        <ele>934.539</ele>
        <time>2015-08-29T09:35:57Z</time>
      </trkpt>
      <trkpt lat="41.79334" lon="9.1921">
        <ele>932.616</ele>
        <time>2015-08-29T09:36:03Z</time>
      </trkpt>
      <trkpt lat="41.79344" lon="9.19197">
        <ele>931.174</ele>
        <time>2015-08-29T09:36:08Z</time>
      </trkpt>
      <trkpt lat="41.79356" lon="9.19184">
        <ele>936.942</ele>
        <time>2015-08-29T09:36:13Z</time>
      </trkpt>
      <trkpt lat="41.7937" lon="9.19176">
        <ele>943.671</ele>
        <time>2015-08-29T09:36:18Z</time>
      </trkpt>
      <trkpt lat="41.79376" lon="9.19173">
        <ele>948.958</ele>
        <time>2015-08-29T09:36:21Z</time>
      </trkpt>
      <trkpt lat="41.79391" lon="9.19156">
        <ele>941.268</ele>
        <time>2015-08-29T09:36:27Z</time>
      </trkpt>
      <trkpt lat="41.79398" lon="9.19136">
        <ele>943.671</ele>
        <time>2015-08-29T09:36:32Z</time>
      </trkpt>
      <trkpt lat="41.79397" lon="9.19114">
        <ele>953.765</ele>
        <time>2015-08-29T09:36:37Z</time>
      </trkpt>
      <trkpt lat="41.7939" lon="9.19095">
        <ele>959.052</ele>
        <time>2015-08-29T09:36:42Z</time>
      </trkpt>
      <trkpt lat="41.79391" lon="9.19073">
        <ele>951.843</ele>
        <time>2015-08-29T09:36:48Z</time>
      </trkpt>
      <trkpt lat="41.79386" lon="9.19049">
        <ele>950.401</ele>
        <time>2015-08-29T09:36:54Z</time>
      </trkpt>
      <trkpt lat="41.79389" lon="9.19031">
        <ele>941.268</ele>
        <time>2015-08-29T09:36:59Z</time>
      </trkpt>
      <trkpt lat="41.79392" lon="9.19024">
        <ele>939.826</ele>
        <time>2015-08-29T09:37:01Z</time>
      </trkpt>
      <trkpt lat="41.79404" lon="9.19012">
        <ele>937.903</ele>
        <time>2015-08-29T09:37:07Z</time>
      </trkpt>
      <trkpt lat="41.79406" lon="9.1901">
        <ele>937.903</ele>
        <time>2015-08-29T09:37:08Z</time>
      </trkpt>
      <trkpt lat="41.79427" lon="9.19004">
        <ele>939.345</ele>
        <time>2015-08-29T09:37:15Z</time>
      </trkpt>
      <trkpt lat="41.79443" lon="9.19001">
        <ele>940.307</ele>
        <time>2015-08-29T09:37:20Z</time>
      </trkpt>
      <trkpt lat="41.79455" lon="9.18988">
        <ele>940.307</ele>
        <time>2015-08-29T09:37:25Z</time>
      </trkpt>
      <trkpt lat="41.79471" lon="9.18967">
        <ele>939.345</ele>
        <time>2015-08-29T09:37:33Z</time>
      </trkpt>
      <trkpt lat="41.79487" lon="9.18952">
        <ele>939.345</ele>
        <time>2015-08-29T09:37:40Z</time>
      </trkpt>
      <trkpt lat="41.79506" lon="9.18941">
        <ele>945.594</ele>
        <time>2015-08-29T09:37:48Z</time>
      </trkpt>
      <trkpt lat="41.79525" lon="9.1894">
        <ele>950.881</ele>
        <time>2015-08-29T09:37:55Z</time>
      </trkpt>
      <trkpt lat="41.79534" lon="9.18933">
        <ele>952.323</ele>
        <time>2015-08-29T09:38:00Z</time>
      </trkpt>
      <trkpt lat="41.79548" lon="9.18923">
        <ele>950.881</ele>
        <time>2015-08-29T09:38:06Z</time>
      </trkpt>
      <trkpt lat="41.79577" lon="9.18913">
        <ele>949.92</ele>
        <time>2015-08-29T09:38:17Z</time>
      </trkpt>
      <trkpt lat="41.79602" lon="9.18906">
        <ele>951.362</ele>
        <time>2015-08-29T09:38:27Z</time>
      </trkpt>
      <trkpt lat="41.79619" lon="9.18914">
        <ele>953.284</ele>
        <time>2015-08-29T09:38:35Z</time>
      </trkpt>
      <trkpt lat="41.7963" lon="9.18917">
        <ele>953.284</ele>
        <time>2015-08-29T09:38:41Z</time>
      </trkpt>
      <trkpt lat="41.79641" lon="9.18906">
        <ele>951.843</ele>
        <time>2015-08-29T09:38:46Z</time>
      </trkpt>
      <trkpt lat="41.79652" lon="9.18886">
        <ele>950.401</ele>
        <time>2015-08-29T09:38:53Z</time>
      </trkpt>
      <trkpt lat="41.79668" lon="9.18873">
        <ele>960.975</ele>
        <time>2015-08-29T09:39:01Z</time>
      </trkpt>
      <trkpt lat="41.79678" lon="9.18866">
        <ele>961.456</ele>
        <time>2015-08-29T09:39:06Z</time>
      </trkpt>
      <trkpt lat="41.79689" lon="9.18861">
        <ele>962.898</ele>
        <time>2015-08-29T09:39:11Z</time>
      </trkpt>
      <trkpt lat="41.79707" lon="9.18862">
        <ele>961.937</ele>
        <time>2015-08-29T09:39:18Z</time>
      </trkpt>
      <trkpt lat="41.79723" lon="9.18866">
        <ele>962.417</ele>
        <time>2015-08-29T09:39:25Z</time>
      </trkpt>
      <trkpt lat="41.79737" lon="9.18868">
        <ele>972.03</ele>
        <time>2015-08-29T09:39:32Z</time>
      </trkpt>
      <trkpt lat="41.79753" lon="9.18868">
        <ele>972.511</ele>
        <time>2015-08-29T09:39:38Z</time>
      </trkpt>
      <trkpt lat="41.79767" lon="9.18866">
        <ele>972.511</ele>
        <time>2015-08-29T09:39:44Z</time>
      </trkpt>
      <trkpt lat="41.79783" lon="9.18864">
        <ele>970.107</ele>
        <time>2015-08-29T09:39:51Z</time>
      </trkpt>
      <trkpt lat="41.79794" lon="9.18868">
        <ele>969.627</ele>
        <time>2015-08-29T09:39:56Z</time>
      </trkpt>
      <trkpt lat="41.79811" lon="9.18884">
        <ele>970.107</ele>
        <time>2015-08-29T09:40:05Z</time>
      </trkpt>
      <trkpt lat="41.79814" lon="9.18886">
        <ele>969.146</ele>
        <time>2015-08-29T09:40:06Z</time>
      </trkpt>
      <trkpt lat="41.79825" lon="9.18883">
        <ele>969.146</ele>
        <time>2015-08-29T09:40:10Z</time>
      </trkpt>
      <trkpt lat="41.79843" lon="9.1887">
        <ele>965.301</ele>
        <time>2015-08-29T09:40:18Z</time>
      </trkpt>
      <trkpt lat="41.7986" lon="9.18869">
        <ele>971.549</ele>
        <time>2015-08-29T09:40:25Z</time>
      </trkpt>
      <trkpt lat="41.79882" lon="9.18872">
        <ele>974.434</ele>
        <time>2015-08-29T09:40:33Z</time>
      </trkpt>
      <trkpt lat="41.79895" lon="9.18876">
        <ele>973.953</ele>
        <time>2015-08-29T09:40:38Z</time>
      </trkpt>
      <trkpt lat="41.79909" lon="9.18882">
        <ele>970.107</ele>
        <time>2015-08-29T09:40:44Z</time>
      </trkpt>
      <trkpt lat="41.79934" lon="9.18895">
        <ele>966.262</ele>
        <time>2015-08-29T09:40:54Z</time>
      </trkpt>
      <trkpt lat="41.79949" lon="9.189">
        <ele>966.743</ele>
        <time>2015-08-29T09:41:00Z</time>
      </trkpt>
      <trkpt lat="41.7997" lon="9.18907">
        <ele>964.82</ele>
        <time>2015-08-29T09:41:08Z</time>
      </trkpt>
      <trkpt lat="41.79986" lon="9.18921">
        <ele>965.301</ele>
        <time>2015-08-29T09:41:15Z</time>
      </trkpt>
      <trkpt lat="41.79999" lon="9.18935">
        <ele>966.262</ele>
        <time>2015-08-29T09:41:22Z</time>
      </trkpt>
      <trkpt lat="41.80011" lon="9.18947">
        <ele>965.301</ele>
        <time>2015-08-29T09:41:28Z</time>
      </trkpt>
      <trkpt lat="41.80025" lon="9.18962">
        <ele>966.262</ele>
        <time>2015-08-29T09:41:35Z</time>
      </trkpt>
      <trkpt lat="41.80037" lon="9.18976">
        <ele>967.704</ele>
        <time>2015-08-29T09:41:42Z</time>
      </trkpt>
      <trkpt lat="41.80052" lon="9.18994">
        <ele>968.185</ele>
        <time>2015-08-29T09:41:52Z</time>
      </trkpt>
      <trkpt lat="41.80061" lon="9.19003">
        <ele>966.743</ele>
        <time>2015-08-29T09:41:58Z</time>
      </trkpt>
      <trkpt lat="41.80075" lon="9.19012">
        <ele>969.627</ele>
        <time>2015-08-29T09:42:06Z</time>
      </trkpt>
      <trkpt lat="41.80089" lon="9.19013">
        <ele>973.472</ele>
        <time>2015-08-29T09:42:14Z</time>
      </trkpt>
      <trkpt lat="41.80102" lon="9.19011">
        <ele>978.76</ele>
        <time>2015-08-29T09:42:21Z</time>
      </trkpt>
      <trkpt lat="41.80123" lon="9.19006">
        <ele>977.798</ele>
        <time>2015-08-29T09:42:30Z</time>
      </trkpt>
      <trkpt lat="41.80142" lon="9.19001">
        <ele>979.721</ele>
        <time>2015-08-29T09:42:38Z</time>
      </trkpt>
      <trkpt lat="41.80159" lon="9.19006">
        <ele>977.318</ele>
        <time>2015-08-29T09:42:45Z</time>
      </trkpt>
      <trkpt lat="41.80168" lon="9.19014">
        <ele>976.356</ele>
        <time>2015-08-29T09:42:51Z</time>
      </trkpt>
      <trkpt lat="41.80177" lon="9.19034">
        <ele>975.875</ele>
        <time>2015-08-29T09:42:58Z</time>
      </trkpt>
      <trkpt lat="41.80184" lon="9.19065">
        <ele>976.356</ele>
        <time>2015-08-29T09:43:07Z</time>
      </trkpt>
      <trkpt lat="41.80196" lon="9.19088">
        <ele>975.875</ele>
        <time>2015-08-29T09:43:14Z</time>
      </trkpt>
      <trkpt lat="41.80197" lon="9.19105">
        <ele>976.837</ele>
        <time>2015-08-29T09:43:19Z</time>
      </trkpt>
      <trkpt lat="41.80197" lon="9.19132">
        <ele>977.798</ele>
        <time>2015-08-29T09:43:26Z</time>
      </trkpt>
      <trkpt lat="41.80213" lon="9.19157">
        <ele>976.837</ele>
        <time>2015-08-29T09:43:34Z</time>
      </trkpt>
      <trkpt lat="41.80229" lon="9.19172">
        <ele>977.318</ele>
        <time>2015-08-29T09:43:41Z</time>
      </trkpt>
      <trkpt lat="41.80245" lon="9.19186">
        <ele>976.837</ele>
        <time>2015-08-29T09:43:47Z</time>
      </trkpt>
      <trkpt lat="41.80257" lon="9.19197">
        <ele>976.356</ele>
        <time>2015-08-29T09:43:52Z</time>
      </trkpt>
      <trkpt lat="41.80271" lon="9.19208">
        <ele>978.279</ele>
        <time>2015-08-29T09:43:58Z</time>
      </trkpt>
      <trkpt lat="41.80283" lon="9.19216">
        <ele>977.798</ele>
        <time>2015-08-29T09:44:03Z</time>
      </trkpt>
      <trkpt lat="41.80301" lon="9.19218">
        <ele>980.201</ele>
        <time>2015-08-29T09:44:10Z</time>
      </trkpt>
      <trkpt lat="41.8032" lon="9.19215">
        <ele>982.605</ele>
        <time>2015-08-29T09:44:17Z</time>
      </trkpt>
      <trkpt lat="41.80343" lon="9.19208">
        <ele>985.008</ele>
        <time>2015-08-29T09:44:26Z</time>
      </trkpt>
      <trkpt lat="41.8035" lon="9.19203">
        <ele>981.643</ele>
        <time>2015-08-29T09:44:31Z</time>
      </trkpt>
      <trkpt lat="41.8035" lon="9.19203">
        <ele>981.643</ele>
        <time>2015-08-29T09:44:33Z</time>
      </trkpt>
      <trkpt lat="41.80351" lon="9.19198">
        <ele>981.163</ele>
        <time>2015-08-29T09:44:44Z</time>
      </trkpt>
      <trkpt lat="41.80333" lon="9.19174">
        <ele>964.82</ele>
        <time>2015-08-29T09:45:36Z</time>
      </trkpt>
      <trkpt lat="41.80331" lon="9.1917">
        <ele>961.456</ele>
        <time>2015-08-29T09:45:43Z</time>
      </trkpt>
      <trkpt lat="41.80347" lon="9.19186">
        <ele>976.356</ele>
        <time>2015-08-29T09:47:10Z</time>
      </trkpt>
      <trkpt lat="41.80365" lon="9.1919">
        <ele>981.163</ele>
        <time>2015-08-29T09:47:18Z</time>
      </trkpt>
      <trkpt lat="41.80369" lon="9.19186">
        <ele>980.201</ele>
        <time>2015-08-29T09:47:20Z</time>
      </trkpt>
      <trkpt lat="41.80388" lon="9.19173">
        <ele>978.76</ele>
        <time>2015-08-29T09:47:28Z</time>
      </trkpt>
      <trkpt lat="41.80409" lon="9.19168">
        <ele>978.76</ele>
        <time>2015-08-29T09:47:35Z</time>
      </trkpt>
      <trkpt lat="41.80427" lon="9.19166">
        <ele>980.682</ele>
        <time>2015-08-29T09:47:41Z</time>
      </trkpt>
      <trkpt lat="41.80451" lon="9.19156">
        <ele>978.76</ele>
        <time>2015-08-29T09:47:49Z</time>
      </trkpt>
      <trkpt lat="41.80474" lon="9.1916">
        <ele>980.682</ele>
        <time>2015-08-29T09:47:57Z</time>
      </trkpt>
      <trkpt lat="41.80488" lon="9.19169">
        <ele>986.45</ele>
        <time>2015-08-29T09:48:03Z</time>
      </trkpt>
      <trkpt lat="41.80509" lon="9.19183">
        <ele>988.854</ele>
        <time>2015-08-29T09:48:10Z</time>
      </trkpt>
      <trkpt lat="41.80533" lon="9.19196">
        <ele>985.489</ele>
        <time>2015-08-29T09:48:19Z</time>
      </trkpt>
      <trkpt lat="41.8055" lon="9.19208">
        <ele>986.45</ele>
        <time>2015-08-29T09:48:25Z</time>
      </trkpt>
      <trkpt lat="41.80567" lon="9.19219">
        <ele>984.047</ele>
        <time>2015-08-29T09:48:31Z</time>
      </trkpt>
      <trkpt lat="41.80579" lon="9.19233">
        <ele>981.163</ele>
        <time>2015-08-29T09:48:36Z</time>
      </trkpt>
      <trkpt lat="41.80584" lon="9.19259">
        <ele>979.721</ele>
        <time>2015-08-29T09:48:43Z</time>
      </trkpt>
      <trkpt lat="41.80591" lon="9.19274">
        <ele>979.721</ele>
        <time>2015-08-29T09:48:49Z</time>
      </trkpt>
      <trkpt lat="41.80599" lon="9.19289">
        <ele>979.721</ele>
        <time>2015-08-29T09:48:56Z</time>
      </trkpt>
      <trkpt lat="41.8061" lon="9.19305">
        <ele>980.201</ele>
        <time>2015-08-29T09:49:06Z</time>
      </trkpt>
      <trkpt lat="41.80619" lon="9.19318">
        <ele>983.566</ele>
        <time>2015-08-29T09:49:14Z</time>
      </trkpt>
      <trkpt lat="41.80627" lon="9.19329">
        <ele>986.45</ele>
        <time>2015-08-29T09:49:21Z</time>
      </trkpt>
      <trkpt lat="41.80636" lon="9.1934">
        <ele>988.854</ele>
        <time>2015-08-29T09:49:28Z</time>
      </trkpt>
      <trkpt lat="41.80646" lon="9.19352">
        <ele>987.411</ele>
        <time>2015-08-29T09:49:35Z</time>
      </trkpt>
      <trkpt lat="41.8066" lon="9.19369">
        <ele>986.45</ele>
        <time>2015-08-29T09:49:41Z</time>
      </trkpt>
      <trkpt lat="41.80679" lon="9.19377">
        <ele>986.45</ele>
        <time>2015-08-29T09:49:46Z</time>
      </trkpt>
      <trkpt lat="41.80709" lon="9.19388">
        <ele>981.163</ele>
        <time>2015-08-29T09:49:53Z</time>
      </trkpt>
      <trkpt lat="41.80731" lon="9.19397">
        <ele>982.605</ele>
        <time>2015-08-29T09:50:00Z</time>
      </trkpt>
      <trkpt lat="41.80748" lon="9.19408">
        <ele>982.124</ele>
        <time>2015-08-29T09:50:07Z</time>
      </trkpt>
      <trkpt lat="41.80764" lon="9.19419">
        <ele>985.008</ele>
        <time>2015-08-29T09:50:16Z</time>
      </trkpt>
      <trkpt lat="41.80774" lon="9.19425">
        <ele>988.373</ele>
        <time>2015-08-29T09:50:22Z</time>
      </trkpt>
      <trkpt lat="41.80787" lon="9.19434">
        <ele>991.257</ele>
        <time>2015-08-29T09:50:30Z</time>
      </trkpt>
      <trkpt lat="41.80798" lon="9.19441">
        <ele>997.024</ele>
        <time>2015-08-29T09:50:37Z</time>
      </trkpt>
      <trkpt lat="41.80813" lon="9.19451">
        <ele>997.505</ele>
        <time>2015-08-29T09:50:45Z</time>
      </trkpt>
      <trkpt lat="41.80823" lon="9.19457">
        <ele>985.008</ele>
        <time>2015-08-29T09:50:53Z</time>
      </trkpt>
      <trkpt lat="41.80832" lon="9.19463">
        <ele>988.373</ele>
        <time>2015-08-29T09:50:59Z</time>
      </trkpt>
      <trkpt lat="41.80845" lon="9.19472">
        <ele>990.295</ele>
        <time>2015-08-29T09:51:08Z</time>
      </trkpt>
      <trkpt lat="41.8086" lon="9.19484">
        <ele>993.66</ele>
        <time>2015-08-29T09:51:16Z</time>
      </trkpt>
      <trkpt lat="41.80875" lon="9.19496">
        <ele>997.505</ele>
        <time>2015-08-29T09:51:25Z</time>
      </trkpt>
      <trkpt lat="41.80895" lon="9.19503">
        <ele>997.024</ele>
        <time>2015-08-29T09:51:32Z</time>
      </trkpt>
      <trkpt lat="41.80911" lon="9.19513">
        <ele>993.66</ele>
        <time>2015-08-29T09:51:38Z</time>
      </trkpt>
      <trkpt lat="41.8093" lon="9.19526">
        <ele>996.063</ele>
        <time>2015-08-29T09:51:45Z</time>
      </trkpt>
      <trkpt lat="41.80946" lon="9.19542">
        <ele>997.986</ele>
        <time>2015-08-29T09:51:52Z</time>
      </trkpt>
      <trkpt lat="41.80967" lon="9.19559">
        <ele>995.583</ele>
        <time>2015-08-29T09:52:01Z</time>
      </trkpt>
      <trkpt lat="41.80979" lon="9.19566">
        <ele>992.699</ele>
        <time>2015-08-29T09:52:06Z</time>
      </trkpt>
      <trkpt lat="41.8099" lon="9.19573">
        <ele>997.024</ele>
        <time>2015-08-29T09:52:14Z</time>
      </trkpt>
      <trkpt lat="41.80995" lon="9.19578">
        <ele>998.466</ele>
        <time>2015-08-29T09:52:19Z</time>
      </trkpt>
      <trkpt lat="41.80995" lon="9.19578">
        <ele>1000.87</ele>
        <time>2015-08-29T09:52:39Z</time>
      </trkpt>
      <trkpt lat="41.80995" lon="9.19578">
        <ele>993.179</ele>
        <time>2015-08-29T09:52:52Z</time>
      </trkpt>
      <trkpt lat="41.80985" lon="9.19568">
        <ele>1005.677</ele>
        <time>2015-08-29T09:53:03Z</time>
      </trkpt>
      <trkpt lat="41.80977" lon="9.19565">
        <ele>1014.328</ele>
        <time>2015-08-29T09:53:08Z</time>
      </trkpt>
      <trkpt lat="41.80979" lon="9.19566">
        <ele>1010.483</ele>
        <time>2015-08-29T09:53:12Z</time>
      </trkpt>
      <trkpt lat="41.80991" lon="9.19573">
        <ele>1004.235</ele>
        <time>2015-08-29T09:53:19Z</time>
      </trkpt>
      <trkpt lat="41.80999" lon="9.19583">
        <ele>1009.041</ele>
        <time>2015-08-29T09:53:25Z</time>
      </trkpt>
      <trkpt lat="41.81012" lon="9.19594">
        <ele>1009.522</ele>
        <time>2015-08-29T09:53:35Z</time>
      </trkpt>
      <trkpt lat="41.81019" lon="9.19603">
        <ele>1008.56</ele>
        <time>2015-08-29T09:53:41Z</time>
      </trkpt>
      <trkpt lat="41.81027" lon="9.19597">
        <ele>1015.77</ele>
        <time>2015-08-29T09:53:47Z</time>
      </trkpt>
      <trkpt lat="41.81026" lon="9.19594">
        <ele>1018.654</ele>
        <time>2015-08-29T09:53:49Z</time>
      </trkpt>
      <trkpt lat="41.81019" lon="9.19579">
        <ele>1024.422</ele>
        <time>2015-08-29T09:53:57Z</time>
      </trkpt>
      <trkpt lat="41.81021" lon="9.19569">
        <ele>1030.19</ele>
        <time>2015-08-29T09:54:04Z</time>
      </trkpt>
      <trkpt lat="41.81031" lon="9.1957">
        <ele>1024.422</ele>
        <time>2015-08-29T09:54:11Z</time>
      </trkpt>
      <trkpt lat="41.81036" lon="9.19571">
        <ele>1019.615</ele>
        <time>2015-08-29T09:54:18Z</time>
      </trkpt>
      <trkpt lat="41.81048" lon="9.19576">
        <ele>1021.058</ele>
        <time>2015-08-29T09:54:26Z</time>
      </trkpt>
      <trkpt lat="41.81056" lon="9.1958">
        <ele>1017.693</ele>
        <time>2015-08-29T09:54:34Z</time>
      </trkpt>
      <trkpt lat="41.81065" lon="9.19584">
        <ele>1018.173</ele>
        <time>2015-08-29T09:54:42Z</time>
      </trkpt>
      <trkpt lat="41.81068" lon="9.19586">
        <ele>1015.77</ele>
        <time>2015-08-29T09:54:47Z</time>
      </trkpt>
      <trkpt lat="41.81071" lon="9.19587">
        <ele>1016.731</ele>
        <time>2015-08-29T09:54:48Z</time>
      </trkpt>
      <trkpt lat="41.81077" lon="9.1959">
        <ele>1014.328</ele>
        <time>2015-08-29T09:54:54Z</time>
      </trkpt>
      <trkpt lat="41.81088" lon="9.19592">
        <ele>1017.693</ele>
        <time>2015-08-29T09:55:01Z</time>
      </trkpt>
      <trkpt lat="41.81098" lon="9.19594">
        <ele>1022.5</ele>
        <time>2015-08-29T09:55:08Z</time>
      </trkpt>
      <trkpt lat="41.81109" lon="9.19596">
        <ele>1026.345</ele>
        <time>2015-08-29T09:55:16Z</time>
      </trkpt>
      <trkpt lat="41.81119" lon="9.19599">
        <ele>1026.825</ele>
        <time>2015-08-29T09:55:23Z</time>
      </trkpt>
      <trkpt lat="41.81132" lon="9.196">
        <ele>1026.825</ele>
        <time>2015-08-29T09:55:32Z</time>
      </trkpt>
      <trkpt lat="41.81142" lon="9.19597">
        <ele>1027.787</ele>
        <time>2015-08-29T09:55:39Z</time>
      </trkpt>
      <trkpt lat="41.81155" lon="9.19602">
        <ele>1035.958</ele>
        <time>2015-08-29T09:55:48Z</time>
      </trkpt>
      <trkpt lat="41.81161" lon="9.19603">
        <ele>1036.919</ele>
        <time>2015-08-29T09:55:54Z</time>
      </trkpt>
      <trkpt lat="41.8117" lon="9.19605">
        <ele>1038.842</ele>
        <time>2015-08-29T09:56:03Z</time>
      </trkpt>
      <trkpt lat="41.81171" lon="9.19605">
        <ele>1039.803</ele>
        <time>2015-08-29T09:56:04Z</time>
      </trkpt>
      <trkpt lat="41.81178" lon="9.19606">
        <ele>1051.82</ele>
        <time>2015-08-29T09:56:10Z</time>
      </trkpt>
      <trkpt lat="41.81186" lon="9.19606">
        <ele>1058.549</ele>
        <time>2015-08-29T09:56:16Z</time>
      </trkpt>
      <trkpt lat="41.81198" lon="9.19604">
        <ele>1059.991</ele>
        <time>2015-08-29T09:56:23Z</time>
      </trkpt>
      <trkpt lat="41.81209" lon="9.19601">
        <ele>1058.068</ele>
        <time>2015-08-29T09:56:30Z</time>
      </trkpt>
      <trkpt lat="41.81219" lon="9.19597">
        <ele>1061.433</ele>
        <time>2015-08-29T09:56:38Z</time>
      </trkpt>
      <trkpt lat="41.81226" lon="9.19595">
        <ele>1060.952</ele>
        <time>2015-08-29T09:56:43Z</time>
      </trkpt>
      <trkpt lat="41.81228" lon="9.19593">
        <ele>1058.549</ele>
        <time>2015-08-29T09:56:45Z</time>
      </trkpt>
      <trkpt lat="41.81232" lon="9.19588">
        <ele>1060.471</ele>
        <time>2015-08-29T09:56:51Z</time>
      </trkpt>
      <trkpt lat="41.81229" lon="9.19586">
        <ele>1066.72</ele>
        <time>2015-08-29T09:56:54Z</time>
      </trkpt>
      <trkpt lat="41.81227" lon="9.19583">
        <ele>1075.853</ele>
        <time>2015-08-29T09:56:58Z</time>
      </trkpt>
      <trkpt lat="41.81222" lon="9.19578">
        <ele>1096.04</ele>
        <time>2015-08-29T09:59:36Z</time>
      </trkpt>
      <trkpt lat="41.81215" lon="9.19575">
        <ele>1077.775</ele>
        <time>2015-08-29T09:59:42Z</time>
      </trkpt>
      <trkpt lat="41.81215" lon="9.19575">
        <ele>1074.891</ele>
        <time>2015-08-29T09:59:43Z</time>
      </trkpt>
      <trkpt lat="41.81212" lon="9.19574">
        <ele>1071.046</ele>
        <time>2015-08-29T09:59:47Z</time>
      </trkpt>
      <trkpt lat="41.81208" lon="9.19572">
        <ele>1067.201</ele>
        <time>2015-08-29T09:59:50Z</time>
      </trkpt>
      <trkpt lat="41.81199" lon="9.19568">
        <ele>1059.51</ele>
        <time>2015-08-29T09:59:56Z</time>
      </trkpt>
      <trkpt lat="41.81183" lon="9.1956">
        <ele>1051.82</ele>
        <time>2015-08-29T10:00:03Z</time>
      </trkpt>
      <trkpt lat="41.81169" lon="9.19548">
        <ele>1047.974</ele>
        <time>2015-08-29T10:00:11Z</time>
      </trkpt>
      <trkpt lat="41.81157" lon="9.19535">
        <ele>1047.013</ele>
        <time>2015-08-29T10:00:18Z</time>
      </trkpt>
      <trkpt lat="41.81146" lon="9.19533">
        <ele>1048.455</ele>
        <time>2015-08-29T10:00:24Z</time>
      </trkpt>
      <trkpt lat="41.81131" lon="9.19535">
        <ele>1048.936</ele>
        <time>2015-08-29T10:00:31Z</time>
      </trkpt>
      <trkpt lat="41.8112" lon="9.19527">
        <ele>1048.936</ele>
        <time>2015-08-29T10:00:38Z</time>
      </trkpt>
      <trkpt lat="41.81107" lon="9.19517">
        <ele>1039.803</ele>
        <time>2015-08-29T10:00:46Z</time>
      </trkpt>
      <trkpt lat="41.81092" lon="9.19504">
        <ele>1041.726</ele>
        <time>2015-08-29T10:00:55Z</time>
      </trkpt>
      <trkpt lat="41.81082" lon="9.19489">
        <ele>1047.974</ele>
        <time>2015-08-29T10:01:03Z</time>
      </trkpt>
      <trkpt lat="41.81068" lon="9.1947">
        <ele>1047.974</ele>
        <time>2015-08-29T10:01:10Z</time>
      </trkpt>
      <trkpt lat="41.81053" lon="9.19444">
        <ele>1047.013</ele>
        <time>2015-08-29T10:01:17Z</time>
      </trkpt>
      <trkpt lat="41.81051" lon="9.19431">
        <ele>1047.494</ele>
        <time>2015-08-29T10:01:20Z</time>
      </trkpt>
      <trkpt lat="41.81042" lon="9.19413">
        <ele>1045.09</ele>
        <time>2015-08-29T10:01:24Z</time>
      </trkpt>
      <trkpt lat="41.81029" lon="9.19402">
        <ele>1039.803</ele>
        <time>2015-08-29T10:01:27Z</time>
      </trkpt>
      <trkpt lat="41.81011" lon="9.19387">
        <ele>1037.881</ele>
        <time>2015-08-29T10:01:33Z</time>
      </trkpt>
      <trkpt lat="41.81008" lon="9.19385">
        <ele>1034.516</ele>
        <time>2015-08-29T10:01:36Z</time>
      </trkpt>
      <trkpt lat="41.81006" lon="9.19383">
        <ele>1028.748</ele>
        <time>2015-08-29T10:01:41Z</time>
      </trkpt>
      <trkpt lat="41.80998" lon="9.19377">
        <ele>1028.267</ele>
        <time>2015-08-29T10:01:45Z</time>
      </trkpt>
      <trkpt lat="41.80982" lon="9.19363">
        <ele>1027.306</ele>
        <time>2015-08-29T10:01:51Z</time>
      </trkpt>
      <trkpt lat="41.80971" lon="9.19354">
        <ele>1026.825</ele>
        <time>2015-08-29T10:01:55Z</time>
      </trkpt>
      <trkpt lat="41.80955" lon="9.19342">
        <ele>1032.593</ele>
        <time>2015-08-29T10:02:01Z</time>
      </trkpt>
      <trkpt lat="41.80942" lon="9.19329">
        <ele>1031.151</ele>
        <time>2015-08-29T10:02:06Z</time>
      </trkpt>
      <trkpt lat="41.80941" lon="9.19328">
        <ele>1032.113</ele>
        <time>2015-08-29T10:02:08Z</time>
      </trkpt>
      <trkpt lat="41.80938" lon="9.19326">
        <ele>1064.797</ele>
        <time>2015-08-29T10:06:00Z</time>
      </trkpt>
      <trkpt lat="41.80924" lon="9.19313">
        <ele>1055.665</ele>
        <time>2015-08-29T10:06:07Z</time>
      </trkpt>
      <trkpt lat="41.80905" lon="9.19295">
        <ele>1048.936</ele>
        <time>2015-08-29T10:06:15Z</time>
      </trkpt>
      <trkpt lat="41.80892" lon="9.19287">
        <ele>1046.052</ele>
        <time>2015-08-29T10:06:22Z</time>
      </trkpt>
      <trkpt lat="41.80883" lon="9.19282">
        <ele>1047.494</ele>
        <time>2015-08-29T10:06:28Z</time>
      </trkpt>
      <trkpt lat="41.80869" lon="9.19272">
        <ele>1048.455</ele>
        <time>2015-08-29T10:06:37Z</time>
      </trkpt>
      <trkpt lat="41.80861" lon="9.19265">
        <ele>1053.262</ele>
        <time>2015-08-29T10:06:44Z</time>
      </trkpt>
      <trkpt lat="41.80848" lon="9.19255">
        <ele>1054.223</ele>
        <time>2015-08-29T10:06:52Z</time>
      </trkpt>
      <trkpt lat="41.80833" lon="9.19243">
        <ele>1057.588</ele>
        <time>2015-08-29T10:07:02Z</time>
      </trkpt>
      <trkpt lat="41.80825" lon="9.19237">
        <ele>1059.03</ele>
        <time>2015-08-29T10:07:08Z</time>
      </trkpt>
      <trkpt lat="41.80811" lon="9.19227">
        <ele>1059.51</ele>
        <time>2015-08-29T10:07:18Z</time>
      </trkpt>
      <trkpt lat="41.80802" lon="9.1922">
        <ele>1061.433</ele>
        <time>2015-08-29T10:07:25Z</time>
      </trkpt>
      <trkpt lat="41.80791" lon="9.19211">
        <ele>1062.875</ele>
        <time>2015-08-29T10:07:33Z</time>
      </trkpt>
      <trkpt lat="41.80785" lon="9.192">
        <ele>1062.394</ele>
        <time>2015-08-29T10:07:39Z</time>
      </trkpt>
      <trkpt lat="41.80781" lon="9.19182">
        <ele>1062.875</ele>
        <time>2015-08-29T10:07:47Z</time>
      </trkpt>
      <trkpt lat="41.80777" lon="9.19162">
        <ele>1063.355</ele>
        <time>2015-08-29T10:07:56Z</time>
      </trkpt>
      <trkpt lat="41.80777" lon="9.19161">
        <ele>1063.836</ele>
        <time>2015-08-29T10:07:59Z</time>
      </trkpt>
      <trkpt lat="41.80777" lon="9.19161">
        <ele>1059.03</ele>
        <time>2015-08-29T10:09:32Z</time>
      </trkpt>
      <trkpt lat="41.80776" lon="9.19144">
        <ele>1061.914</ele>
        <time>2015-08-29T10:10:00Z</time>
      </trkpt>
      <trkpt lat="41.80781" lon="9.19128">
        <ele>1063.836</ele>
        <time>2015-08-29T10:10:06Z</time>
      </trkpt>
      <trkpt lat="41.80793" lon="9.1912">
        <ele>1063.355</ele>
        <time>2015-08-29T10:10:11Z</time>
      </trkpt>
      <trkpt lat="41.80808" lon="9.19107">
        <ele>1065.759</ele>
        <time>2015-08-29T10:10:17Z</time>
      </trkpt>
      <trkpt lat="41.80815" lon="9.19096">
        <ele>1070.565</ele>
        <time>2015-08-29T10:10:21Z</time>
      </trkpt>
      <trkpt lat="41.80816" lon="9.19076">
        <ele>1067.201</ele>
        <time>2015-08-29T10:10:26Z</time>
      </trkpt>
      <trkpt lat="41.80813" lon="9.19058">
        <ele>1061.914</ele>
        <time>2015-08-29T10:10:30Z</time>
      </trkpt>
      <trkpt lat="41.80809" lon="9.19049">
        <ele>1059.51</ele>
        <time>2015-08-29T10:10:32Z</time>
      </trkpt>
      <trkpt lat="41.80795" lon="9.19028">
        <ele>1060.471</ele>
        <time>2015-08-29T10:10:36Z</time>
      </trkpt>
      <trkpt lat="41.8077" lon="9.18996">
        <ele>1061.914</ele>
        <time>2015-08-29T10:10:41Z</time>
      </trkpt>
      <trkpt lat="41.80761" lon="9.18973">
        <ele>1061.914</ele>
        <time>2015-08-29T10:10:45Z</time>
      </trkpt>
      <trkpt lat="41.80763" lon="9.18963">
        <ele>1063.836</ele>
        <time>2015-08-29T10:10:47Z</time>
      </trkpt>
      <trkpt lat="41.80766" lon="9.1894">
        <ele>1065.278</ele>
        <time>2015-08-29T10:10:54Z</time>
      </trkpt>
      <trkpt lat="41.80761" lon="9.1893">
        <ele>1064.797</ele>
        <time>2015-08-29T10:10:58Z</time>
      </trkpt>
      <trkpt lat="41.8075" lon="9.18925">
        <ele>1069.604</ele>
        <time>2015-08-29T10:11:05Z</time>
      </trkpt>
      <trkpt lat="41.8074" lon="9.18924">
        <ele>1070.565</ele>
        <time>2015-08-29T10:11:12Z</time>
      </trkpt>
      <trkpt lat="41.80729" lon="9.18924">
        <ele>1070.565</ele>
        <time>2015-08-29T10:11:19Z</time>
      </trkpt>
      <trkpt lat="41.80717" lon="9.18923">
        <ele>1072.007</ele>
        <time>2015-08-29T10:11:26Z</time>
      </trkpt>
      <trkpt lat="41.80708" lon="9.18921">
        <ele>1077.295</ele>
        <time>2015-08-29T10:11:31Z</time>
      </trkpt>
      <trkpt lat="41.80697" lon="9.18919">
        <ele>1073.93</ele>
        <time>2015-08-29T10:11:37Z</time>
      </trkpt>
      <trkpt lat="41.80689" lon="9.18918">
        <ele>1078.256</ele>
        <time>2015-08-29T10:11:43Z</time>
      </trkpt>
      <trkpt lat="41.80678" lon="9.18916">
        <ele>1078.256</ele>
        <time>2015-08-29T10:11:49Z</time>
      </trkpt>
      <trkpt lat="41.80675" lon="9.18915">
        <ele>1076.814</ele>
        <time>2015-08-29T10:11:51Z</time>
      </trkpt>
      <trkpt lat="41.80665" lon="9.18913">
        <ele>1083.062</ele>
        <time>2015-08-29T10:11:57Z</time>
      </trkpt>
      <trkpt lat="41.80659" lon="9.18912">
        <ele>1086.427</ele>
        <time>2015-08-29T10:12:01Z</time>
      </trkpt>
      <trkpt lat="41.80649" lon="9.1891">
        <ele>1089.311</ele>
        <time>2015-08-29T10:12:08Z</time>
      </trkpt>
      <trkpt lat="41.80638" lon="9.18908">
        <ele>1086.427</ele>
        <time>2015-08-29T10:12:15Z</time>
      </trkpt>
      <trkpt lat="41.80632" lon="9.18908">
        <ele>1086.427</ele>
        <time>2015-08-29T10:12:19Z</time>
      </trkpt>
      <trkpt lat="41.80618" lon="9.18907">
        <ele>1089.792</ele>
        <time>2015-08-29T10:12:28Z</time>
      </trkpt>
      <trkpt lat="41.80603" lon="9.18907">
        <ele>1097.963</ele>
        <time>2015-08-29T10:12:37Z</time>
      </trkpt>
      <trkpt lat="41.80594" lon="9.18909">
        <ele>1097.963</ele>
        <time>2015-08-29T10:12:44Z</time>
      </trkpt>
      <trkpt lat="41.80583" lon="9.1891">
        <ele>1099.405</ele>
        <time>2015-08-29T10:12:51Z</time>
      </trkpt>
      <trkpt lat="41.80574" lon="9.18912">
        <ele>1103.731</ele>
        <time>2015-08-29T10:12:59Z</time>
      </trkpt>
      <trkpt lat="41.80562" lon="9.18915">
        <ele>1102.77</ele>
        <time>2015-08-29T10:13:07Z</time>
      </trkpt>
      <trkpt lat="41.80557" lon="9.18916">
        <ele>1092.676</ele>
        <time>2015-08-29T10:13:12Z</time>
      </trkpt>
      <trkpt lat="41.80546" lon="9.18919">
        <ele>1091.714</ele>
        <time>2015-08-29T10:13:19Z</time>
      </trkpt>
      <trkpt lat="41.80533" lon="9.18923">
        <ele>1087.869</ele>
        <time>2015-08-29T10:13:26Z</time>
      </trkpt>
      <trkpt lat="41.80515" lon="9.18915">
        <ele>1084.505</ele>
        <time>2015-08-29T10:13:34Z</time>
      </trkpt>
      <trkpt lat="41.80505" lon="9.18903">
        <ele>1083.062</ele>
        <time>2015-08-29T10:13:39Z</time>
      </trkpt>
      <trkpt lat="41.80505" lon="9.18903">
        <ele>1082.101</ele>
        <time>2015-08-29T10:13:40Z</time>
      </trkpt>
      <trkpt lat="41.80496" lon="9.18887">
        <ele>1071.527</ele>
        <time>2015-08-29T10:15:10Z</time>
      </trkpt>
      <trkpt lat="41.80485" lon="9.18871">
        <ele>1068.643</ele>
        <time>2015-08-29T10:15:15Z</time>
      </trkpt>
      <trkpt lat="41.80466" lon="9.18844">
        <ele>1063.355</ele>
        <time>2015-08-29T10:15:21Z</time>
      </trkpt>
      <trkpt lat="41.80445" lon="9.18813">
        <ele>1057.588</ele>
        <time>2015-08-29T10:15:27Z</time>
      </trkpt>
      <trkpt lat="41.80435" lon="9.18799">
        <ele>1054.223</ele>
        <time>2015-08-29T10:15:30Z</time>
      </trkpt>
      <trkpt lat="41.80416" lon="9.18773">
        <ele>1051.82</ele>
        <time>2015-08-29T10:15:35Z</time>
      </trkpt>
      <trkpt lat="41.804" lon="9.18749">
        <ele>1049.897</ele>
        <time>2015-08-29T10:15:40Z</time>
      </trkpt>
      <trkpt lat="41.80391" lon="9.18736">
        <ele>1049.416</ele>
        <time>2015-08-29T10:15:44Z</time>
      </trkpt>
      <trkpt lat="41.80381" lon="9.1871">
        <ele>1046.532</ele>
        <time>2015-08-29T10:15:49Z</time>
      </trkpt>
      <trkpt lat="41.8038" lon="9.18698">
        <ele>1044.129</ele>
        <time>2015-08-29T10:15:51Z</time>
      </trkpt>
      <trkpt lat="41.80379" lon="9.18686">
        <ele>1042.207</ele>
        <time>2015-08-29T10:15:53Z</time>
      </trkpt>
      <trkpt lat="41.80373" lon="9.18642">
        <ele>1035.477</ele>
        <time>2015-08-29T10:15:59Z</time>
      </trkpt>
      <trkpt lat="41.8037" lon="9.1862">
        <ele>1034.997</ele>
        <time>2015-08-29T10:16:03Z</time>
      </trkpt>
      <trkpt lat="41.8037" lon="9.18614">
        <ele>1034.997</ele>
        <time>2015-08-29T10:16:04Z</time>
      </trkpt>
      <trkpt lat="41.80369" lon="9.18601">
        <ele>1035.477</ele>
        <time>2015-08-29T10:16:06Z</time>
      </trkpt>
      <trkpt lat="41.80363" lon="9.18572">
        <ele>1030.19</ele>
        <time>2015-08-29T10:16:12Z</time>
      </trkpt>
      <trkpt lat="41.80352" lon="9.18545">
        <ele>1022.98</ele>
        <time>2015-08-29T10:16:16Z</time>
      </trkpt>
      <trkpt lat="41.80335" lon="9.18504">
        <ele>1009.522</ele>
        <time>2015-08-29T10:16:23Z</time>
      </trkpt>
      <trkpt lat="41.80327" lon="9.18481">
        <ele>1009.041</ele>
        <time>2015-08-29T10:16:28Z</time>
      </trkpt>
      <trkpt lat="41.8032" lon="9.18461">
        <ele>1008.56</ele>
        <time>2015-08-29T10:16:32Z</time>
      </trkpt>
      <trkpt lat="41.80318" lon="9.18454">
        <ele>1006.157</ele>
        <time>2015-08-29T10:16:33Z</time>
      </trkpt>
      <trkpt lat="41.80313" lon="9.18442">
        <ele>1005.677</ele>
        <time>2015-08-29T10:16:35Z</time>
      </trkpt>
      <trkpt lat="41.80299" lon="9.18408">
        <ele>1005.677</ele>
        <time>2015-08-29T10:16:41Z</time>
      </trkpt>
      <trkpt lat="41.80296" lon="9.18401">
        <ele>1004.235</ele>
        <time>2015-08-29T10:16:43Z</time>
      </trkpt>
      <trkpt lat="41.80289" lon="9.18393">
        <ele>1006.638</ele>
        <time>2015-08-29T10:16:47Z</time>
      </trkpt>
      <trkpt lat="41.80275" lon="9.1838">
        <ele>1005.196</ele>
        <time>2015-08-29T10:16:53Z</time>
      </trkpt>
      <trkpt lat="41.80259" lon="9.18372">
        <ele>1005.677</ele>
        <time>2015-08-29T10:16:58Z</time>
      </trkpt>
      <trkpt lat="41.80249" lon="9.18363">
        <ele>1008.56</ele>
        <time>2015-08-29T10:17:02Z</time>
      </trkpt>
      <trkpt lat="41.80246" lon="9.18357">
        <ele>1010.483</ele>
        <time>2015-08-29T10:17:05Z</time>
      </trkpt>
      <trkpt lat="41.8024" lon="9.18333">
        <ele>1010.002</ele>
        <time>2015-08-29T10:17:11Z</time>
      </trkpt>
      <trkpt lat="41.8024" lon="9.18329">
        <ele>1009.522</ele>
        <time>2015-08-29T10:17:12Z</time>
      </trkpt>
      <trkpt lat="41.80233" lon="9.18297">
        <ele>1006.157</ele>
        <time>2015-08-29T10:17:17Z</time>
      </trkpt>
      <trkpt lat="41.80224" lon="9.18285">
        <ele>1002.312</ele>
        <time>2015-08-29T10:17:22Z</time>
      </trkpt>
      <trkpt lat="41.8022" lon="9.18286">
        <ele>1003.754</ele>
        <time>2015-08-29T10:17:25Z</time>
      </trkpt>
      <trkpt lat="41.80207" lon="9.18292">
        <ele>1005.677</ele>
        <time>2015-08-29T10:17:31Z</time>
      </trkpt>
      <trkpt lat="41.80197" lon="9.18298">
        <ele>1005.677</ele>
        <time>2015-08-29T10:17:34Z</time>
      </trkpt>
      <trkpt lat="41.80188" lon="9.18301">
        <ele>1003.273</ele>
        <time>2015-08-29T10:17:36Z</time>
      </trkpt>
      <trkpt lat="41.8017" lon="9.18301">
        <ele>999.428</ele>
        <time>2015-08-29T10:17:39Z</time>
      </trkpt>
      <trkpt lat="41.80138" lon="9.18301">
        <ele>994.621</ele>
        <time>2015-08-29T10:17:44Z</time>
      </trkpt>
      <trkpt lat="41.80093" lon="9.18304">
        <ele>994.141</ele>
        <time>2015-08-29T10:17:50Z</time>
      </trkpt>
      <trkpt lat="41.80064" lon="9.18305">
        <ele>991.257</ele>
        <time>2015-08-29T10:17:55Z</time>
      </trkpt>
      <trkpt lat="41.80043" lon="9.18306">
        <ele>984.047</ele>
        <time>2015-08-29T10:18:01Z</time>
      </trkpt>
      <trkpt lat="41.80019" lon="9.18311">
        <ele>977.798</ele>
        <time>2015-08-29T10:18:06Z</time>
      </trkpt>
      <trkpt lat="41.79981" lon="9.1832">
        <ele>982.605</ele>
        <time>2015-08-29T10:18:11Z</time>
      </trkpt>
      <trkpt lat="41.79971" lon="9.18317">
        <ele>981.163</ele>
        <time>2015-08-29T10:18:14Z</time>
      </trkpt>
      <trkpt lat="41.79965" lon="9.18321">
        <ele>980.682</ele>
        <time>2015-08-29T10:18:17Z</time>
      </trkpt>
      <trkpt lat="41.79959" lon="9.18325">
        <ele>982.605</ele>
        <time>2015-08-29T10:18:23Z</time>
      </trkpt>
      <trkpt lat="41.79946" lon="9.1833">
        <ele>980.682</ele>
        <time>2015-08-29T10:19:02Z</time>
      </trkpt>
      <trkpt lat="41.79933" lon="9.1834">
        <ele>987.411</ele>
        <time>2015-08-29T10:19:08Z</time>
      </trkpt>
      <trkpt lat="41.79919" lon="9.18349">
        <ele>979.721</ele>
        <time>2015-08-29T10:19:14Z</time>
      </trkpt>
      <trkpt lat="41.79902" lon="9.1836">
        <ele>980.201</ele>
        <time>2015-08-29T10:19:20Z</time>
      </trkpt>
      <trkpt lat="41.79884" lon="9.18361">
        <ele>979.24</ele>
        <time>2015-08-29T10:19:24Z</time>
      </trkpt>
      <trkpt lat="41.79853" lon="9.18343">
        <ele>977.318</ele>
        <time>2015-08-29T10:19:31Z</time>
      </trkpt>
      <trkpt lat="41.79848" lon="9.1834">
        <ele>977.318</ele>
        <time>2015-08-29T10:19:32Z</time>
      </trkpt>
      <trkpt lat="41.79821" lon="9.18321">
        <ele>969.627</ele>
        <time>2015-08-29T10:19:37Z</time>
      </trkpt>
      <trkpt lat="41.79801" lon="9.18306">
        <ele>964.82</ele>
        <time>2015-08-29T10:19:40Z</time>
      </trkpt>
      <trkpt lat="41.7978" lon="9.18298">
        <ele>963.859</ele>
        <time>2015-08-29T10:19:44Z</time>
      </trkpt>
      <trkpt lat="41.79761" lon="9.18312">
        <ele>967.704</ele>
        <time>2015-08-29T10:19:49Z</time>
      </trkpt>
      <trkpt lat="41.79759" lon="9.18314">
        <ele>969.627</ele>
        <time>2015-08-29T10:19:50Z</time>
      </trkpt>
      <trkpt lat="41.79742" lon="9.1832">
        <ele>974.434</ele>
        <time>2015-08-29T10:19:54Z</time>
      </trkpt>
      <trkpt lat="41.79727" lon="9.1833">
        <ele>979.721</ele>
        <time>2015-08-29T10:19:58Z</time>
      </trkpt>
      <trkpt lat="41.79703" lon="9.18336">
        <ele>978.76</ele>
        <time>2015-08-29T10:20:04Z</time>
      </trkpt>
      <trkpt lat="41.79694" lon="9.18337">
        <ele>975.395</ele>
        <time>2015-08-29T10:20:06Z</time>
      </trkpt>
      <trkpt lat="41.79657" lon="9.18333">
        <ele>971.549</ele>
        <time>2015-08-29T10:20:12Z</time>
      </trkpt>
      <trkpt lat="41.79644" lon="9.18333">
        <ele>969.146</ele>
        <time>2015-08-29T10:20:14Z</time>
      </trkpt>
      <trkpt lat="41.79621" lon="9.18334">
        <ele>963.859</ele>
        <time>2015-08-29T10:20:18Z</time>
      </trkpt>
      <trkpt lat="41.79591" lon="9.18334">
        <ele>962.898</ele>
        <time>2015-08-29T10:20:23Z</time>
      </trkpt>
      <trkpt lat="41.79565" lon="9.18342">
        <ele>971.549</ele>
        <time>2015-08-29T10:20:29Z</time>
      </trkpt>
      <trkpt lat="41.7955" lon="9.18345">
        <ele>972.511</ele>
        <time>2015-08-29T10:20:34Z</time>
      </trkpt>
      <trkpt lat="41.79536" lon="9.18347">
        <ele>971.069</ele>
        <time>2015-08-29T10:20:39Z</time>
      </trkpt>
      <trkpt lat="41.79521" lon="9.18358">
        <ele>978.76</ele>
        <time>2015-08-29T10:20:44Z</time>
      </trkpt>
      <trkpt lat="41.79509" lon="9.18371">
        <ele>985.969</ele>
        <time>2015-08-29T10:20:49Z</time>
      </trkpt>
      <trkpt lat="41.79498" lon="9.1839">
        <ele>981.643</ele>
        <time>2015-08-29T10:20:55Z</time>
      </trkpt>
      <trkpt lat="41.79493" lon="9.18408">
        <ele>975.395</ele>
        <time>2015-08-29T10:20:59Z</time>
      </trkpt>
      <trkpt lat="41.79486" lon="9.18435">
        <ele>974.434</ele>
        <time>2015-08-29T10:21:04Z</time>
      </trkpt>
      <trkpt lat="41.79462" lon="9.1845">
        <ele>970.588</ele>
        <time>2015-08-29T10:21:08Z</time>
      </trkpt>
      <trkpt lat="41.79454" lon="9.1845">
        <ele>969.627</ele>
        <time>2015-08-29T10:21:09Z</time>
      </trkpt>
      <trkpt lat="41.79396" lon="9.18453">
        <ele>967.224</ele>
        <time>2015-08-29T10:21:17Z</time>
      </trkpt>
      <trkpt lat="41.79375" lon="9.18458">
        <ele>962.898</ele>
        <time>2015-08-29T10:21:22Z</time>
      </trkpt>
      <trkpt lat="41.79364" lon="9.18466">
        <ele>959.052</ele>
        <time>2015-08-29T10:21:27Z</time>
      </trkpt>
      <trkpt lat="41.79356" lon="9.18482">
        <ele>953.765</ele>
        <time>2015-08-29T10:21:31Z</time>
      </trkpt>
      <trkpt lat="41.7935" lon="9.18498">
        <ele>948.478</ele>
        <time>2015-08-29T10:21:36Z</time>
      </trkpt>
      <trkpt lat="41.79338" lon="9.18511">
        <ele>948.958</ele>
        <time>2015-08-29T10:21:43Z</time>
      </trkpt>
      <trkpt lat="41.79331" lon="9.18513">
        <ele>953.765</ele>
        <time>2015-08-29T10:21:48Z</time>
      </trkpt>
      <trkpt lat="41.79319" lon="9.18511">
        <ele>953.284</ele>
        <time>2015-08-29T10:21:54Z</time>
      </trkpt>
      <trkpt lat="41.79316" lon="9.18507">
        <ele>953.284</ele>
        <time>2015-08-29T10:21:55Z</time>
      </trkpt>
      <trkpt lat="41.79308" lon="9.18499">
        <ele>950.881</ele>
        <time>2015-08-29T10:21:57Z</time>
      </trkpt>
      <trkpt lat="41.79288" lon="9.18477">
        <ele>943.671</ele>
        <time>2015-08-29T10:22:01Z</time>
      </trkpt>
      <trkpt lat="41.79281" lon="9.18449">
        <ele>938.865</ele>
        <time>2015-08-29T10:22:04Z</time>
      </trkpt>
      <trkpt lat="41.79276" lon="9.18425">
        <ele>938.384</ele>
        <time>2015-08-29T10:22:07Z</time>
      </trkpt>
      <trkpt lat="41.79266" lon="9.18389">
        <ele>941.268</ele>
        <time>2015-08-29T10:22:13Z</time>
      </trkpt>
      <trkpt lat="41.79258" lon="9.18371">
        <ele>937.903</ele>
        <time>2015-08-29T10:22:17Z</time>
      </trkpt>
      <trkpt lat="41.79241" lon="9.18352">
        <ele>937.423</ele>
        <time>2015-08-29T10:22:23Z</time>
      </trkpt>
      <trkpt lat="41.79233" lon="9.18347">
        <ele>940.787</ele>
        <time>2015-08-29T10:22:27Z</time>
      </trkpt>
      <trkpt lat="41.79221" lon="9.18352">
        <ele>945.113</ele>
        <time>2015-08-29T10:22:33Z</time>
      </trkpt>
      <trkpt lat="41.79208" lon="9.18355">
        <ele>947.997</ele>
        <time>2015-08-29T10:22:38Z</time>
      </trkpt>
      <trkpt lat="41.79188" lon="9.18348">
        <ele>948.958</ele>
        <time>2015-08-29T10:22:46Z</time>
      </trkpt>
      <trkpt lat="41.79168" lon="9.18336">
        <ele>949.439</ele>
        <time>2015-08-29T10:22:55Z</time>
      </trkpt>
      <trkpt lat="41.79146" lon="9.18316">
        <ele>949.439</ele>
        <time>2015-08-29T10:23:03Z</time>
      </trkpt>
      <trkpt lat="41.79126" lon="9.18301">
        <ele>948.478</ele>
        <time>2015-08-29T10:23:10Z</time>
      </trkpt>
      <trkpt lat="41.79104" lon="9.18288">
        <ele>947.517</ele>
        <time>2015-08-29T10:23:16Z</time>
      </trkpt>
      <trkpt lat="41.79081" lon="9.1828">
        <ele>945.594</ele>
        <time>2015-08-29T10:23:21Z</time>
      </trkpt>
      <trkpt lat="41.79076" lon="9.18281">
        <ele>945.113</ele>
        <time>2015-08-29T10:23:22Z</time>
      </trkpt>
      <trkpt lat="41.79037" lon="9.18289">
        <ele>945.113</ele>
        <time>2015-08-29T10:23:28Z</time>
      </trkpt>
      <trkpt lat="41.79022" lon="9.18291">
        <ele>945.594</ele>
        <time>2015-08-29T10:23:30Z</time>
      </trkpt>
      <trkpt lat="41.78992" lon="9.18303">
        <ele>948.478</ele>
        <time>2015-08-29T10:23:35Z</time>
      </trkpt>
      <trkpt lat="41.78974" lon="9.18304">
        <ele>947.036</ele>
        <time>2015-08-29T10:23:39Z</time>
      </trkpt>
      <trkpt lat="41.78939" lon="9.18295">
        <ele>945.113</ele>
        <time>2015-08-29T10:23:44Z</time>
      </trkpt>
      <trkpt lat="41.78921" lon="9.18285">
        <ele>944.633</ele>
        <time>2015-08-29T10:23:47Z</time>
      </trkpt>
      <trkpt lat="41.789" lon="9.18269">
        <ele>941.749</ele>
        <time>2015-08-29T10:23:50Z</time>
      </trkpt>
      <trkpt lat="41.78872" lon="9.1825">
        <ele>939.826</ele>
        <time>2015-08-29T10:23:54Z</time>
      </trkpt>
      <trkpt lat="41.78839" lon="9.18219">
        <ele>935.02</ele>
        <time>2015-08-29T10:23:59Z</time>
      </trkpt>
      <trkpt lat="41.78815" lon="9.18206">
        <ele>932.135</ele>
        <time>2015-08-29T10:24:02Z</time>
      </trkpt>
      <trkpt lat="41.78776" lon="9.18192">
        <ele>927.81</ele>
        <time>2015-08-29T10:24:07Z</time>
      </trkpt>
      <trkpt lat="41.78749" lon="9.18196">
        <ele>924.926</ele>
        <time>2015-08-29T10:24:11Z</time>
      </trkpt>
      <trkpt lat="41.78722" lon="9.18193">
        <ele>922.042</ele>
        <time>2015-08-29T10:24:16Z</time>
      </trkpt>
      <trkpt lat="41.78716" lon="9.18189">
        <ele>921.561</ele>
        <time>2015-08-29T10:24:17Z</time>
      </trkpt>
      <trkpt lat="41.78697" lon="9.18176">
        <ele>918.677</ele>
        <time>2015-08-29T10:24:20Z</time>
      </trkpt>
      <trkpt lat="41.78676" lon="9.18147">
        <ele>915.793</ele>
        <time>2015-08-29T10:24:25Z</time>
      </trkpt>
      <trkpt lat="41.78674" lon="9.18131">
        <ele>912.909</ele>
        <time>2015-08-29T10:24:28Z</time>
      </trkpt>
      <trkpt lat="41.78679" lon="9.18119">
        <ele>910.025</ele>
        <time>2015-08-29T10:24:31Z</time>
      </trkpt>
      <trkpt lat="41.78681" lon="9.18117">
        <ele>909.545</ele>
        <time>2015-08-29T10:24:32Z</time>
      </trkpt>
      <trkpt lat="41.78689" lon="9.18115">
        <ele>907.622</ele>
        <time>2015-08-29T10:24:34Z</time>
      </trkpt>
      <trkpt lat="41.78696" lon="9.18109">
        <ele>904.257</ele>
        <time>2015-08-29T10:24:38Z</time>
      </trkpt>
      <trkpt lat="41.78689" lon="9.18082">
        <ele>903.777</ele>
        <time>2015-08-29T10:24:42Z</time>
      </trkpt>
      <trkpt lat="41.78665" lon="9.18048">
        <ele>905.219</ele>
        <time>2015-08-29T10:24:49Z</time>
      </trkpt>
      <trkpt lat="41.78646" lon="9.18027">
        <ele>907.622</ele>
        <time>2015-08-29T10:24:56Z</time>
      </trkpt>
      <trkpt lat="41.78635" lon="9.1801">
        <ele>907.622</ele>
        <time>2015-08-29T10:25:04Z</time>
      </trkpt>
      <trkpt lat="41.78631" lon="9.17988">
        <ele>907.141</ele>
        <time>2015-08-29T10:25:10Z</time>
      </trkpt>
      <trkpt lat="41.78627" lon="9.17967">
        <ele>905.699</ele>
        <time>2015-08-29T10:25:14Z</time>
      </trkpt>
      <trkpt lat="41.78626" lon="9.17939">
        <ele>903.777</ele>
        <time>2015-08-29T10:25:19Z</time>
      </trkpt>
      <trkpt lat="41.78618" lon="9.17916">
        <ele>899.931</ele>
        <time>2015-08-29T10:25:23Z</time>
      </trkpt>
      <trkpt lat="41.78608" lon="9.17914">
        <ele>898.489</ele>
        <time>2015-08-29T10:25:25Z</time>
      </trkpt>
      <trkpt lat="41.78592" lon="9.1791">
        <ele>896.567</ele>
        <time>2015-08-29T10:25:30Z</time>
      </trkpt>
      <trkpt lat="41.7858" lon="9.179">
        <ele>896.567</ele>
        <time>2015-08-29T10:25:35Z</time>
      </trkpt>
      <trkpt lat="41.78573" lon="9.17892">
        <ele>895.605</ele>
        <time>2015-08-29T10:25:41Z</time>
      </trkpt>
      <trkpt lat="41.78572" lon="9.1789">
        <ele>895.605</ele>
        <time>2015-08-29T10:25:42Z</time>
      </trkpt>
      <trkpt lat="41.78587" lon="9.17866">
        <ele>893.683</ele>
        <time>2015-08-29T10:25:45Z</time>
      </trkpt>
      <trkpt lat="41.78596" lon="9.17866">
        <ele>887.434</ele>
        <time>2015-08-29T10:25:50Z</time>
      </trkpt>
      <trkpt lat="41.78632" lon="9.17845">
        <ele>882.147</ele>
        <time>2015-08-29T10:25:54Z</time>
      </trkpt>
      <trkpt lat="41.78651" lon="9.17814">
        <ele>873.495</ele>
        <time>2015-08-29T10:25:58Z</time>
      </trkpt>
      <trkpt lat="41.78657" lon="9.17804">
        <ele>872.053</ele>
        <time>2015-08-29T10:25:59Z</time>
      </trkpt>
      <trkpt lat="41.78679" lon="9.17769">
        <ele>877.341</ele>
        <time>2015-08-29T10:26:03Z</time>
      </trkpt>
      <trkpt lat="41.7868" lon="9.17749">
        <ele>881.666</ele>
        <time>2015-08-29T10:26:05Z</time>
      </trkpt>
      <trkpt lat="41.78678" lon="9.17718">
        <ele>882.628</ele>
        <time>2015-08-29T10:26:10Z</time>
      </trkpt>
      <trkpt lat="41.78676" lon="9.17692">
        <ele>885.031</ele>
        <time>2015-08-29T10:26:16Z</time>
      </trkpt>
      <trkpt lat="41.78674" lon="9.17683">
        <ele>886.473</ele>
        <time>2015-08-29T10:26:18Z</time>
      </trkpt>
      <trkpt lat="41.78659" lon="9.17652">
        <ele>888.396</ele>
        <time>2015-08-29T10:26:25Z</time>
      </trkpt>
      <trkpt lat="41.78644" lon="9.17614">
        <ele>888.876</ele>
        <time>2015-08-29T10:26:34Z</time>
      </trkpt>
      <trkpt lat="41.7864" lon="9.17599">
        <ele>888.876</ele>
        <time>2015-08-29T10:26:37Z</time>
      </trkpt>
      <trkpt lat="41.78627" lon="9.17552">
        <ele>888.396</ele>
        <time>2015-08-29T10:26:45Z</time>
      </trkpt>
      <trkpt lat="41.78624" lon="9.17539">
        <ele>888.396</ele>
        <time>2015-08-29T10:26:47Z</time>
      </trkpt>
      <trkpt lat="41.78618" lon="9.17519">
        <ele>888.396</ele>
        <time>2015-08-29T10:26:50Z</time>
      </trkpt>
      <trkpt lat="41.78603" lon="9.17486">
        <ele>887.915</ele>
        <time>2015-08-29T10:26:55Z</time>
      </trkpt>
      <trkpt lat="41.78582" lon="9.17454">
        <ele>885.992</ele>
        <time>2015-08-29T10:27:01Z</time>
      </trkpt>
      <trkpt lat="41.78569" lon="9.1743">
        <ele>884.55</ele>
        <time>2015-08-29T10:27:06Z</time>
      </trkpt>
      <trkpt lat="41.78564" lon="9.17407">
        <ele>884.55</ele>
        <time>2015-08-29T10:27:10Z</time>
      </trkpt>
      <trkpt lat="41.78562" lon="9.17393">
        <ele>884.07</ele>
        <time>2015-08-29T10:27:12Z</time>
      </trkpt>
      <trkpt lat="41.78554" lon="9.17366">
        <ele>884.55</ele>
        <time>2015-08-29T10:27:16Z</time>
      </trkpt>
      <trkpt lat="41.78534" lon="9.17337">
        <ele>883.108</ele>
        <time>2015-08-29T10:27:23Z</time>
      </trkpt>
      <trkpt lat="41.78527" lon="9.17325">
        <ele>882.147</ele>
        <time>2015-08-29T10:27:27Z</time>
      </trkpt>
      <trkpt lat="41.78527" lon="9.17324">
        <ele>881.186</ele>
        <time>2015-08-29T10:27:32Z</time>
      </trkpt>
      <trkpt lat="41.78484" lon="9.17305">
        <ele>879.263</ele>
        <time>2015-08-29T10:27:40Z</time>
      </trkpt>
      <trkpt lat="41.78463" lon="9.1728">
        <ele>878.782</ele>
        <time>2015-08-29T10:27:48Z</time>
      </trkpt>
      <trkpt lat="41.78441" lon="9.17248">
        <ele>876.86</ele>
        <time>2015-08-29T10:27:57Z</time>
      </trkpt>
      <trkpt lat="41.78438" lon="9.17245">
        <ele>876.86</ele>
        <time>2015-08-29T10:27:58Z</time>
      </trkpt>
      <trkpt lat="41.78416" lon="9.17225">
        <ele>875.898</ele>
        <time>2015-08-29T10:28:05Z</time>
      </trkpt>
      <trkpt lat="41.78403" lon="9.17204">
        <ele>874.937</ele>
        <time>2015-08-29T10:28:10Z</time>
      </trkpt>
      <trkpt lat="41.78395" lon="9.17188">
        <ele>873.976</ele>
        <time>2015-08-29T10:28:13Z</time>
      </trkpt>
      <trkpt lat="41.78368" lon="9.17161">
        <ele>873.495</ele>
        <time>2015-08-29T10:28:20Z</time>
      </trkpt>
      <trkpt lat="41.78341" lon="9.17137">
        <ele>873.495</ele>
        <time>2015-08-29T10:28:27Z</time>
      </trkpt>
      <trkpt lat="41.78323" lon="9.17125">
        <ele>873.495</ele>
        <time>2015-08-29T10:28:31Z</time>
      </trkpt>
      <trkpt lat="41.78313" lon="9.1711">
        <ele>874.456</ele>
        <time>2015-08-29T10:28:35Z</time>
      </trkpt>
      <trkpt lat="41.78315" lon="9.17097">
        <ele>875.898</ele>
        <time>2015-08-29T10:28:39Z</time>
      </trkpt>
      <trkpt lat="41.78319" lon="9.17085">
        <ele>876.86</ele>
        <time>2015-08-29T10:28:45Z</time>
      </trkpt>
      <trkpt lat="41.78321" lon="9.17081">
        <ele>876.379</ele>
        <time>2015-08-29T10:28:47Z</time>
      </trkpt>
      <trkpt lat="41.7831" lon="9.17064">
        <ele>876.379</ele>
        <time>2015-08-29T10:28:53Z</time>
      </trkpt>
      <trkpt lat="41.78291" lon="9.17038">
        <ele>877.341</ele>
        <time>2015-08-29T10:29:01Z</time>
      </trkpt>
      <trkpt lat="41.78271" lon="9.17012">
        <ele>877.821</ele>
        <time>2015-08-29T10:29:09Z</time>
      </trkpt>
      <trkpt lat="41.78262" lon="9.16998">
        <ele>880.224</ele>
        <time>2015-08-29T10:29:14Z</time>
      </trkpt>
      <trkpt lat="41.78261" lon="9.16997">
        <ele>879.744</ele>
        <time>2015-08-29T10:29:16Z</time>
      </trkpt>
      <trkpt lat="41.7826" lon="9.16995">
        <ele>880.705</ele>
        <time>2015-08-29T10:29:30Z</time>
      </trkpt>
      <trkpt lat="41.78257" lon="9.1699">
        <ele>879.744</ele>
        <time>2015-08-29T10:29:34Z</time>
      </trkpt>
      <trkpt lat="41.78248" lon="9.16984">
        <ele>878.302</ele>
        <time>2015-08-29T10:29:39Z</time>
      </trkpt>
      <trkpt lat="41.78259" lon="9.16954">
        <ele>876.86</ele>
        <time>2015-08-29T10:29:42Z</time>
      </trkpt>
      <trkpt lat="41.78271" lon="9.16909">
        <ele>869.65</ele>
        <time>2015-08-29T10:29:50Z</time>
      </trkpt>
      <trkpt lat="41.78278" lon="9.16889">
        <ele>866.766</ele>
        <time>2015-08-29T10:29:53Z</time>
      </trkpt>
      <trkpt lat="41.78282" lon="9.16856">
        <ele>869.65</ele>
        <time>2015-08-29T10:29:58Z</time>
      </trkpt>
      <trkpt lat="41.78284" lon="9.16845">
        <ele>869.169</ele>
        <time>2015-08-29T10:30:00Z</time>
      </trkpt>
      <trkpt lat="41.78292" lon="9.16835">
        <ele>868.208</ele>
        <time>2015-08-29T10:30:04Z</time>
      </trkpt>
      <trkpt lat="41.78295" lon="9.16836">
        <ele>867.727</ele>
        <time>2015-08-29T10:30:05Z</time>
      </trkpt>
      <trkpt lat="41.78299" lon="9.16834">
        <ele>866.766</ele>
        <time>2015-08-29T10:30:09Z</time>
      </trkpt>
      <trkpt lat="41.78299" lon="9.16834">
        <ele>873.014</ele>
        <time>2015-08-29T10:30:22Z</time>
      </trkpt>
      <trkpt lat="41.78299" lon="9.16834">
        <ele>873.014</ele>
        <time>2015-08-29T10:30:23Z</time>
      </trkpt>
      <trkpt lat="41.78299" lon="9.16834">
        <ele>875.898</ele>
        <time>2015-08-29T10:30:38Z</time>
      </trkpt>
      <trkpt lat="41.78299" lon="9.16834">
        <ele>875.417</ele>
        <time>2015-08-29T10:30:48Z</time>
      </trkpt>
      <trkpt lat="41.78299" lon="9.16834">
        <ele>874.937</ele>
        <time>2015-08-29T10:30:52Z</time>
      </trkpt>
      <trkpt lat="41.78299" lon="9.16834">
        <ele>874.937</ele>
        <time>2015-08-29T10:30:57Z</time>
      </trkpt>
      <trkpt lat="41.78299" lon="9.16834">
        <ele>874.456</ele>
        <time>2015-08-29T10:31:01Z</time>
      </trkpt>
      <trkpt lat="41.78299" lon="9.16834">
        <ele>874.456</ele>
        <time>2015-08-29T10:31:06Z</time>
      </trkpt>
      <trkpt lat="41.78296" lon="9.16814">
        <ele>866.766</ele>
        <time>2015-08-29T10:31:28Z</time>
      </trkpt>
      <trkpt lat="41.7829" lon="9.16802">
        <ele>866.766</ele>
        <time>2015-08-29T10:31:32Z</time>
      </trkpt>
      <trkpt lat="41.78287" lon="9.168">
        <ele>866.285</ele>
        <time>2015-08-29T10:31:33Z</time>
      </trkpt>
      <trkpt lat="41.78264" lon="9.16783">
        <ele>864.843</ele>
        <time>2015-08-29T10:31:39Z</time>
      </trkpt>
      <trkpt lat="41.78252" lon="9.16778">
        <ele>864.843</ele>
        <time>2015-08-29T10:31:42Z</time>
      </trkpt>
      <trkpt lat="41.78222" lon="9.16759">
        <ele>863.401</ele>
        <time>2015-08-29T10:31:48Z</time>
      </trkpt>
      <trkpt lat="41.78209" lon="9.16746">
        <ele>863.401</ele>
        <time>2015-08-29T10:31:51Z</time>
      </trkpt>
      <trkpt lat="41.78193" lon="9.16719">
        <ele>862.44</ele>
        <time>2015-08-29T10:31:57Z</time>
      </trkpt>
      <trkpt lat="41.7819" lon="9.16716">
        <ele>861.479</ele>
        <time>2015-08-29T10:31:59Z</time>
      </trkpt>
      <trkpt lat="41.78181" lon="9.1671">
        <ele>860.037</ele>
        <time>2015-08-29T10:32:04Z</time>
      </trkpt>
      <trkpt lat="41.78174" lon="9.1671">
        <ele>857.153</ele>
        <time>2015-08-29T10:32:08Z</time>
      </trkpt>
      <trkpt lat="41.78157" lon="9.16708">
        <ele>854.749</ele>
        <time>2015-08-29T10:32:14Z</time>
      </trkpt>
      <trkpt lat="41.78145" lon="9.16703">
        <ele>853.788</ele>
        <time>2015-08-29T10:32:18Z</time>
      </trkpt>
      <trkpt lat="41.78136" lon="9.16687">
        <ele>852.827</ele>
        <time>2015-08-29T10:32:23Z</time>
      </trkpt>
      <trkpt lat="41.7813" lon="9.16679">
        <ele>852.827</ele>
        <time>2015-08-29T10:32:28Z</time>
      </trkpt>
      <trkpt lat="41.78127" lon="9.16669">
        <ele>851.385</ele>
        <time>2015-08-29T10:32:32Z</time>
      </trkpt>
      <trkpt lat="41.78125" lon="9.16661">
        <ele>851.385</ele>
        <time>2015-08-29T10:32:34Z</time>
      </trkpt>
      <trkpt lat="41.78122" lon="9.16652">
        <ele>849.943</ele>
        <time>2015-08-29T10:32:37Z</time>
      </trkpt>
      <trkpt lat="41.78113" lon="9.16643">
        <ele>848.981</ele>
        <time>2015-08-29T10:32:42Z</time>
      </trkpt>
      <trkpt lat="41.78103" lon="9.16633">
        <ele>848.02</ele>
        <time>2015-08-29T10:32:47Z</time>
      </trkpt>
      <trkpt lat="41.78097" lon="9.16617">
        <ele>845.617</ele>
        <time>2015-08-29T10:32:52Z</time>
      </trkpt>
      <trkpt lat="41.78097" lon="9.16602">
        <ele>843.694</ele>
        <time>2015-08-29T10:32:56Z</time>
      </trkpt>
      <trkpt lat="41.78091" lon="9.16594">
        <ele>841.771</ele>
        <time>2015-08-29T10:33:00Z</time>
      </trkpt>
      <trkpt lat="41.78085" lon="9.16591">
        <ele>843.213</ele>
        <time>2015-08-29T10:33:05Z</time>
      </trkpt>
      <trkpt lat="41.78085" lon="9.16591">
        <ele>845.136</ele>
        <time>2015-08-29T10:33:16Z</time>
      </trkpt>
      <trkpt lat="41.7808" lon="9.16586">
        <ele>844.175</ele>
        <time>2015-08-29T10:33:22Z</time>
      </trkpt>
      <trkpt lat="41.78072" lon="9.16567">
        <ele>847.059</ele>
        <time>2015-08-29T10:33:51Z</time>
      </trkpt>
      <trkpt lat="41.78069" lon="9.16556">
        <ele>848.501</ele>
        <time>2015-08-29T10:33:56Z</time>
      </trkpt>
      <trkpt lat="41.78068" lon="9.16545">
        <ele>850.424</ele>
        <time>2015-08-29T10:34:02Z</time>
      </trkpt>
      <trkpt lat="41.78068" lon="9.16544">
        <ele>849.943</ele>
        <time>2015-08-29T10:34:05Z</time>
      </trkpt>
      <trkpt lat="41.78068" lon="9.16544">
        <ele>852.346</ele>
        <time>2015-08-29T10:34:12Z</time>
      </trkpt>
      <trkpt lat="41.78068" lon="9.16544">
        <ele>852.346</ele>
        <time>2015-08-29T10:34:17Z</time>
      </trkpt>
      <trkpt lat="41.78069" lon="9.16533">
        <ele>852.827</ele>
        <time>2015-08-29T10:34:23Z</time>
      </trkpt>
      <trkpt lat="41.78069" lon="9.16533">
        <ele>851.865</ele>
        <time>2015-08-29T10:34:28Z</time>
      </trkpt>
      <trkpt lat="41.78071" lon="9.16527">
        <ele>853.307</ele>
        <time>2015-08-29T10:34:36Z</time>
      </trkpt>
      <trkpt lat="41.78071" lon="9.16527">
        <ele>853.788</ele>
        <time>2015-08-29T10:34:38Z</time>
      </trkpt>
      <trkpt lat="41.78072" lon="9.1651">
        <ele>856.672</ele>
        <time>2015-08-29T10:34:51Z</time>
      </trkpt>
      <trkpt lat="41.78072" lon="9.16509">
        <ele>857.153</ele>
        <time>2015-08-29T10:34:52Z</time>
      </trkpt>
      <trkpt lat="41.78068" lon="9.16502">
        <ele>858.594</ele>
        <time>2015-08-29T10:34:58Z</time>
      </trkpt>
      <trkpt lat="41.78067" lon="9.165">
        <ele>859.075</ele>
        <time>2015-08-29T10:34:59Z</time>
      </trkpt>
      <trkpt lat="41.78064" lon="9.16497">
        <ele>860.037</ele>
        <time>2015-08-29T10:35:04Z</time>
      </trkpt>
      <trkpt lat="41.78062" lon="9.16495">
        <ele>860.037</ele>
        <time>2015-08-29T10:35:06Z</time>
      </trkpt>
      <trkpt lat="41.78061" lon="9.16493">
        <ele>860.037</ele>
        <time>2015-08-29T10:35:09Z</time>
      </trkpt>
      <trkpt lat="41.7806" lon="9.16492">
        <ele>860.998</ele>
        <time>2015-08-29T10:35:15Z</time>
      </trkpt>
      <trkpt lat="41.78056" lon="9.16483">
        <ele>862.44</ele>
        <time>2015-08-29T10:35:23Z</time>
      </trkpt>
      <trkpt lat="41.78055" lon="9.1648">
        <ele>862.921</ele>
        <time>2015-08-29T10:35:25Z</time>
      </trkpt>
      <trkpt lat="41.78053" lon="9.16472">
        <ele>864.363</ele>
        <time>2015-08-29T10:35:31Z</time>
      </trkpt>
      <trkpt lat="41.78052" lon="9.16469">
        <ele>864.363</ele>
        <time>2015-08-29T10:35:34Z</time>
      </trkpt>
      <trkpt lat="41.7805" lon="9.16466">
        <ele>865.324</ele>
        <time>2015-08-29T10:35:42Z</time>
      </trkpt>
      <trkpt lat="41.78047" lon="9.1646">
        <ele>867.247</ele>
        <time>2015-08-29T10:35:50Z</time>
      </trkpt>
      <trkpt lat="41.78047" lon="9.1646">
        <ele>867.247</ele>
        <time>2015-08-29T10:35:53Z</time>
      </trkpt>
      <trkpt lat="41.78042" lon="9.16452">
        <ele>866.285</ele>
        <time>2015-08-29T10:35:58Z</time>
      </trkpt>
      <trkpt lat="41.78032" lon="9.16443">
        <ele>867.247</ele>
        <time>2015-08-29T10:36:04Z</time>
      </trkpt>
      <trkpt lat="41.78031" lon="9.16442">
        <ele>867.727</ele>
        <time>2015-08-29T10:36:06Z</time>
      </trkpt>
      <trkpt lat="41.78029" lon="9.16441">
        <ele>867.727</ele>
        <time>2015-08-29T10:36:08Z</time>
      </trkpt>
      <trkpt lat="41.78021" lon="9.16428">
        <ele>868.688</ele>
        <time>2015-08-29T10:36:16Z</time>
      </trkpt>
      <trkpt lat="41.78017" lon="9.1642">
        <ele>869.169</ele>
        <time>2015-08-29T10:36:22Z</time>
      </trkpt>
      <trkpt lat="41.78015" lon="9.16409">
        <ele>869.65</ele>
        <time>2015-08-29T10:36:28Z</time>
      </trkpt>
      <trkpt lat="41.7802" lon="9.16393">
        <ele>864.843</ele>
        <time>2015-08-29T10:36:34Z</time>
      </trkpt>
      <trkpt lat="41.78022" lon="9.16383">
        <ele>864.843</ele>
        <time>2015-08-29T10:36:37Z</time>
      </trkpt>
      <trkpt lat="41.78019" lon="9.16355">
        <ele>867.727</ele>
        <time>2015-08-29T10:36:45Z</time>
      </trkpt>
      <trkpt lat="41.78012" lon="9.16335">
        <ele>868.688</ele>
        <time>2015-08-29T10:36:51Z</time>
      </trkpt>
      <trkpt lat="41.78004" lon="9.16309">
        <ele>866.766</ele>
        <time>2015-08-29T10:36:59Z</time>
      </trkpt>
      <trkpt lat="41.78003" lon="9.16307">
        <ele>866.766</ele>
        <time>2015-08-29T10:37:01Z</time>
      </trkpt>
      <trkpt lat="41.78002" lon="9.16305">
        <ele>866.285</ele>
        <time>2015-08-29T10:37:08Z</time>
      </trkpt>
      <trkpt lat="41.78" lon="9.16302">
        <ele>867.247</ele>
        <time>2015-08-29T10:37:12Z</time>
      </trkpt>
      <trkpt lat="41.77997" lon="9.16296">
        <ele>869.65</ele>
        <time>2015-08-29T10:37:16Z</time>
      </trkpt>
      <trkpt lat="41.77995" lon="9.16291">
        <ele>870.13</ele>
        <time>2015-08-29T10:37:21Z</time>
      </trkpt>
      <trkpt lat="41.77994" lon="9.16285">
        <ele>870.13</ele>
        <time>2015-08-29T10:37:27Z</time>
      </trkpt>
      <trkpt lat="41.77993" lon="9.16272">
        <ele>871.092</ele>
        <time>2015-08-29T10:37:35Z</time>
      </trkpt>
      <trkpt lat="41.77987" lon="9.16253">
        <ele>873.495</ele>
        <time>2015-08-29T10:37:43Z</time>
      </trkpt>
      <trkpt lat="41.77985" lon="9.16246">
        <ele>873.976</ele>
        <time>2015-08-29T10:37:46Z</time>
      </trkpt>
      <trkpt lat="41.77986" lon="9.16232">
        <ele>873.014</ele>
        <time>2015-08-29T10:37:52Z</time>
      </trkpt>
      <trkpt lat="41.77987" lon="9.16216">
        <ele>874.937</ele>
        <time>2015-08-29T10:37:58Z</time>
      </trkpt>
      <trkpt lat="41.77983" lon="9.16196">
        <ele>876.379</ele>
        <time>2015-08-29T10:38:06Z</time>
      </trkpt>
      <trkpt lat="41.77977" lon="9.16176">
        <ele>874.456</ele>
        <time>2015-08-29T10:38:12Z</time>
      </trkpt>
      <trkpt lat="41.77974" lon="9.16166">
        <ele>874.937</ele>
        <time>2015-08-29T10:38:16Z</time>
      </trkpt>
      <trkpt lat="41.77974" lon="9.16166">
        <ele>873.976</ele>
        <time>2015-08-29T10:38:23Z</time>
      </trkpt>
      <trkpt lat="41.77974" lon="9.16166">
        <ele>874.456</ele>
        <time>2015-08-29T10:38:26Z</time>
      </trkpt>
      <trkpt lat="41.77967" lon="9.16153">
        <ele>875.898</ele>
        <time>2015-08-29T10:38:32Z</time>
      </trkpt>
      <trkpt lat="41.77964" lon="9.1614">
        <ele>877.341</ele>
        <time>2015-08-29T10:38:37Z</time>
      </trkpt>
      <trkpt lat="41.77963" lon="9.16127">
        <ele>878.302</ele>
        <time>2015-08-29T10:38:42Z</time>
      </trkpt>
      <trkpt lat="41.77961" lon="9.16121">
        <ele>878.782</ele>
        <time>2015-08-29T10:38:44Z</time>
      </trkpt>
      <trkpt lat="41.77954" lon="9.16096">
        <ele>880.224</ele>
        <time>2015-08-29T10:38:53Z</time>
      </trkpt>
      <trkpt lat="41.77947" lon="9.16085">
        <ele>880.705</ele>
        <time>2015-08-29T10:38:58Z</time>
      </trkpt>
      <trkpt lat="41.77939" lon="9.16065">
        <ele>882.147</ele>
        <time>2015-08-29T10:39:06Z</time>
      </trkpt>
      <trkpt lat="41.77933" lon="9.16051">
        <ele>883.108</ele>
        <time>2015-08-29T10:39:11Z</time>
      </trkpt>
      <trkpt lat="41.77925" lon="9.16031">
        <ele>881.186</ele>
        <time>2015-08-29T10:39:18Z</time>
      </trkpt>
      <trkpt lat="41.77918" lon="9.16011">
        <ele>882.628</ele>
        <time>2015-08-29T10:39:23Z</time>
      </trkpt>
      <trkpt lat="41.77915" lon="9.15996">
        <ele>884.07</ele>
        <time>2015-08-29T10:39:28Z</time>
      </trkpt>
      <trkpt lat="41.77915" lon="9.15983">
        <ele>886.473</ele>
        <time>2015-08-29T10:39:32Z</time>
      </trkpt>
      <trkpt lat="41.7792" lon="9.15973">
        <ele>883.108</ele>
        <time>2015-08-29T10:39:38Z</time>
      </trkpt>
      <trkpt lat="41.77921" lon="9.15971">
        <ele>882.147</ele>
        <time>2015-08-29T10:39:39Z</time>
      </trkpt>
      <trkpt lat="41.77924" lon="9.15951">
        <ele>877.821</ele>
        <time>2015-08-29T10:39:45Z</time>
      </trkpt>
      <trkpt lat="41.77928" lon="9.15935">
        <ele>875.898</ele>
        <time>2015-08-29T10:39:49Z</time>
      </trkpt>
      <trkpt lat="41.7793" lon="9.15931">
        <ele>874.937</ele>
        <time>2015-08-29T10:39:50Z</time>
      </trkpt>
      <trkpt lat="41.77933" lon="9.15921">
        <ele>873.014</ele>
        <time>2015-08-29T10:39:54Z</time>
      </trkpt>
      <trkpt lat="41.77935" lon="9.15904">
        <ele>868.208</ele>
        <time>2015-08-29T10:40:01Z</time>
      </trkpt>
      <trkpt lat="41.77936" lon="9.15899">
        <ele>866.285</ele>
        <time>2015-08-29T10:40:03Z</time>
      </trkpt>
      <trkpt lat="41.77938" lon="9.15885">
        <ele>866.766</ele>
        <time>2015-08-29T10:40:08Z</time>
      </trkpt>
      <trkpt lat="41.77939" lon="9.15876">
        <ele>865.324</ele>
        <time>2015-08-29T10:40:12Z</time>
      </trkpt>
      <trkpt lat="41.77934" lon="9.15865">
        <ele>861.959</ele>
        <time>2015-08-29T10:40:17Z</time>
      </trkpt>
      <trkpt lat="41.77929" lon="9.15855">
        <ele>860.998</ele>
        <time>2015-08-29T10:40:22Z</time>
      </trkpt>
      <trkpt lat="41.77938" lon="9.15838">
        <ele>857.633</ele>
        <time>2015-08-29T10:40:28Z</time>
      </trkpt>
      <trkpt lat="41.77943" lon="9.15824">
        <ele>855.23</ele>
        <time>2015-08-29T10:40:32Z</time>
      </trkpt>
      <trkpt lat="41.77948" lon="9.15812">
        <ele>854.269</ele>
        <time>2015-08-29T10:40:36Z</time>
      </trkpt>
      <trkpt lat="41.77945" lon="9.15796">
        <ele>854.749</ele>
        <time>2015-08-29T10:40:41Z</time>
      </trkpt>
      <trkpt lat="41.77943" lon="9.15783">
        <ele>853.307</ele>
        <time>2015-08-29T10:40:45Z</time>
      </trkpt>
      <trkpt lat="41.77949" lon="9.15771">
        <ele>850.904</ele>
        <time>2015-08-29T10:40:50Z</time>
      </trkpt>
      <trkpt lat="41.77949" lon="9.15771">
        <ele>849.943</ele>
        <time>2015-08-29T10:40:52Z</time>
      </trkpt>
      <trkpt lat="41.77956" lon="9.15762">
        <ele>853.307</ele>
        <time>2015-08-29T10:41:17Z</time>
      </trkpt>
      <trkpt lat="41.77958" lon="9.15757">
        <ele>850.904</ele>
        <time>2015-08-29T10:41:23Z</time>
      </trkpt>
      <trkpt lat="41.77958" lon="9.15757">
        <ele>848.501</ele>
        <time>2015-08-29T10:41:25Z</time>
      </trkpt>
      <trkpt lat="41.77967" lon="9.15728">
        <ele>849.943</ele>
        <time>2015-08-29T10:42:17Z</time>
      </trkpt>
      <trkpt lat="41.77967" lon="9.15696">
        <ele>846.098</ele>
        <time>2015-08-29T10:42:51Z</time>
      </trkpt>
      <trkpt lat="41.77964" lon="9.15681">
        <ele>844.175</ele>
        <time>2015-08-29T10:42:55Z</time>
      </trkpt>
      <trkpt lat="41.7796" lon="9.15664">
        <ele>841.291</ele>
        <time>2015-08-29T10:43:00Z</time>
      </trkpt>
      <trkpt lat="41.77959" lon="9.15657">
        <ele>841.291</ele>
        <time>2015-08-29T10:43:02Z</time>
      </trkpt>
      <trkpt lat="41.77953" lon="9.15635">
        <ele>841.771</ele>
        <time>2015-08-29T10:43:09Z</time>
      </trkpt>
      <trkpt lat="41.77948" lon="9.15626">
        <ele>846.098</ele>
        <time>2015-08-29T10:43:16Z</time>
      </trkpt>
      <trkpt lat="41.77939" lon="9.15617">
        <ele>850.424</ele>
        <time>2015-08-29T10:43:22Z</time>
      </trkpt>
      <trkpt lat="41.77939" lon="9.15617">
        <ele>854.269</ele>
        <time>2015-08-29T10:43:27Z</time>
      </trkpt>
      <trkpt lat="41.7793" lon="9.1561">
        <ele>854.749</ele>
        <time>2015-08-29T10:43:32Z</time>
      </trkpt>
      <trkpt lat="41.77925" lon="9.15607">
        <ele>854.269</ele>
        <time>2015-08-29T10:43:36Z</time>
      </trkpt>
      <trkpt lat="41.77911" lon="9.15598">
        <ele>854.269</ele>
        <time>2015-08-29T10:43:43Z</time>
      </trkpt>
      <trkpt lat="41.77894" lon="9.15588">
        <ele>851.865</ele>
        <time>2015-08-29T10:43:50Z</time>
      </trkpt>
      <trkpt lat="41.77877" lon="9.15568">
        <ele>848.02</ele>
        <time>2015-08-29T10:43:56Z</time>
      </trkpt>
      <trkpt lat="41.7787" lon="9.15549">
        <ele>849.943</ele>
        <time>2015-08-29T10:44:01Z</time>
      </trkpt>
      <trkpt lat="41.77868" lon="9.15533">
        <ele>850.424</ele>
        <time>2015-08-29T10:44:07Z</time>
      </trkpt>
      <trkpt lat="41.77868" lon="9.15529">
        <ele>851.865</ele>
        <time>2015-08-29T10:44:09Z</time>
      </trkpt>
      <trkpt lat="41.77869" lon="9.15517">
        <ele>853.307</ele>
        <time>2015-08-29T10:44:14Z</time>
      </trkpt>
      <trkpt lat="41.77866" lon="9.15494">
        <ele>853.788</ele>
        <time>2015-08-29T10:44:20Z</time>
      </trkpt>
      <trkpt lat="41.77859" lon="9.1548">
        <ele>853.788</ele>
        <time>2015-08-29T10:44:23Z</time>
      </trkpt>
      <trkpt lat="41.77856" lon="9.15476">
        <ele>854.749</ele>
        <time>2015-08-29T10:44:26Z</time>
      </trkpt>
      <trkpt lat="41.77856" lon="9.15476">
        <ele>857.153</ele>
        <time>2015-08-29T10:44:48Z</time>
      </trkpt>
      <trkpt lat="41.77856" lon="9.15476">
        <ele>858.594</ele>
        <time>2015-08-29T10:44:52Z</time>
      </trkpt>
      <trkpt lat="41.77856" lon="9.15476">
        <ele>858.114</ele>
        <time>2015-08-29T10:45:00Z</time>
      </trkpt>
      <trkpt lat="41.7783" lon="9.15493">
        <ele>857.633</ele>
        <time>2015-08-29T10:45:10Z</time>
      </trkpt>
      <trkpt lat="41.77822" lon="9.155">
        <ele>854.269</ele>
        <time>2015-08-29T10:45:16Z</time>
      </trkpt>
      <trkpt lat="41.77815" lon="9.15501">
        <ele>852.827</ele>
        <time>2015-08-29T10:45:19Z</time>
      </trkpt>
      <trkpt lat="41.77799" lon="9.15499">
        <ele>851.385</ele>
        <time>2015-08-29T10:45:25Z</time>
      </trkpt>
      <trkpt lat="41.77785" lon="9.15493">
        <ele>849.943</ele>
        <time>2015-08-29T10:45:30Z</time>
      </trkpt>
      <trkpt lat="41.77777" lon="9.15487">
        <ele>851.385</ele>
        <time>2015-08-29T10:45:34Z</time>
      </trkpt>
      <trkpt lat="41.77767" lon="9.15479">
        <ele>853.307</ele>
        <time>2015-08-29T10:45:40Z</time>
      </trkpt>
      <trkpt lat="41.77757" lon="9.15468">
        <ele>851.865</ele>
        <time>2015-08-29T10:45:46Z</time>
      </trkpt>
      <trkpt lat="41.77746" lon="9.15457">
        <ele>853.307</ele>
        <time>2015-08-29T10:45:51Z</time>
      </trkpt>
      <trkpt lat="41.77735" lon="9.15455">
        <ele>856.672</ele>
        <time>2015-08-29T10:45:56Z</time>
      </trkpt>
      <trkpt lat="41.77732" lon="9.15455">
        <ele>857.153</ele>
        <time>2015-08-29T10:45:57Z</time>
      </trkpt>
      <trkpt lat="41.77718" lon="9.15452">
        <ele>860.517</ele>
        <time>2015-08-29T10:46:03Z</time>
      </trkpt>
      <trkpt lat="41.77718" lon="9.15452">
        <ele>863.401</ele>
        <time>2015-08-29T10:46:09Z</time>
      </trkpt>
      <trkpt lat="41.77707" lon="9.15434">
        <ele>861.479</ele>
        <time>2015-08-29T10:46:15Z</time>
      </trkpt>
      <trkpt lat="41.77706" lon="9.15432">
        <ele>861.479</ele>
        <time>2015-08-29T10:46:19Z</time>
      </trkpt>
      <trkpt lat="41.777" lon="9.15418">
        <ele>863.882</ele>
        <time>2015-08-29T10:46:25Z</time>
      </trkpt>
      <trkpt lat="41.77693" lon="9.15404">
        <ele>865.805</ele>
        <time>2015-08-29T10:46:32Z</time>
      </trkpt>
      <trkpt lat="41.77692" lon="9.15401">
        <ele>866.285</ele>
        <time>2015-08-29T10:46:34Z</time>
      </trkpt>
      <trkpt lat="41.77688" lon="9.15394">
        <ele>861.959</ele>
        <time>2015-08-29T10:46:39Z</time>
      </trkpt>
      <trkpt lat="41.77678" lon="9.15378">
        <ele>856.672</ele>
        <time>2015-08-29T10:46:46Z</time>
      </trkpt>
      <trkpt lat="41.77671" lon="9.15368">
        <ele>856.672</ele>
        <time>2015-08-29T10:46:52Z</time>
      </trkpt>
      <trkpt lat="41.77666" lon="9.15362">
        <ele>859.556</ele>
        <time>2015-08-29T10:46:56Z</time>
      </trkpt>
      <trkpt lat="41.77657" lon="9.15349">
        <ele>864.363</ele>
        <time>2015-08-29T10:47:04Z</time>
      </trkpt>
      <trkpt lat="41.7765" lon="9.15342">
        <ele>862.921</ele>
        <time>2015-08-29T10:47:07Z</time>
      </trkpt>
      <trkpt lat="41.77637" lon="9.15333">
        <ele>861.479</ele>
        <time>2015-08-29T10:47:14Z</time>
      </trkpt>
      <trkpt lat="41.77623" lon="9.15322">
        <ele>862.44</ele>
        <time>2015-08-29T10:47:20Z</time>
      </trkpt>
      <trkpt lat="41.77611" lon="9.1532">
        <ele>863.882</ele>
        <time>2015-08-29T10:47:25Z</time>
      </trkpt>
      <trkpt lat="41.77592" lon="9.15317">
        <ele>863.401</ele>
        <time>2015-08-29T10:47:30Z</time>
      </trkpt>
      <trkpt lat="41.77566" lon="9.15311">
        <ele>863.401</ele>
        <time>2015-08-29T10:47:36Z</time>
      </trkpt>
      <trkpt lat="41.77547" lon="9.15303">
        <ele>862.921</ele>
        <time>2015-08-29T10:47:41Z</time>
      </trkpt>
      <trkpt lat="41.77535" lon="9.15296">
        <ele>864.843</ele>
        <time>2015-08-29T10:47:46Z</time>
      </trkpt>
      <trkpt lat="41.77522" lon="9.15291">
        <ele>862.921</ele>
        <time>2015-08-29T10:47:50Z</time>
      </trkpt>
      <trkpt lat="41.77515" lon="9.15286">
        <ele>860.998</ele>
        <time>2015-08-29T10:47:52Z</time>
      </trkpt>
      <trkpt lat="41.77489" lon="9.15276">
        <ele>862.921</ele>
        <time>2015-08-29T10:47:57Z</time>
      </trkpt>
      <trkpt lat="41.77478" lon="9.15269">
        <ele>862.44</ele>
        <time>2015-08-29T10:47:59Z</time>
      </trkpt>
      <trkpt lat="41.77446" lon="9.15237">
        <ele>858.114</ele>
        <time>2015-08-29T10:48:05Z</time>
      </trkpt>
      <trkpt lat="41.77432" lon="9.1522">
        <ele>855.711</ele>
        <time>2015-08-29T10:48:08Z</time>
      </trkpt>
      <trkpt lat="41.77414" lon="9.15198">
        <ele>852.827</ele>
        <time>2015-08-29T10:48:12Z</time>
      </trkpt>
      <trkpt lat="41.77398" lon="9.15177">
        <ele>848.981</ele>
        <time>2015-08-29T10:48:17Z</time>
      </trkpt>
      <trkpt lat="41.77394" lon="9.15172">
        <ele>849.943</ele>
        <time>2015-08-29T10:48:19Z</time>
      </trkpt>
      <trkpt lat="41.77396" lon="9.15141">
        <ele>849.462</ele>
        <time>2015-08-29T10:48:23Z</time>
      </trkpt>
      <trkpt lat="41.77388" lon="9.1511">
        <ele>847.059</ele>
        <time>2015-08-29T10:48:28Z</time>
      </trkpt>
      <trkpt lat="41.77389" lon="9.15106">
        <ele>846.578</ele>
        <time>2015-08-29T10:48:30Z</time>
      </trkpt>
      <trkpt lat="41.77389" lon="9.15098">
        <ele>844.656</ele>
        <time>2015-08-29T10:48:34Z</time>
      </trkpt>
      <trkpt lat="41.77394" lon="9.15088">
        <ele>837.446</ele>
        <time>2015-08-29T10:48:39Z</time>
      </trkpt>
      <trkpt lat="41.774" lon="9.15078">
        <ele>833.12</ele>
        <time>2015-08-29T10:48:42Z</time>
      </trkpt>
      <trkpt lat="41.77409" lon="9.15058">
        <ele>826.871</ele>
        <time>2015-08-29T10:48:47Z</time>
      </trkpt>
      <trkpt lat="41.77416" lon="9.15042">
        <ele>823.987</ele>
        <time>2015-08-29T10:48:51Z</time>
      </trkpt>
      <trkpt lat="41.77417" lon="9.15035">
        <ele>827.352</ele>
        <time>2015-08-29T10:48:53Z</time>
      </trkpt>
      <trkpt lat="41.77412" lon="9.1502">
        <ele>829.755</ele>
        <time>2015-08-29T10:48:56Z</time>
      </trkpt>
      <trkpt lat="41.77388" lon="9.1501">
        <ele>830.236</ele>
        <time>2015-08-29T10:49:00Z</time>
      </trkpt>
      <trkpt lat="41.77367" lon="9.15012">
        <ele>833.6</ele>
        <time>2015-08-29T10:49:05Z</time>
      </trkpt>
      <trkpt lat="41.77354" lon="9.15">
        <ele>835.523</ele>
        <time>2015-08-29T10:49:09Z</time>
      </trkpt>
      <trkpt lat="41.77352" lon="9.14996">
        <ele>836.004</ele>
        <time>2015-08-29T10:49:10Z</time>
      </trkpt>
      <trkpt lat="41.77339" lon="9.14978">
        <ele>838.407</ele>
        <time>2015-08-29T10:49:15Z</time>
      </trkpt>
      <trkpt lat="41.77324" lon="9.14969">
        <ele>837.446</ele>
        <time>2015-08-29T10:49:19Z</time>
      </trkpt>
      <trkpt lat="41.77309" lon="9.14962">
        <ele>836.965</ele>
        <time>2015-08-29T10:49:23Z</time>
      </trkpt>
      <trkpt lat="41.77306" lon="9.1496">
        <ele>836.484</ele>
        <time>2015-08-29T10:49:24Z</time>
      </trkpt>
      <trkpt lat="41.77293" lon="9.14948">
        <ele>837.446</ele>
        <time>2015-08-29T10:49:28Z</time>
      </trkpt>
      <trkpt lat="41.77289" lon="9.14933">
        <ele>835.042</ele>
        <time>2015-08-29T10:49:32Z</time>
      </trkpt>
      <trkpt lat="41.77282" lon="9.14911">
        <ele>831.678</ele>
        <time>2015-08-29T10:49:37Z</time>
      </trkpt>
      <trkpt lat="41.77274" lon="9.14889">
        <ele>836.004</ele>
        <time>2015-08-29T10:49:41Z</time>
      </trkpt>
      <trkpt lat="41.77268" lon="9.14867">
        <ele>838.407</ele>
        <time>2015-08-29T10:49:45Z</time>
      </trkpt>
      <trkpt lat="41.77267" lon="9.14852">
        <ele>839.368</ele>
        <time>2015-08-29T10:49:49Z</time>
      </trkpt>
      <trkpt lat="41.77267" lon="9.14848">
        <ele>839.849</ele>
        <time>2015-08-29T10:49:51Z</time>
      </trkpt>
      <trkpt lat="41.77266" lon="9.14827">
        <ele>842.733</ele>
        <time>2015-08-29T10:49:59Z</time>
      </trkpt>
      <trkpt lat="41.77265" lon="9.14823">
        <ele>845.136</ele>
        <time>2015-08-29T10:50:01Z</time>
      </trkpt>
      <trkpt lat="41.77265" lon="9.14821">
        <ele>850.424</ele>
        <time>2015-08-29T10:50:06Z</time>
      </trkpt>
      <trkpt lat="41.77265" lon="9.14821">
        <ele>850.424</ele>
        <time>2015-08-29T10:50:08Z</time>
      </trkpt>
      <trkpt lat="41.77264" lon="9.14813">
        <ele>855.23</ele>
        <time>2015-08-29T10:50:15Z</time>
      </trkpt>
      <trkpt lat="41.77262" lon="9.14802">
        <ele>856.191</ele>
        <time>2015-08-29T10:50:16Z</time>
      </trkpt>
      <trkpt lat="41.77261" lon="9.14799">
        <ele>857.153</ele>
        <time>2015-08-29T10:50:19Z</time>
      </trkpt>
      <trkpt lat="41.77256" lon="9.14784">
        <ele>854.269</ele>
        <time>2015-08-29T10:50:27Z</time>
      </trkpt>
      <trkpt lat="41.77252" lon="9.14773">
        <ele>852.827</ele>
        <time>2015-08-29T10:50:32Z</time>
      </trkpt>
      <trkpt lat="41.77249" lon="9.14762">
        <ele>848.981</ele>
        <time>2015-08-29T10:50:38Z</time>
      </trkpt>
      <trkpt lat="41.77245" lon="9.1475">
        <ele>845.136</ele>
        <time>2015-08-29T10:50:44Z</time>
      </trkpt>
      <trkpt lat="41.77243" lon="9.14745">
        <ele>844.175</ele>
        <time>2015-08-29T10:50:47Z</time>
      </trkpt>
      <trkpt lat="41.77241" lon="9.14735">
        <ele>840.81</ele>
        <time>2015-08-29T10:50:52Z</time>
      </trkpt>
      <trkpt lat="41.77247" lon="9.14718">
        <ele>836.004</ele>
        <time>2015-08-29T10:50:58Z</time>
      </trkpt>
      <trkpt lat="41.77248" lon="9.14715">
        <ele>835.042</ele>
        <time>2015-08-29T10:51:01Z</time>
      </trkpt>
      <trkpt lat="41.77248" lon="9.14708">
        <ele>836.484</ele>
        <time>2015-08-29T10:51:04Z</time>
      </trkpt>
      <trkpt lat="41.77201" lon="9.14697">
        <ele>841.771</ele>
        <time>2015-08-29T10:51:10Z</time>
      </trkpt>
      <trkpt lat="41.77239" lon="9.14694">
        <ele>845.136</ele>
        <time>2015-08-29T10:51:16Z</time>
      </trkpt>
      <trkpt lat="41.77227" lon="9.14703">
        <ele>847.059</ele>
        <time>2015-08-29T10:51:26Z</time>
      </trkpt>
      <trkpt lat="41.77212" lon="9.14709">
        <ele>848.02</ele>
        <time>2015-08-29T10:51:33Z</time>
      </trkpt>
      <trkpt lat="41.77212" lon="9.14709">
        <ele>848.02</ele>
        <time>2015-08-29T10:51:34Z</time>
      </trkpt>
      <trkpt lat="41.77206" lon="9.14704">
        <ele>849.462</ele>
        <time>2015-08-29T10:51:50Z</time>
      </trkpt>
      <trkpt lat="41.77202" lon="9.14699">
        <ele>848.981</ele>
        <time>2015-08-29T10:51:56Z</time>
      </trkpt>
      <trkpt lat="41.77201" lon="9.14697">
        <ele>847.54</ele>
        <time>2015-08-29T10:51:58Z</time>
      </trkpt>
      <trkpt lat="41.77169" lon="9.14663">
        <ele>846.578</ele>
        <time>2015-08-29T10:52:05Z</time>
      </trkpt>
      <trkpt lat="41.77148" lon="9.14643">
        <ele>844.175</ele>
        <time>2015-08-29T10:52:09Z</time>
      </trkpt>
      <trkpt lat="41.77136" lon="9.14631">
        <ele>842.252</ele>
        <time>2015-08-29T10:52:13Z</time>
      </trkpt>
      <trkpt lat="41.77094" lon="9.14571">
        <ele>839.368</ele>
        <time>2015-08-29T10:52:19Z</time>
      </trkpt>
      <trkpt lat="41.7705" lon="9.14518">
        <ele>837.926</ele>
        <time>2015-08-29T10:52:26Z</time>
      </trkpt>
      <trkpt lat="41.77032" lon="9.14494">
        <ele>837.446</ele>
        <time>2015-08-29T10:52:29Z</time>
      </trkpt>
      <trkpt lat="41.76984" lon="9.14454">
        <ele>834.562</ele>
        <time>2015-08-29T10:52:36Z</time>
      </trkpt>
      <trkpt lat="41.7693" lon="9.14411">
        <ele>830.236</ele>
        <time>2015-08-29T10:52:43Z</time>
      </trkpt>
      <trkpt lat="41.76907" lon="9.14389">
        <ele>828.313</ele>
        <time>2015-08-29T10:52:47Z</time>
      </trkpt>
      <trkpt lat="41.76858" lon="9.14376">
        <ele>825.91</ele>
        <time>2015-08-29T10:52:53Z</time>
      </trkpt>
      <trkpt lat="41.76824" lon="9.14374">
        <ele>823.987</ele>
        <time>2015-08-29T10:53:00Z</time>
      </trkpt>
      <trkpt lat="41.76769" lon="9.14344">
        <ele>823.026</ele>
        <time>2015-08-29T10:53:04Z</time>
      </trkpt>
      <trkpt lat="41.76761" lon="9.14327">
        <ele>823.026</ele>
        <time>2015-08-29T10:53:06Z</time>
      </trkpt>
      <trkpt lat="41.76743" lon="9.14274">
        <ele>818.7</ele>
        <time>2015-08-29T10:53:12Z</time>
      </trkpt>
      <trkpt lat="41.76723" lon="9.14225">
        <ele>816.777</ele>
        <time>2015-08-29T10:53:17Z</time>
      </trkpt>
      <trkpt lat="41.76719" lon="9.14218">
        <ele>816.297</ele>
        <time>2015-08-29T10:53:18Z</time>
      </trkpt>
      <trkpt lat="41.76693" lon="9.14183">
        <ele>813.413</ele>
        <time>2015-08-29T10:53:25Z</time>
      </trkpt>
      <trkpt lat="41.76683" lon="9.14169">
        <ele>812.451</ele>
        <time>2015-08-29T10:53:28Z</time>
      </trkpt>
      <trkpt lat="41.76666" lon="9.14163">
        <ele>812.451</ele>
        <time>2015-08-29T10:53:33Z</time>
      </trkpt>
      <trkpt lat="41.76639" lon="9.14177">
        <ele>811.009</ele>
        <time>2015-08-29T10:53:40Z</time>
      </trkpt>
      <trkpt lat="41.76634" lon="9.14178">
        <ele>810.529</ele>
        <time>2015-08-29T10:53:41Z</time>
      </trkpt>
      <trkpt lat="41.76624" lon="9.1417">
        <ele>810.048</ele>
        <time>2015-08-29T10:53:45Z</time>
      </trkpt>
      <trkpt lat="41.7663" lon="9.1415">
        <ele>809.087</ele>
        <time>2015-08-29T10:53:48Z</time>
      </trkpt>
      <trkpt lat="41.76638" lon="9.1412">
        <ele>807.645</ele>
        <time>2015-08-29T10:53:54Z</time>
      </trkpt>
      <trkpt lat="41.76641" lon="9.14099">
        <ele>806.203</ele>
        <time>2015-08-29T10:53:58Z</time>
      </trkpt>
      <trkpt lat="41.7664" lon="9.14069">
        <ele>804.761</ele>
        <time>2015-08-29T10:54:03Z</time>
      </trkpt>
      <trkpt lat="41.76637" lon="9.14055">
        <ele>804.761</ele>
        <time>2015-08-29T10:54:05Z</time>
      </trkpt>
      <trkpt lat="41.76612" lon="9.14007">
        <ele>803.8</ele>
        <time>2015-08-29T10:54:13Z</time>
      </trkpt>
      <trkpt lat="41.76607" lon="9.13995">
        <ele>803.319</ele>
        <time>2015-08-29T10:54:15Z</time>
      </trkpt>
      <trkpt lat="41.76607" lon="9.13995">
        <ele>802.357</ele>
        <time>2015-08-29T10:54:19Z</time>
      </trkpt>
      <trkpt lat="41.76594" lon="9.13904">
        <ele>800.435</ele>
        <time>2015-08-29T10:54:27Z</time>
      </trkpt>
      <trkpt lat="41.76594" lon="9.13904">
        <ele>798.993</ele>
        <time>2015-08-29T10:54:30Z</time>
      </trkpt>
      <trkpt lat="41.76594" lon="9.13851">
        <ele>797.07</ele>
        <time>2015-08-29T10:54:36Z</time>
      </trkpt>
      <trkpt lat="41.76577" lon="9.13816">
        <ele>796.59</ele>
        <time>2015-08-29T10:54:43Z</time>
      </trkpt>
      <trkpt lat="41.76575" lon="9.1381">
        <ele>796.109</ele>
        <time>2015-08-29T10:54:47Z</time>
      </trkpt>
      <trkpt lat="41.76559" lon="9.13771">
        <ele>795.628</ele>
        <time>2015-08-29T10:54:51Z</time>
      </trkpt>
      <trkpt lat="41.76547" lon="9.13745">
        <ele>793.225</ele>
        <time>2015-08-29T10:54:56Z</time>
      </trkpt>
      <trkpt lat="41.76506" lon="9.13683">
        <ele>790.341</ele>
        <time>2015-08-29T10:55:02Z</time>
      </trkpt>
      <trkpt lat="41.76503" lon="9.1368">
        <ele>789.38</ele>
        <time>2015-08-29T10:55:04Z</time>
      </trkpt>
      <trkpt lat="41.7648" lon="9.13628">
        <ele>786.976</ele>
        <time>2015-08-29T10:55:08Z</time>
      </trkpt>
      <trkpt lat="41.76432" lon="9.13545">
        <ele>782.17</ele>
        <time>2015-08-29T10:55:17Z</time>
      </trkpt>
      <trkpt lat="41.76402" lon="9.13496">
        <ele>780.247</ele>
        <time>2015-08-29T10:55:22Z</time>
      </trkpt>
      <trkpt lat="41.76369" lon="9.13453">
        <ele>777.363</ele>
        <time>2015-08-29T10:55:27Z</time>
      </trkpt>
      <trkpt lat="41.76339" lon="9.13423">
        <ele>774.479</ele>
        <time>2015-08-29T10:55:31Z</time>
      </trkpt>
      <trkpt lat="41.7627" lon="9.13372">
        <ele>769.192</ele>
        <time>2015-08-29T10:55:39Z</time>
      </trkpt>
      <trkpt lat="41.76223" lon="9.13345">
        <ele>765.347</ele>
        <time>2015-08-29T10:55:44Z</time>
      </trkpt>
      <trkpt lat="41.76203" lon="9.1334">
        <ele>764.385</ele>
        <time>2015-08-29T10:55:46Z</time>
      </trkpt>
      <trkpt lat="41.76168" lon="9.13308">
        <ele>761.021</ele>
        <time>2015-08-29T10:55:50Z</time>
      </trkpt>
      <trkpt lat="41.76145" lon="9.1328">
        <ele>758.617</ele>
        <time>2015-08-29T10:55:53Z</time>
      </trkpt>
      <trkpt lat="41.76129" lon="9.13231">
        <ele>756.214</ele>
        <time>2015-08-29T10:55:57Z</time>
      </trkpt>
      <trkpt lat="41.7613" lon="9.13215">
        <ele>755.734</ele>
        <time>2015-08-29T10:55:58Z</time>
      </trkpt>
      <trkpt lat="41.76093" lon="9.13155">
        <ele>750.927</ele>
        <time>2015-08-29T10:56:03Z</time>
      </trkpt>
      <trkpt lat="41.76075" lon="9.13137">
        <ele>749.485</ele>
        <time>2015-08-29T10:56:05Z</time>
      </trkpt>
      <trkpt lat="41.7606" lon="9.13112">
        <ele>745.159</ele>
        <time>2015-08-29T10:56:08Z</time>
      </trkpt>
      <trkpt lat="41.76072" lon="9.13092">
        <ele>741.794</ele>
        <time>2015-08-29T10:56:11Z</time>
      </trkpt>
      <trkpt lat="41.76087" lon="9.13091">
        <ele>739.391</ele>
        <time>2015-08-29T10:56:13Z</time>
      </trkpt>
      <trkpt lat="41.76106" lon="9.13091">
        <ele>739.391</ele>
        <time>2015-08-29T10:56:15Z</time>
      </trkpt>
      <trkpt lat="41.76125" lon="9.13088">
        <ele>738.43</ele>
        <time>2015-08-29T10:56:17Z</time>
      </trkpt>
      <trkpt lat="41.76157" lon="9.13062">
        <ele>737.949</ele>
        <time>2015-08-29T10:56:21Z</time>
      </trkpt>
      <trkpt lat="41.76184" lon="9.13039">
        <ele>736.027</ele>
        <time>2015-08-29T10:56:24Z</time>
      </trkpt>
      <trkpt lat="41.76196" lon="9.13043">
        <ele>735.065</ele>
        <time>2015-08-29T10:56:25Z</time>
      </trkpt>
      <trkpt lat="41.76246" lon="9.13031">
        <ele>731.7</ele>
        <time>2015-08-29T10:56:30Z</time>
      </trkpt>
      <trkpt lat="41.7626" lon="9.13007">
        <ele>729.778</ele>
        <time>2015-08-29T10:56:32Z</time>
      </trkpt>
      <trkpt lat="41.763" lon="9.12924">
        <ele>726.413</ele>
        <time>2015-08-29T10:56:38Z</time>
      </trkpt>
      <trkpt lat="41.7631" lon="9.12895">
        <ele>725.452</ele>
        <time>2015-08-29T10:56:40Z</time>
      </trkpt>
      <trkpt lat="41.76322" lon="9.12854">
        <ele>724.971</ele>
        <time>2015-08-29T10:56:43Z</time>
      </trkpt>
      <trkpt lat="41.76307" lon="9.1282">
        <ele>723.53</ele>
        <time>2015-08-29T10:56:46Z</time>
      </trkpt>
      <trkpt lat="41.7629" lon="9.12827">
        <ele>723.53</ele>
        <time>2015-08-29T10:56:48Z</time>
      </trkpt>
      <trkpt lat="41.76281" lon="9.12838">
        <ele>723.53</ele>
        <time>2015-08-29T10:56:50Z</time>
      </trkpt>
      <trkpt lat="41.76271" lon="9.12861">
        <ele>726.413</ele>
        <time>2015-08-29T10:56:53Z</time>
      </trkpt>
      <trkpt lat="41.7625" lon="9.12906">
        <ele>731.7</ele>
        <time>2015-08-29T10:56:59Z</time>
      </trkpt>
      <trkpt lat="41.76236" lon="9.12911">
        <ele>735.546</ele>
        <time>2015-08-29T10:57:03Z</time>
      </trkpt>
      <trkpt lat="41.76229" lon="9.12909">
        <ele>736.507</ele>
        <time>2015-08-29T10:57:05Z</time>
      </trkpt>
      <trkpt lat="41.76205" lon="9.12891">
        <ele>737.469</ele>
        <time>2015-08-29T10:57:13Z</time>
      </trkpt>
      <trkpt lat="41.76184" lon="9.12874">
        <ele>738.911</ele>
        <time>2015-08-29T10:57:21Z</time>
      </trkpt>
      <trkpt lat="41.76172" lon="9.12873">
        <ele>740.353</ele>
        <time>2015-08-29T10:57:26Z</time>
      </trkpt>
      <trkpt lat="41.76151" lon="9.12878">
        <ele>741.794</ele>
        <time>2015-08-29T10:57:33Z</time>
      </trkpt>
      <trkpt lat="41.76125" lon="9.12886">
        <ele>743.717</ele>
        <time>2015-08-29T10:57:41Z</time>
      </trkpt>
      <trkpt lat="41.76107" lon="9.12889">
        <ele>744.198</ele>
        <time>2015-08-29T10:57:46Z</time>
      </trkpt>
      <trkpt lat="41.7609" lon="9.12884">
        <ele>744.678</ele>
        <time>2015-08-29T10:57:50Z</time>
      </trkpt>
      <trkpt lat="41.76058" lon="9.12858">
        <ele>744.678</ele>
        <time>2015-08-29T10:57:58Z</time>
      </trkpt>
      <trkpt lat="41.76032" lon="9.12832">
        <ele>744.198</ele>
        <time>2015-08-29T10:58:04Z</time>
      </trkpt>
      <trkpt lat="41.75988" lon="9.12816">
        <ele>744.198</ele>
        <time>2015-08-29T10:58:11Z</time>
      </trkpt>
      <trkpt lat="41.75939" lon="9.12794">
        <ele>744.198</ele>
        <time>2015-08-29T10:58:18Z</time>
      </trkpt>
      <trkpt lat="41.75886" lon="9.12761">
        <ele>742.275</ele>
        <time>2015-08-29T10:58:26Z</time>
      </trkpt>
      <trkpt lat="41.75833" lon="9.1272">
        <ele>739.872</ele>
        <time>2015-08-29T10:58:34Z</time>
      </trkpt>
      <trkpt lat="41.75783" lon="9.12681">
        <ele>738.43</ele>
        <time>2015-08-29T10:58:42Z</time>
      </trkpt>
      <trkpt lat="41.75742" lon="9.12644">
        <ele>736.988</ele>
        <time>2015-08-29T10:58:49Z</time>
      </trkpt>
      <trkpt lat="41.75737" lon="9.12638">
        <ele>736.988</ele>
        <time>2015-08-29T10:58:50Z</time>
      </trkpt>
      <trkpt lat="41.75717" lon="9.12599">
        <ele>736.027</ele>
        <time>2015-08-29T10:58:55Z</time>
      </trkpt>
      <trkpt lat="41.75708" lon="9.12544">
        <ele>733.143</ele>
        <time>2015-08-29T10:59:01Z</time>
      </trkpt>
      <trkpt lat="41.75693" lon="9.12498">
        <ele>732.662</ele>
        <time>2015-08-29T10:59:06Z</time>
      </trkpt>
      <trkpt lat="41.75674" lon="9.12464">
        <ele>732.181</ele>
        <time>2015-08-29T10:59:10Z</time>
      </trkpt>
      <trkpt lat="41.75661" lon="9.12429">
        <ele>732.181</ele>
        <time>2015-08-29T10:59:14Z</time>
      </trkpt>
      <trkpt lat="41.75659" lon="9.1241">
        <ele>732.181</ele>
        <time>2015-08-29T10:59:16Z</time>
      </trkpt>
      <trkpt lat="41.75661" lon="9.12342">
        <ele>729.778</ele>
        <time>2015-08-29T10:59:23Z</time>
      </trkpt>
      <trkpt lat="41.75658" lon="9.12291">
        <ele>725.933</ele>
        <time>2015-08-29T10:59:28Z</time>
      </trkpt>
      <trkpt lat="41.7566" lon="9.12225">
        <ele>724.491</ele>
        <time>2015-08-29T10:59:34Z</time>
      </trkpt>
      <trkpt lat="41.75651" lon="9.12188">
        <ele>725.452</ele>
        <time>2015-08-29T10:59:38Z</time>
      </trkpt>
      <trkpt lat="41.75633" lon="9.12178">
        <ele>724.491</ele>
        <time>2015-08-29T10:59:41Z</time>
      </trkpt>
      <trkpt lat="41.75613" lon="9.12186">
        <ele>723.53</ele>
        <time>2015-08-29T10:59:44Z</time>
      </trkpt>
      <trkpt lat="41.756" lon="9.12197">
        <ele>722.568</ele>
        <time>2015-08-29T10:59:46Z</time>
      </trkpt>
      <trkpt lat="41.75575" lon="9.12215">
        <ele>721.607</ele>
        <time>2015-08-29T10:59:49Z</time>
      </trkpt>
      <trkpt lat="41.7555" lon="9.12204">
        <ele>721.607</ele>
        <time>2015-08-29T10:59:52Z</time>
      </trkpt>
      <trkpt lat="41.75519" lon="9.12176">
        <ele>721.607</ele>
        <time>2015-08-29T10:59:57Z</time>
      </trkpt>
      <trkpt lat="41.75504" lon="9.12169">
        <ele>721.607</ele>
        <time>2015-08-29T10:59:59Z</time>
      </trkpt>
      <trkpt lat="41.75483" lon="9.12152">
        <ele>721.126</ele>
        <time>2015-08-29T11:00:02Z</time>
      </trkpt>
      <trkpt lat="41.75468" lon="9.12117">
        <ele>722.087</ele>
        <time>2015-08-29T11:00:06Z</time>
      </trkpt>
      <trkpt lat="41.75457" lon="9.1209">
        <ele>722.087</ele>
        <time>2015-08-29T11:00:09Z</time>
      </trkpt>
      <trkpt lat="41.75415" lon="9.12035">
        <ele>722.568</ele>
        <time>2015-08-29T11:00:17Z</time>
      </trkpt>
      <trkpt lat="41.75395" lon="9.12008">
        <ele>721.126</ele>
        <time>2015-08-29T11:00:21Z</time>
      </trkpt>
      <trkpt lat="41.75384" lon="9.11972">
        <ele>719.684</ele>
        <time>2015-08-29T11:00:25Z</time>
      </trkpt>
      <trkpt lat="41.75391" lon="9.11946">
        <ele>718.723</ele>
        <time>2015-08-29T11:00:28Z</time>
      </trkpt>
      <trkpt lat="41.75405" lon="9.11924">
        <ele>717.281</ele>
        <time>2015-08-29T11:00:31Z</time>
      </trkpt>
      <trkpt lat="41.75417" lon="9.11913">
        <ele>716.32</ele>
        <time>2015-08-29T11:00:33Z</time>
      </trkpt>
      <trkpt lat="41.75442" lon="9.11873">
        <ele>714.397</ele>
        <time>2015-08-29T11:00:38Z</time>
      </trkpt>
      <trkpt lat="41.75446" lon="9.11845">
        <ele>713.436</ele>
        <time>2015-08-29T11:00:41Z</time>
      </trkpt>
      <trkpt lat="41.7544" lon="9.11831">
        <ele>714.397</ele>
        <time>2015-08-29T11:00:43Z</time>
      </trkpt>
      <trkpt lat="41.75427" lon="9.11815">
        <ele>714.397</ele>
        <time>2015-08-29T11:00:45Z</time>
      </trkpt>
      <trkpt lat="41.7538" lon="9.11771">
        <ele>714.877</ele>
        <time>2015-08-29T11:00:52Z</time>
      </trkpt>
      <trkpt lat="41.75374" lon="9.11765">
        <ele>714.877</ele>
        <time>2015-08-29T11:00:53Z</time>
      </trkpt>
      <trkpt lat="41.75346" lon="9.11756">
        <ele>713.436</ele>
        <time>2015-08-29T11:00:57Z</time>
      </trkpt>
      <trkpt lat="41.7533" lon="9.11758">
        <ele>712.955</ele>
        <time>2015-08-29T11:00:59Z</time>
      </trkpt>
      <trkpt lat="41.75287" lon="9.11758">
        <ele>711.994</ele>
        <time>2015-08-29T11:01:04Z</time>
      </trkpt>
      <trkpt lat="41.7528" lon="9.11753">
        <ele>711.513</ele>
        <time>2015-08-29T11:01:05Z</time>
      </trkpt>
      <trkpt lat="41.75243" lon="9.11715">
        <ele>711.032</ele>
        <time>2015-08-29T11:01:11Z</time>
      </trkpt>
      <trkpt lat="41.75226" lon="9.11682">
        <ele>709.11</ele>
        <time>2015-08-29T11:01:15Z</time>
      </trkpt>
      <trkpt lat="41.75228" lon="9.11673">
        <ele>709.11</ele>
        <time>2015-08-29T11:01:16Z</time>
      </trkpt>
      <trkpt lat="41.75234" lon="9.11657">
        <ele>708.629</ele>
        <time>2015-08-29T11:01:18Z</time>
      </trkpt>
      <trkpt lat="41.75254" lon="9.11621">
        <ele>710.071</ele>
        <time>2015-08-29T11:01:24Z</time>
      </trkpt>
      <trkpt lat="41.75259" lon="9.11602">
        <ele>711.032</ele>
        <time>2015-08-29T11:01:28Z</time>
      </trkpt>
      <trkpt lat="41.75261" lon="9.11567">
        <ele>713.436</ele>
        <time>2015-08-29T11:01:35Z</time>
      </trkpt>
      <trkpt lat="41.75263" lon="9.11512">
        <ele>717.281</ele>
        <time>2015-08-29T11:01:46Z</time>
      </trkpt>
      <trkpt lat="41.7527" lon="9.11468">
        <ele>719.204</ele>
        <time>2015-08-29T11:01:55Z</time>
      </trkpt>
      <trkpt lat="41.75284" lon="9.11434">
        <ele>719.684</ele>
        <time>2015-08-29T11:02:03Z</time>
      </trkpt>
      <trkpt lat="41.75292" lon="9.11403">
        <ele>720.646</ele>
        <time>2015-08-29T11:02:10Z</time>
      </trkpt>
      <trkpt lat="41.75302" lon="9.11363">
        <ele>721.607</ele>
        <time>2015-08-29T11:02:18Z</time>
      </trkpt>
      <trkpt lat="41.75317" lon="9.11342">
        <ele>721.126</ele>
        <time>2015-08-29T11:02:24Z</time>
      </trkpt>
      <trkpt lat="41.75325" lon="9.11324">
        <ele>722.568</ele>
        <time>2015-08-29T11:02:29Z</time>
      </trkpt>
      <trkpt lat="41.75327" lon="9.11296">
        <ele>726.413</ele>
        <time>2015-08-29T11:02:35Z</time>
      </trkpt>
      <trkpt lat="41.75326" lon="9.1128">
        <ele>732.662</ele>
        <time>2015-08-29T11:02:40Z</time>
      </trkpt>
      <trkpt lat="41.7532" lon="9.11255">
        <ele>735.065</ele>
        <time>2015-08-29T11:02:46Z</time>
      </trkpt>
      <trkpt lat="41.75315" lon="9.1124">
        <ele>733.623</ele>
        <time>2015-08-29T11:02:50Z</time>
      </trkpt>
      <trkpt lat="41.75298" lon="9.11202">
        <ele>730.259</ele>
        <time>2015-08-29T11:02:57Z</time>
      </trkpt>
      <trkpt lat="41.75286" lon="9.1116">
        <ele>726.894</ele>
        <time>2015-08-29T11:03:03Z</time>
      </trkpt>
      <trkpt lat="41.75227" lon="9.11084">
        <ele>721.126</ele>
        <time>2015-08-29T11:03:13Z</time>
      </trkpt>
      <trkpt lat="41.75209" lon="9.11039">
        <ele>719.204</ele>
        <time>2015-08-29T11:03:18Z</time>
      </trkpt>
      <trkpt lat="41.75199" lon="9.11005">
        <ele>716.32</ele>
        <time>2015-08-29T11:03:25Z</time>
      </trkpt>
      <trkpt lat="41.75182" lon="9.10952">
        <ele>715.358</ele>
        <time>2015-08-29T11:03:27Z</time>
      </trkpt>
      <trkpt lat="41.75181" lon="9.1095">
        <ele>712.955</ele>
        <time>2015-08-29T11:03:31Z</time>
      </trkpt>
      <trkpt lat="41.75164" lon="9.1094">
        <ele>711.513</ele>
        <time>2015-08-29T11:03:34Z</time>
      </trkpt>
      <trkpt lat="41.75157" lon="9.10943">
        <ele>705.745</ele>
        <time>2015-08-29T11:03:41Z</time>
      </trkpt>
      <trkpt lat="41.75157" lon="9.10943">
        <ele>705.264</ele>
        <time>2015-08-29T11:03:42Z</time>
      </trkpt>
      <trkpt lat="41.75141" lon="9.10955">
        <ele>706.226</ele>
        <time>2015-08-29T11:03:47Z</time>
      </trkpt>
      <trkpt lat="41.75123" lon="9.10963">
        <ele>707.187</ele>
        <time>2015-08-29T11:03:52Z</time>
      </trkpt>
      <trkpt lat="41.75123" lon="9.10963">
        <ele>707.187</ele>
        <time>2015-08-29T11:03:53Z</time>
      </trkpt>
    </trkseg>
  </trk>
</gpx>